| time (UTC) | temp F | wind direction | speed MPH | gust MPH | rain 1hr in | rain 24hr in | rain mn in | humidity % | barometer mb |
| 20260831040653 | 72 | 234 | 0.0 | 0.0 | 0.00 | 0.78 | 0.00 | 96 | 1016.7 |
| 20260831040603 | 71 | 234 | 0.0 | 0.0 | 0.00 | 0.78 | 0.00 | 96 | 1016.8 |
| 20260831040539 | 71 | 234 | 0.0 | 0.0 | 0.00 | 0.78 | 0.00 | 96 | 1016.7 |
| 20260831040523 | 72 | 234 | 0.0 | 0.0 | 0.00 | 0.78 | 0.00 | 96 | 1016.9 |
| 20260831040402 | 72 | 234 | 0.0 | 0.0 | 0.00 | 0.78 | 0.00 | 96 | 1016.7 |
| 20260831040301 | 72 | 234 | 0.0 | 0.0 | 0.00 | 0.78 | 0.00 | 96 | 1016.7 |
| 20260831040201 | 72 | 234 | 0.0 | 0.0 | 0.00 | 0.78 | 0.00 | 96 | 1016.8 |
| 20260831040101 | 72 | 234 | 0.0 | 0.0 | 0.00 | 0.78 | 0.00 | 96 | 1016.8 |
| 20260831040022 | 72 | 234 | 0.0 | 0.0 | 0.00 | 0.78 | 0.00 | 96 | 1016.9 |
| 20260831035929 | 72 | 234 | 0.0 | 0.0 | 0.00 | 0.78 | 0.78 | 96 | 1016.7 |
| 20260831035857 | 72 | 234 | 0.0 | 0.0 | 0.00 | 0.78 | 0.78 | 96 | 1016.7 |
| 20260831035756 | 72 | 234 | 0.0 | 0.0 | 0.00 | 0.78 | 0.78 | 96 | 1016.7 |
| 20260831035655 | 72 | 234 | 0.0 | 0.0 | 0.00 | 0.78 | 0.78 | 96 | 1016.7 |
| 20260831035554 | 72 | 234 | 0.0 | 0.0 | 0.00 | 0.78 | 0.78 | 96 | 1016.7 |
| 20260831035523 | 72 | 234 | 0.0 | 0.0 | 0.00 | 0.78 | 0.78 | 96 | 1017.0 |
| 20260831035428 | 72 | 234 | 0.0 | 0.0 | 0.00 | 0.78 | 0.78 | 96 | 1016.8 |
| 20260831035354 | 72 | 234 | 0.0 | 0.0 | 0.00 | 0.78 | 0.78 | 96 | 1016.8 |
| 20260831035254 | 72 | 234 | 0.0 | 0.0 | 0.00 | 0.78 | 0.78 | 96 | 1016.8 |
| 20260831035249 | 72 | 234 | 0.0 | 0.0 | 0.00 | 0.78 | 0.78 | 96 | 1016.8 |
| 20260831035245 | 72 | 234 | 0.0 | 0.0 | 0.00 | 0.78 | 0.78 | 96 | 1016.8 |
| 20260831035237 | 72 | 234 | 0.0 | 0.0 | 0.00 | 0.78 | 0.78 | 96 | 1016.8 |
| 20260831035124 | 72 | 234 | 0.0 | 0.0 | 0.00 | 0.78 | 0.78 | 96 | 1016.8 |
| 20260831035115 | 72 | 234 | 0.0 | 0.0 | 0.00 | 0.78 | 0.78 | 96 | 1016.8 |
| 20260831035022 | 72 | 234 | 0.0 | 0.0 | 0.00 | 0.78 | 0.78 | 96 | 1017.0 |
| 20260831034710 | 72 | 234 | 0.0 | 0.0 | 0.00 | 0.78 | 0.78 | 96 | 1016.8 |
| 20260831034556 | 71 | 234 | 0.0 | 0.0 | 0.00 | 0.78 | 0.78 | 96 | 1016.8 |
| 20260831034522 | 72 | 234 | 0.0 | 0.0 | 0.00 | 0.78 | 0.78 | 96 | 1016.9 |
| 20260831034425 | 71 | 234 | 0.0 | 0.0 | 0.00 | 0.78 | 0.78 | 96 | 1016.7 |
| 20260831034347 | 71 | 234 | 0.0 | 0.0 | 0.00 | 0.78 | 0.78 | 96 | 1016.7 |
| 20260831034246 | 71 | 234 | 0.0 | 0.0 | 0.00 | 0.78 | 0.78 | 96 | 1016.7 |
| 20260831034146 | 71 | 234 | 0.0 | 0.0 | 0.00 | 0.78 | 0.78 | 96 | 1016.7 |
| 20260831034100 | 71 | 234 | 0.0 | 0.0 | 0.00 | 0.78 | 0.78 | 96 | 1016.7 |
| 20260831034055 | 71 | 234 | 0.0 | 0.0 | 0.00 | 0.78 | 0.78 | 96 | 1016.7 |
| 20260831034022 | 72 | 234 | 0.0 | 0.0 | 0.00 | 0.78 | 0.78 | 96 | 1016.9 |
| 20260831033924 | 71 | 234 | 0.0 | 0.0 | 0.00 | 0.78 | 0.78 | 96 | 1016.7 |
| 20260831033845 | 71 | 234 | 0.0 | 0.0 | 0.00 | 0.78 | 0.78 | 96 | 1016.7 |
| 20260831033745 | 71 | 234 | 0.0 | 0.0 | 0.00 | 0.78 | 0.78 | 96 | 1016.6 |
| 20260831033644 | 71 | 234 | 0.0 | 0.0 | 0.00 | 0.78 | 0.78 | 96 | 1016.6 |
| 20260831033611 | 71 | 234 | 0.0 | 0.0 | 0.00 | 0.78 | 0.78 | 96 | 1016.6 |
| 20260831033537 | 71 | 234 | 0.0 | 0.0 | 0.00 | 0.78 | 0.78 | 96 | 1016.9 |
| 20260831033452 | 71 | 234 | 0.0 | 0.0 | 0.00 | 0.78 | 0.78 | 96 | 1016.7 |
| 20260831033242 | 71 | 234 | 0.0 | 0.0 | 0.00 | 0.78 | 0.78 | 96 | 1016.7 |
| 20260831033201 | 71 | 234 | 0.0 | 0.0 | 0.00 | 0.78 | 0.78 | 96 | 1016.8 |
| 20260831033157 | 71 | 234 | 0.0 | 0.0 | 0.00 | 0.78 | 0.78 | 96 | 1016.7 |
| 20260831033152 | 71 | 234 | 0.0 | 0.0 | 0.00 | 0.78 | 0.78 | 96 | 1016.7 |
| 20260831033037 | 71 | 234 | 0.0 | 0.0 | 0.00 | 0.78 | 0.78 | 96 | 1017.0 |
| 20260831033029 | 71 | 234 | 0.0 | 0.0 | 0.00 | 0.78 | 0.78 | 96 | 1016.8 |
| 20260831032841 | 71 | 234 | 0.0 | 0.0 | 0.00 | 0.78 | 0.78 | 96 | 1016.8 |
| 20260831032740 | 71 | 302 | 0.0 | 0.0 | 0.00 | 0.78 | 0.78 | 96 | 1016.8 |
| 20260831032640 | 71 | 306 | 0.0 | 0.0 | 0.00 | 0.78 | 0.78 | 96 | 1016.8 |
| 20260831032611 | 71 | 310 | 0.0 | 0.0 | 0.00 | 0.78 | 0.78 | 96 | 1016.8 |
| 20260831032607 | 71 | 310 | 0.0 | 0.0 | 0.00 | 0.78 | 0.78 | 96 | 1016.8 |
| 20260831032602 | 71 | 309 | 0.0 | 0.0 | 0.00 | 0.78 | 0.78 | 96 | 1016.8 |
| 20260831032522 | 71 | 310 | 0.0 | 0.0 | 0.00 | 0.78 | 0.78 | 96 | 1017.0 |
| 20260831032447 | 71 | 310 | 0.0 | 0.0 | 0.00 | 0.78 | 0.78 | 96 | 1016.8 |
| 20260831032238 | 71 | 309 | 0.0 | 0.0 | 0.00 | 0.78 | 0.78 | 96 | 1016.7 |
| 20260831032149 | 71 | 309 | 0.0 | 0.0 | 0.01 | 0.78 | 0.78 | 96 | 1016.6 |
| 20260831032144 | 71 | 309 | 0.0 | 0.0 | 0.00 | 0.78 | 0.78 | 96 | 1016.7 |
| 20260831032135 | 71 | 309 | 0.0 | 0.0 | 0.01 | 0.78 | 0.78 | 96 | 1016.6 |
| 20260831032022 | 71 | 309 | 0.0 | 0.0 | 0.01 | 0.78 | 0.78 | 96 | 1016.8 |
| 20260831031851 | 71 | 309 | 0.0 | 0.0 | 0.03 | 0.78 | 0.78 | 96 | 1016.6 |
| 20260831031845 | 71 | 309 | 0.0 | 0.0 | 0.01 | 0.78 | 0.78 | 96 | 1016.6 |
| 20260831031636 | 71 | 309 | 0.0 | 0.0 | 0.04 | 0.78 | 0.78 | 96 | 1016.6 |
| 20260831031549 | 71 | 309 | 0.0 | 0.0 | 0.08 | 0.78 | 0.78 | 96 | 1016.6 |
| 20260831031543 | 71 | 309 | 0.0 | 0.0 | 0.08 | 0.78 | 0.78 | 96 | 1016.6 |
| 20260831031523 | 71 | 309 | 0.0 | 0.0 | 0.07 | 0.78 | 0.78 | 96 | 1016.8 |
| 20260831031418 | 71 | 309 | 0.0 | 0.0 | 0.12 | 0.78 | 0.78 | 96 | 1016.6 |
| 20260831031334 | 71 | 309 | 0.0 | 0.0 | 0.12 | 0.78 | 0.78 | 96 | 1016.6 |
| 20260831031259 | 71 | 309 | 0.0 | 0.0 | 0.13 | 0.78 | 0.78 | 96 | 1016.5 |
| 20260831031147 | 71 | 309 | 0.0 | 0.0 | 0.18 | 0.78 | 0.78 | 96 | 1016.5 |
| 20260831031142 | 71 | 309 | 0.0 | 0.0 | 0.14 | 0.78 | 0.78 | 96 | 1016.6 |
| 20260831031052 | 71 | 309 | 0.0 | 0.0 | 0.19 | 0.78 | 0.78 | 96 | 1016.7 |
| 20260831031022 | 71 | 309 | 0.0 | 0.0 | 0.23 | 0.78 | 0.78 | 96 | 1016.5 |
| 20260831030832 | 71 | 309 | 0.0 | 0.0 | 0.30 | 0.78 | 0.78 | 96 | 1016.4 |
| 20260831030731 | 71 | 309 | 0.0 | 0.0 | 0.32 | 0.78 | 0.78 | 96 | 1016.4 |
| 20260831030631 | 71 | 309 | 0.0 | 0.0 | 0.34 | 0.78 | 0.78 | 96 | 1016.4 |
| 20260831030529 | 71 | 309 | 0.0 | 0.0 | 0.37 | 0.78 | 0.78 | 96 | 1016.4 |
| 20260831030522 | 71 | 309 | 0.0 | 0.0 | 0.36 | 0.78 | 0.78 | 96 | 1016.6 |
| 20260831030417 | 71 | 309 | 0.0 | 0.0 | 0.39 | 0.78 | 0.78 | 96 | 1016.4 |
| 20260831030329 | 71 | 309 | 0.0 | 0.0 | 0.42 | 0.78 | 0.78 | 96 | 1016.5 |
| 20260831030229 | 71 | 309 | 0.0 | 0.0 | 0.44 | 0.78 | 0.78 | 96 | 1016.4 |
| 20260831030127 | 71 | 309 | 0.0 | 0.0 | 0.46 | 0.78 | 0.78 | 96 | 1016.4 |
| 20260831030026 | 71 | 309 | 0.0 | 0.0 | 0.48 | 0.78 | 0.78 | 96 | 1016.4 |
| 20260831030022 | 71 | 309 | 0.0 | 0.0 | 0.47 | 0.78 | 0.78 | 96 | 1016.6 |
| 20260831025915 | 71 | 309 | 0.0 | 0.0 | 0.50 | 0.78 | 0.78 | 96 | 1016.4 |
| 20260831025837 | 71 | 309 | 0.0 | 0.0 | 0.52 | 0.78 | 0.78 | 96 | 1016.4 |
| 20260831025831 | 71 | 309 | 0.0 | 0.0 | 0.50 | 0.78 | 0.78 | 96 | 1016.4 |
| 20260831025622 | 71 | 309 | 0.0 | 0.0 | 0.52 | 0.78 | 0.78 | 96 | 1016.4 |
| 20260831025523 | 71 | 309 | 0.0 | 0.0 | 0.52 | 0.78 | 0.78 | 95 | 1016.5 |
| 20260831025414 | 71 | 309 | 0.0 | 0.0 | 0.54 | 0.78 | 0.78 | 95 | 1016.3 |
| 20260831025335 | 71 | 309 | 0.0 | 0.0 | 0.57 | 0.78 | 0.78 | 95 | 1016.2 |
| 20260831025329 | 71 | 309 | 0.0 | 0.0 | 0.56 | 0.78 | 0.78 | 95 | 1016.2 |
| 20260831025120 | 71 | 309 | 0.0 | 0.0 | 0.57 | 0.78 | 0.78 | 95 | 1016.2 |
| 20260831025022 | 71 | 309 | 0.0 | 0.0 | 0.59 | 0.78 | 0.78 | 95 | 1016.5 |
| 20260831025019 | 71 | 309 | 0.0 | 0.0 | 0.59 | 0.78 | 0.78 | 95 | 1016.3 |
| 20260831024913 | 71 | 309 | 0.0 | 0.0 | 0.62 | 0.78 | 0.78 | 95 | 1016.3 |
| 20260831024818 | 71 | 309 | 0.0 | 0.0 | 0.63 | 0.78 | 0.78 | 95 | 1016.3 |
| 20260831024718 | 71 | 309 | 0.0 | 0.0 | 0.63 | 0.78 | 0.78 | 95 | 1016.3 |
| 20260831024631 | 71 | 309 | 0.0 | 1.0 | 0.64 | 0.78 | 0.78 | 95 | 1016.3 |
| 20260831024626 | 71 | 309 | 0.0 | 0.0 | 0.64 | 0.78 | 0.78 | 95 | 1016.2 |
| 20260831024523 | 72 | 309 | 0.0 | 1.0 | 0.64 | 0.78 | 0.78 | 95 | 1016.6 |
| 20260831024418 | 71 | 309 | 0.0 | 1.0 | 0.64 | 0.78 | 0.78 | 96 | 1016.4 |
| 20260831024412 | 71 | 312 | 0.0 | 1.0 | 0.64 | 0.78 | 0.78 | 96 | 1016.4 |
| 20260831024316 | 71 | 312 | 0.0 | 1.0 | 0.64 | 0.78 | 0.78 | 96 | 1016.4 |
| 20260831024216 | 72 | 312 | 0.0 | 1.0 | 0.64 | 0.78 | 0.78 | 96 | 1016.4 |
| 20260831024115 | 71 | 312 | 0.0 | 1.0 | 0.64 | 0.78 | 0.78 | 96 | 1016.4 |
| 20260831024022 | 72 | 312 | 0.0 | 1.0 | 0.64 | 0.78 | 0.78 | 96 | 1016.7 |
| 20260831024015 | 72 | 312 | 0.0 | 1.0 | 0.64 | 0.78 | 0.78 | 96 | 1016.5 |
| 20260831023914 | 71 | 312 | 0.0 | 1.0 | 0.64 | 0.78 | 0.78 | 96 | 1016.5 |
| 20260831023814 | 72 | 312 | 0.0 | 1.0 | 0.65 | 0.78 | 0.78 | 96 | 1016.5 |
| 20260831023713 | 72 | 312 | 0.0 | 1.0 | 0.65 | 0.78 | 0.78 | 96 | 1016.5 |
| 20260831023612 | 72 | 312 | 0.0 | 1.0 | 0.65 | 0.78 | 0.78 | 96 | 1016.5 |
| 20260831023522 | 72 | 312 | 0.0 | 0.0 | 0.65 | 0.78 | 0.78 | 95 | 1016.7 |
| 20260831023511 | 72 | 312 | 0.0 | 0.0 | 0.65 | 0.78 | 0.78 | 95 | 1016.5 |
| 20260831023411 | 72 | 312 | 0.0 | 0.0 | 0.65 | 0.78 | 0.78 | 95 | 1016.5 |
| 20260831023310 | 72 | 312 | 0.0 | 0.0 | 0.65 | 0.78 | 0.78 | 95 | 1016.4 |
| 20260831023255 | 72 | 312 | 0.0 | 0.0 | 0.65 | 0.78 | 0.78 | 95 | 1016.5 |
| 20260831023211 | 72 | 312 | 0.0 | 0.0 | 0.65 | 0.78 | 0.78 | 95 | 1016.4 |
| 20260831023153 | 72 | 312 | 0.0 | 0.0 | 0.65 | 0.78 | 0.78 | 95 | 1016.5 |
| 20260831023147 | 72 | 312 | 0.0 | 0.0 | 0.65 | 0.78 | 0.78 | 95 | 1016.5 |
| 20260831023141 | 72 | 312 | 0.0 | 0.0 | 0.65 | 0.78 | 0.78 | 95 | 1016.5 |
| 20260831023132 | 72 | 311 | 0.0 | 0.0 | 0.65 | 0.78 | 0.78 | 95 | 1016.5 |
| 20260831023022 | 72 | 312 | 0.0 | 0.0 | 0.65 | 0.78 | 0.78 | 95 | 1016.7 |
| 20260831022753 | 72 | 311 | 0.0 | 0.0 | 0.65 | 0.78 | 0.78 | 95 | 1016.6 |
| 20260831022749 | 72 | 311 | 0.0 | 0.0 | 0.65 | 0.78 | 0.78 | 95 | 1016.6 |
| 20260831022743 | 72 | 311 | 0.0 | 0.0 | 0.65 | 0.78 | 0.78 | 95 | 1016.6 |
| 20260831022737 | 72 | 312 | 0.0 | 0.0 | 0.65 | 0.78 | 0.78 | 95 | 1016.5 |
| 20260831022524 | 72 | 311 | 0.0 | 0.0 | 0.65 | 0.78 | 0.78 | 95 | 1016.8 |
| 20260831022511 | 72 | 311 | 0.0 | 0.0 | 0.65 | 0.78 | 0.78 | 95 | 1016.6 |
| 20260831022306 | 72 | 311 | 0.0 | 0.0 | 0.65 | 0.78 | 0.78 | 95 | 1016.6 |
| 20260831022205 | 72 | 317 | 0.0 | 0.0 | 0.65 | 0.78 | 0.78 | 95 | 1016.5 |
| 20260831022105 | 72 | 70 | 0.0 | 0.0 | 0.64 | 0.77 | 0.78 | 95 | 1016.5 |
| 20260831022022 | 72 | 70 | 0.0 | 0.0 | 0.64 | 0.77 | 0.77 | 95 | 1016.6 |
| 20260831022016 | 72 | 70 | 0.0 | 0.0 | 0.64 | 0.77 | 0.77 | 95 | 1016.4 |
| 20260831022008 | 72 | 66 | 0.0 | 0.0 | 0.64 | 0.77 | 0.77 | 95 | 1016.4 |
| 20260831021803 | 72 | 132 | 0.0 | 0.0 | 0.62 | 0.75 | 0.77 | 95 | 1016.6 |
| 20260831021716 | 73 | 283 | 0.0 | 0.0 | 0.61 | 0.74 | 0.74 | 95 | 1016.8 |
| 20260831021711 | 72 | 153 | 0.0 | 0.0 | 0.62 | 0.75 | 0.76 | 95 | 1016.7 |
| 20260831021537 | 73 | 284 | 0.0 | 0.0 | 0.58 | 0.71 | 0.71 | 95 | 1017.2 |
| 20260831021501 | 73 | 284 | 0.0 | 0.0 | 0.57 | 0.70 | 0.71 | 95 | 1017.0 |
| 20260831021412 | 73 | 284 | 0.0 | 0.0 | 0.53 | 0.66 | 0.68 | 95 | 1017.0 |
| 20260831021401 | 73 | 284 | 0.0 | 0.0 | 0.53 | 0.66 | 0.67 | 95 | 1017.1 |
| 20260831021300 | 73 | 289 | 0.0 | 0.0 | 0.52 | 0.65 | 0.66 | 95 | 1017.1 |
| 20260831021200 | 73 | 289 | 0.0 | 0.0 | 0.51 | 0.64 | 0.64 | 95 | 1017.1 |
| 20260831021059 | 73 | 289 | 0.0 | 0.0 | 0.47 | 0.60 | 0.63 | 95 | 1017.0 |
| 20260831021022 | 73 | 288 | 0.0 | 0.0 | 0.46 | 0.59 | 0.59 | 95 | 1017.2 |
| 20260831021017 | 73 | 288 | 0.0 | 0.0 | 0.35 | 0.48 | 0.53 | 95 | 1017.1 |
| 20260831021011 | 73 | 288 | 0.0 | 0.0 | 0.42 | 0.55 | 0.59 | 95 | 1017.1 |
| 20260831021003 | 73 | 288 | 0.0 | 0.0 | 0.42 | 0.55 | 0.55 | 95 | 1017.1 |
| 20260831020757 | 73 | 194 | 0.0 | 0.0 | 0.35 | 0.48 | 0.48 | 96 | 1017.0 |
| 20260831020657 | 73 | 231 | 0.0 | 0.0 | 0.33 | 0.46 | 0.46 | 96 | 1016.9 |
| 20260831020556 | 73 | 231 | 0.0 | 0.0 | 0.31 | 0.44 | 0.45 | 96 | 1017.0 |
| 20260831020522 | 73 | 231 | 0.0 | 0.0 | 0.29 | 0.42 | 0.42 | 96 | 1017.1 |
| 20260831020455 | 73 | 231 | 0.0 | 0.0 | 0.28 | 0.41 | 0.42 | 96 | 1017.0 |
| 20260831020412 | 73 | 247 | 0.0 | 0.0 | 0.26 | 0.39 | 0.40 | 96 | 1017.0 |
| 20260831020356 | 73 | 247 | 0.0 | 0.0 | 0.26 | 0.39 | 0.39 | 96 | 1017.0 |
| 20260831020255 | 73 | 248 | 0.0 | 0.0 | 0.23 | 0.36 | 0.37 | 96 | 1017.0 |
| 20260831020154 | 73 | 248 | 0.0 | 0.0 | 0.21 | 0.34 | 0.35 | 96 | 1017.0 |
| 20260831020054 | 73 | 261 | 0.0 | 0.0 | 0.19 | 0.32 | 0.33 | 95 | 1016.9 |
| 20260831020023 | 73 | 258 | 0.0 | 0.0 | 0.18 | 0.31 | 0.31 | 95 | 1017.0 |
| 20260831015953 | 73 | 258 | 0.0 | 0.0 | 0.17 | 0.30 | 0.31 | 95 | 1016.9 |
| 20260831015912 | 73 | 258 | 0.0 | 0.0 | 0.15 | 0.28 | 0.29 | 95 | 1016.9 |
| 20260831015908 | 73 | 258 | 0.0 | 0.0 | 0.13 | 0.26 | 0.27 | 95 | 1016.8 |
| 20260831015901 | 73 | 258 | 0.0 | 0.0 | 0.15 | 0.28 | 0.29 | 95 | 1016.9 |
| 20260831015650 | 73 | 265 | 0.0 | 0.0 | 0.13 | 0.26 | 0.26 | 95 | 1016.8 |
| 20260831015552 | 73 | 265 | 0.0 | 0.0 | 0.12 | 0.25 | 0.26 | 95 | 1016.8 |
| 20260831015522 | 73 | 263 | 0.0 | 0.0 | 0.13 | 0.26 | 0.26 | 95 | 1016.8 |
| 20260831015452 | 73 | 263 | 0.0 | 0.0 | 0.12 | 0.25 | 0.25 | 95 | 1016.8 |
| 20260831015410 | 73 | 263 | 0.0 | 0.0 | 0.11 | 0.24 | 0.25 | 95 | 1016.8 |
| 20260831015406 | 73 | 241 | 0.0 | 0.0 | 0.09 | 0.22 | 0.23 | 95 | 1016.8 |
| 20260831015400 | 73 | 263 | 0.0 | 0.0 | 0.11 | 0.24 | 0.24 | 95 | 1016.8 |
| 20260831015151 | 73 | 241 | 0.0 | 0.0 | 0.08 | 0.21 | 0.21 | 95 | 1016.8 |
| 20260831015049 | 73 | 241 | 0.0 | 0.0 | 0.06 | 0.19 | 0.20 | 95 | 1016.8 |
| 20260831015022 | 73 | 241 | 0.0 | 0.0 | 0.06 | 0.19 | 0.19 | 96 | 1016.9 |
| 20260831014949 | 73 | 241 | 0.0 | 0.0 | 0.03 | 0.16 | 0.18 | 95 | 1016.9 |
| 20260831014908 | 73 | 240 | 0.0 | 0.0 | 0.03 | 0.16 | 0.17 | 95 | 1016.9 |
| 20260831014849 | 73 | 240 | 0.0 | 0.0 | 0.02 | 0.15 | 0.16 | 95 | 1016.9 |
| 20260831014748 | 73 | 240 | 0.0 | 0.0 | 0.02 | 0.15 | 0.15 | 95 | 1017.0 |
| 20260831014648 | 73 | 240 | 0.0 | 0.0 | 0.01 | 0.14 | 0.15 | 95 | 1016.9 |
| 20260831014548 | 73 | 240 | 0.0 | 0.0 | 0.01 | 0.14 | 0.14 | 95 | 1016.9 |
| 20260831014522 | 73 | 240 | 0.0 | 0.0 | 0.01 | 0.14 | 0.14 | 95 | 1016.8 |
| 20260831014447 | 73 | 240 | 0.0 | 0.0 | 0.01 | 0.14 | 0.14 | 95 | 1016.8 |
| 20260831014408 | 73 | 240 | 0.0 | 0.0 | 0.01 | 0.14 | 0.14 | 95 | 1016.8 |
| 20260831014347 | 73 | 240 | 0.0 | 0.0 | 0.01 | 0.14 | 0.14 | 95 | 1016.7 |
| 20260831014247 | 73 | 240 | 0.0 | 0.0 | 0.01 | 0.14 | 0.14 | 95 | 1016.7 |
| 20260831014146 | 73 | 240 | 0.0 | 0.0 | 0.01 | 0.14 | 0.14 | 95 | 1016.7 |
| 20260831014045 | 73 | 239 | 0.0 | 0.0 | 0.01 | 0.14 | 0.14 | 95 | 1016.6 |
| 20260831014023 | 73 | 239 | 0.0 | 0.0 | 0.01 | 0.14 | 0.14 | 95 | 1016.6 |
| 20260831013945 | 73 | 239 | 0.0 | 0.0 | 0.01 | 0.14 | 0.14 | 95 | 1016.6 |
| 20260831013908 | 73 | 239 | 0.0 | 0.0 | 0.01 | 0.14 | 0.14 | 95 | 1016.6 |
| 20260831013845 | 73 | 239 | 0.0 | 0.0 | 0.00 | 0.13 | 0.13 | 95 | 1016.6 |
| 20260831013745 | 73 | 239 | 0.0 | 0.0 | 0.00 | 0.13 | 0.13 | 95 | 1016.6 |
| 20260831013727 | 73 | 239 | 0.0 | 0.0 | 0.00 | 0.13 | 0.13 | 95 | 1016.4 |
| 20260831013720 | 73 | 239 | 0.0 | 0.0 | 0.00 | 0.13 | 0.13 | 95 | 1016.5 |
| 20260831013522 | 73 | 239 | 0.0 | 0.0 | 0.00 | 0.13 | 0.13 | 95 | 1016.4 |
| 20260831013448 | 73 | 239 | 0.0 | 0.0 | 0.00 | 0.13 | 0.13 | 95 | 1016.4 |
| 20260831013242 | 73 | 239 | 0.0 | 0.0 | 0.00 | 0.13 | 0.13 | 95 | 1016.5 |
| 20260831013142 | 73 | 239 | 0.0 | 0.0 | 0.00 | 0.13 | 0.13 | 95 | 1016.5 |
| 20260831013042 | 73 | 239 | 0.0 | 0.0 | 0.00 | 0.13 | 0.13 | 95 | 1016.5 |
| 20260831013022 | 73 | 239 | 0.0 | 0.0 | 0.00 | 0.13 | 0.13 | 95 | 1016.5 |
| 20260831012942 | 73 | 239 | 0.0 | 0.0 | 0.00 | 0.13 | 0.13 | 95 | 1016.5 |
| 20260831012908 | 73 | 239 | 0.0 | 0.0 | 0.00 | 0.13 | 0.13 | 95 | 1016.5 |
| 20260831012841 | 73 | 239 | 0.0 | 0.0 | 0.00 | 0.13 | 0.13 | 95 | 1016.4 |
| 20260831012741 | 73 | 239 | 0.0 | 0.0 | 0.00 | 0.13 | 0.13 | 95 | 1016.4 |
| 20260831012640 | 73 | 239 | 0.0 | 0.0 | 0.00 | 0.13 | 0.13 | 95 | 1016.4 |
| 20260831012553 | 73 | 239 | 0.0 | 0.0 | 0.00 | 0.13 | 0.13 | 95 | 1016.5 |
| 20260831012549 | 73 | 239 | 0.0 | 0.0 | 0.00 | 0.13 | 0.13 | 95 | 1016.4 |
| 20260831012522 | 73 | 239 | 0.0 | 0.0 | 0.00 | 0.13 | 0.13 | 95 | 1016.5 |
| 20260831012406 | 73 | 239 | 0.0 | 0.0 | 0.00 | 0.13 | 0.13 | 95 | 1016.5 |
| 20260831012339 | 73 | 239 | 0.0 | 0.0 | 0.00 | 0.13 | 0.13 | 95 | 1016.5 |
| 20260831012239 | 73 | 239 | 0.0 | 0.0 | 0.00 | 0.13 | 0.13 | 95 | 1016.5 |
| 20260831012138 | 73 | 239 | 0.0 | 0.0 | 0.00 | 0.13 | 0.13 | 95 | 1016.5 |
| 20260831012037 | 73 | 239 | 0.0 | 0.0 | 0.00 | 0.13 | 0.13 | 95 | 1016.5 |
| 20260831012022 | 73 | 239 | 0.0 | 0.0 | 0.00 | 0.13 | 0.13 | 95 | 1016.4 |
| 20260831011937 | 73 | 239 | 0.0 | 0.0 | 0.00 | 0.13 | 0.13 | 95 | 1016.4 |
| 20260831011906 | 73 | 239 | 0.0 | 0.0 | 0.00 | 0.13 | 0.13 | 95 | 1016.4 |
| 20260831011850 | 73 | 239 | 0.0 | 0.0 | 0.00 | 0.13 | 0.13 | 95 | 1016.4 |
| 20260831011845 | 73 | 239 | 0.0 | 0.0 | 0.00 | 0.13 | 0.13 | 95 | 1016.4 |
| 20260831011635 | 73 | 239 | 0.0 | 0.0 | 0.00 | 0.13 | 0.13 | 95 | 1016.4 |
| 20260831011535 | 73 | 239 | 0.0 | 0.0 | 0.00 | 0.13 | 0.13 | 95 | 1016.4 |
| 20260831011523 | 73 | 239 | 0.0 | 0.0 | 0.00 | 0.13 | 0.13 | 95 | 1016.4 |
| 20260831011435 | 73 | 239 | 0.0 | 0.0 | 0.00 | 0.13 | 0.13 | 95 | 1016.4 |
| 20260831011403 | 73 | 239 | 0.0 | 0.0 | 0.00 | 0.13 | 0.13 | 95 | 1016.3 |
| 20260831011334 | 73 | 239 | 0.0 | 0.0 | 0.00 | 0.13 | 0.13 | 95 | 1016.3 |
| 20260831011234 | 73 | 239 | 0.0 | 0.0 | 0.00 | 0.13 | 0.13 | 95 | 1016.4 |
| 20260831011200 | 73 | 239 | 0.0 | 0.0 | 0.00 | 0.13 | 0.13 | 95 | 1016.4 |
| 20260831011155 | 73 | 239 | 0.0 | 0.0 | 0.00 | 0.13 | 0.13 | 95 | 1016.4 |
| 20260831011151 | 73 | 239 | 0.0 | 0.0 | 0.00 | 0.13 | 0.13 | 95 | 1016.3 |
| 20260831011022 | 73 | 239 | 0.0 | 0.0 | 0.00 | 0.13 | 0.13 | 95 | 1016.4 |
| 20260831010904 | 73 | 239 | 0.0 | 0.0 | 0.00 | 0.13 | 0.13 | 95 | 1016.4 |
| 20260831010831 | 73 | 239 | 0.0 | 0.0 | 0.00 | 0.13 | 0.13 | 95 | 1016.4 |
| 20260831010731 | 73 | 239 | 0.0 | 0.0 | 0.00 | 0.13 | 0.13 | 95 | 1016.3 |
| 20260831010631 | 73 | 239 | 0.0 | 0.0 | 0.00 | 0.13 | 0.13 | 95 | 1016.3 |
| 20260831010530 | 73 | 239 | 0.0 | 0.0 | 0.00 | 0.13 | 0.13 | 95 | 1016.3 |
| 20260831010522 | 73 | 239 | 0.0 | 0.0 | 0.00 | 0.13 | 0.13 | 95 | 1016.4 |
| 20260831010403 | 73 | 239 | 0.0 | 0.0 | 0.00 | 0.13 | 0.13 | 95 | 1016.4 |
| 20260831010331 | 73 | 239 | 0.0 | 0.0 | 0.00 | 0.13 | 0.13 | 95 | 1016.4 |
| 20260831010230 | 73 | 239 | 0.0 | 0.0 | 0.00 | 0.13 | 0.13 | 95 | 1016.4 |
| 20260831010130 | 73 | 239 | 0.0 | 0.0 | 0.00 | 0.13 | 0.13 | 95 | 1016.4 |
| 20260831010029 | 73 | 239 | 0.0 | 0.0 | 0.00 | 0.13 | 0.13 | 95 | 1016.4 |
| 20260831010023 | 73 | 239 | 0.0 | 0.0 | 0.00 | 0.13 | 0.13 | 95 | 1016.4 |
| 20260831005903 | 73 | 239 | 0.0 | 0.0 | 0.00 | 0.13 | 0.13 | 95 | 1016.4 |
| 20260831005828 | 73 | 239 | 0.0 | 0.0 | 0.00 | 0.13 | 0.13 | 95 | 1016.4 |
| 20260831005726 | 73 | 239 | 0.0 | 0.0 | 0.00 | 0.13 | 0.13 | 95 | 1016.3 |
| 20260831005626 | 73 | 239 | 0.0 | 0.0 | 0.00 | 0.13 | 0.13 | 95 | 1016.3 |
| 20260831005525 | 73 | 239 | 0.0 | 0.0 | 0.00 | 0.13 | 0.13 | 95 | 1016.3 |
| 20260831005523 | 73 | 239 | 0.0 | 0.0 | 0.00 | 0.13 | 0.13 | 95 | 1016.2 |
| 20260831005424 | 73 | 239 | 0.0 | 0.0 | 0.00 | 0.13 | 0.13 | 95 | 1016.3 |
| 20260831005403 | 73 | 239 | 0.0 | 0.0 | 0.00 | 0.13 | 0.13 | 95 | 1016.4 |
| 20260831005324 | 73 | 239 | 0.0 | 0.0 | 0.00 | 0.13 | 0.13 | 95 | 1016.4 |
| 20260831005224 | 73 | 239 | 0.0 | 0.0 | 0.00 | 0.13 | 0.13 | 95 | 1016.3 |
| 20260831005123 | 73 | 239 | 0.0 | 0.0 | 0.00 | 0.13 | 0.13 | 95 | 1016.3 |
| 20260831005022 | 73 | 239 | 0.0 | 0.0 | 0.00 | 0.13 | 0.13 | 95 | 1016.1 |
| 20260831004922 | 73 | 239 | 0.0 | 0.0 | 0.00 | 0.13 | 0.13 | 95 | 1016.2 |
| 20260831004901 | 73 | 239 | 0.0 | 0.0 | 0.00 | 0.13 | 0.13 | 95 | 1016.3 |
| 20260831004823 | 73 | 239 | 0.0 | 0.0 | 0.00 | 0.13 | 0.13 | 95 | 1016.3 |
| 20260831004721 | 73 | 239 | 0.0 | 0.0 | 0.00 | 0.13 | 0.13 | 95 | 1016.3 |
| 20260831004642 | 73 | 239 | 0.0 | 0.0 | 0.00 | 0.13 | 0.13 | 95 | 1016.2 |
| 20260831004529 | 73 | 239 | 0.0 | 0.0 | 0.00 | 0.13 | 0.13 | 95 | 1016.3 |
| 20260831004524 | 73 | 239 | 0.0 | 0.0 | 0.00 | 0.13 | 0.13 | 95 | 1016.1 |
| 20260831004334 | 73 | 239 | 0.0 | 0.0 | 0.00 | 0.13 | 0.13 | 95 | 1016.2 |
| 20260831004328 | 73 | 239 | 0.0 | 0.0 | 0.00 | 0.13 | 0.13 | 95 | 1016.2 |
| 20260831004118 | 73 | 239 | 0.0 | 0.0 | 0.00 | 0.13 | 0.13 | 95 | 1016.1 |
| 20260831004031 | 73 | 239 | 0.0 | 0.0 | 0.00 | 0.13 | 0.13 | 95 | 1016.1 |
| 20260831004027 | 73 | 239 | 0.0 | 0.0 | 0.00 | 0.13 | 0.13 | 95 | 1016.2 |
| 20260831004023 | 73 | 239 | 0.0 | 0.0 | 0.00 | 0.13 | 0.13 | 95 | 1016.0 |
| 20260831003903 | 73 | 239 | 0.0 | 0.0 | 0.00 | 0.13 | 0.13 | 95 | 1016.1 |
| 20260831003851 | 73 | 239 | 0.0 | 0.0 | 0.00 | 0.13 | 0.13 | 95 | 1016.1 |
| 20260831003629 | 73 | 239 | 0.0 | 0.0 | 0.00 | 0.13 | 0.13 | 95 | 1016.2 |
| 20260831003625 | 73 | 239 | 0.0 | 0.0 | 0.00 | 0.13 | 0.13 | 95 | 1016.1 |
| 20260831003522 | 73 | 239 | 0.0 | 0.0 | 0.00 | 0.13 | 0.13 | 95 | 1016.1 |
| 20260831003502 | 73 | 239 | 0.0 | 0.0 | 0.00 | 0.13 | 0.13 | 95 | 1016.2 |
| 20260831003316 | 73 | 239 | 0.0 | 0.0 | 0.00 | 0.13 | 0.13 | 95 | 1016.2 |
| 20260831003214 | 73 | 239 | 0.0 | 0.0 | 0.00 | 0.13 | 0.13 | 95 | 1016.2 |
| 20260831003114 | 73 | 239 | 0.0 | 0.0 | 0.00 | 0.13 | 0.13 | 95 | 1016.1 |
| 20260831003022 | 73 | 239 | 0.0 | 0.0 | 0.00 | 0.13 | 0.13 | 95 | 1016.1 |
| 20260831003015 | 73 | 239 | 0.0 | 0.0 | 0.00 | 0.13 | 0.13 | 95 | 1016.1 |
| 20260831002925 | 73 | 239 | 0.0 | 0.0 | 0.00 | 0.13 | 0.13 | 95 | 1016.2 |
| 20260831002919 | 73 | 239 | 0.0 | 0.0 | 0.00 | 0.13 | 0.13 | 95 | 1016.1 |
| 20260831002723 | 73 | 239 | 0.0 | 0.0 | 0.00 | 0.13 | 0.13 | 95 | 1016.1 |
| 20260831002719 | 73 | 239 | 0.0 | 0.0 | 0.00 | 0.13 | 0.13 | 95 | 1016.1 |
| 20260831002523 | 73 | 239 | 0.0 | 0.0 | 0.00 | 0.13 | 0.13 | 95 | 1016.0 |
| 20260831002509 | 73 | 239 | 0.0 | 0.0 | 0.00 | 0.13 | 0.13 | 95 | 1016.1 |
| 20260831002409 | 73 | 239 | 0.0 | 0.0 | 0.00 | 0.13 | 0.13 | 95 | 1016.1 |
| 20260831002353 | 73 | 239 | 0.0 | 0.0 | 0.00 | 0.13 | 0.13 | 95 | 1016.1 |
| 20260831002308 | 73 | 239 | 0.0 | 0.0 | 0.00 | 0.13 | 0.13 | 95 | 1016.1 |
| 20260831002208 | 73 | 239 | 0.0 | 0.0 | 0.00 | 0.13 | 0.13 | 95 | 1016.0 |
| 20260831002114 | 73 | 239 | 0.0 | 0.0 | 0.00 | 0.13 | 0.13 | 95 | 1016.0 |
| 20260831002108 | 73 | 239 | 0.0 | 0.0 | 0.00 | 0.13 | 0.13 | 95 | 1016.1 |
| 20260831002037 | 73 | 239 | 0.0 | 0.0 | 0.00 | 0.13 | 0.13 | 95 | 1016.0 |
| 20260831002007 | 73 | 239 | 0.0 | 0.0 | 0.00 | 0.13 | 0.13 | 95 | 1016.0 |
| 20260831001957 | 73 | 239 | 0.0 | 0.0 | 0.00 | 0.13 | 0.13 | 95 | 1016.1 |
| 20260831001807 | 73 | 239 | 0.0 | 0.0 | 0.00 | 0.13 | 0.13 | 95 | 1016.0 |
| 20260831001734 | 73 | 239 | 0.0 | 0.0 | 0.00 | 0.13 | 0.13 | 95 | 1016.0 |
| 20260831001729 | 73 | 239 | 0.0 | 0.0 | 0.00 | 0.13 | 0.13 | 95 | 1016.0 |
| 20260831001724 | 73 | 239 | 0.0 | 0.0 | 0.00 | 0.13 | 0.13 | 95 | 1016.1 |
| 20260831001522 | 73 | 239 | 0.0 | 0.0 | 0.00 | 0.13 | 0.13 | 95 | 1015.9 |
| 20260831001405 | 73 | 239 | 0.0 | 0.0 | 0.00 | 0.13 | 0.13 | 95 | 1016.0 |
| 20260831001349 | 73 | 239 | 0.0 | 0.0 | 0.00 | 0.13 | 0.13 | 95 | 1016.0 |
| 20260831001305 | 73 | 239 | 0.0 | 0.0 | 0.00 | 0.13 | 0.13 | 94 | 1016.0 |
| 20260831001204 | 73 | 239 | 0.0 | 0.0 | 0.00 | 0.13 | 0.13 | 94 | 1015.9 |
| 20260831001103 | 73 | 239 | 0.0 | 0.0 | 0.00 | 0.13 | 0.13 | 94 | 1015.9 |
| 20260831001022 | 73 | 239 | 0.0 | 0.0 | 0.00 | 0.13 | 0.13 | 94 | 1015.8 |
| 20260831001003 | 73 | 239 | 0.0 | 0.0 | 0.00 | 0.13 | 0.13 | 94 | 1015.9 |
| 20260831000902 | 73 | 239 | 0.0 | 0.0 | 0.00 | 0.13 | 0.13 | 94 | 1015.8 |
| 20260831000849 | 73 | 239 | 0.0 | 0.0 | 0.00 | 0.13 | 0.13 | 94 | 1015.8 |
| 20260831000802 | 73 | 239 | 0.0 | 0.0 | 0.00 | 0.13 | 0.13 | 94 | 1015.9 |
| 20260831000702 | 73 | 239 | 0.0 | 0.0 | 0.00 | 0.13 | 0.13 | 94 | 1015.8 |
| 20260831000600 | 73 | 239 | 0.0 | 0.0 | 0.00 | 0.13 | 0.13 | 94 | 1015.8 |
| 20260831000523 | 73 | 239 | 0.0 | 0.0 | 0.00 | 0.13 | 0.13 | 94 | 1015.7 |
| 20260831000500 | 73 | 239 | 0.0 | 0.0 | 0.00 | 0.13 | 0.13 | 94 | 1015.8 |
| 20260831000349 | 73 | 239 | 0.0 | 0.0 | 0.00 | 0.13 | 0.13 | 94 | 1015.8 |
| 20260831000259 | 73 | 239 | 0.0 | 0.0 | 0.00 | 0.13 | 0.13 | 94 | 1015.8 |
| 20260831000211 | 73 | 239 | 0.0 | 0.0 | 0.00 | 0.13 | 0.13 | 94 | 1015.8 |
| 20260831000207 | 73 | 239 | 0.0 | 0.0 | 0.00 | 0.13 | 0.13 | 94 | 1015.8 |
| 20260831000052 | 73 | 239 | 0.0 | 0.0 | 0.00 | 0.13 | 0.13 | 94 | 1015.7 |
| 20260830235957 | 73 | 239 | 0.0 | 0.0 | 0.00 | 0.13 | 0.13 | 94 | 1015.8 |
| 20260830235848 | 73 | 239 | 0.0 | 0.0 | 0.00 | 0.13 | 0.13 | 94 | 1015.8 |
| 20260830235755 | 73 | 239 | 0.0 | 0.0 | 0.00 | 0.13 | 0.13 | 94 | 1015.8 |
| 20260830235654 | 73 | 239 | 0.0 | 0.0 | 0.00 | 0.13 | 0.13 | 94 | 1015.8 |
| 20260830235553 | 73 | 239 | 0.0 | 0.0 | 0.00 | 0.13 | 0.13 | 94 | 1015.8 |
| 20260830235523 | 73 | 239 | 0.0 | 0.0 | 0.00 | 0.13 | 0.13 | 94 | 1015.7 |
| 20260830235453 | 73 | 239 | 0.0 | 0.0 | 0.00 | 0.13 | 0.13 | 94 | 1015.8 |
| 20260830235350 | 73 | 239 | 0.0 | 0.0 | 0.00 | 0.13 | 0.13 | 94 | 1015.9 |
| 20260830235252 | 73 | 239 | 0.0 | 0.0 | 0.00 | 0.13 | 0.13 | 94 | 1015.8 |
| 20260830235152 | 73 | 239 | 0.0 | 0.0 | 0.00 | 0.13 | 0.13 | 94 | 1015.8 |
| 20260830235052 | 73 | 239 | 0.0 | 0.0 | 0.00 | 0.13 | 0.13 | 94 | 1015.8 |
| 20260830235022 | 73 | 239 | 0.0 | 0.0 | 0.00 | 0.13 | 0.13 | 94 | 1015.7 |
| 20260830234951 | 73 | 239 | 0.0 | 0.0 | 0.00 | 0.13 | 0.13 | 94 | 1015.8 |
| 20260830234847 | 73 | 239 | 0.0 | 0.0 | 0.00 | 0.13 | 0.13 | 94 | 1015.8 |
| 20260830234750 | 73 | 239 | 0.0 | 0.0 | 0.00 | 0.13 | 0.13 | 94 | 1015.8 |
| 20260830234650 | 73 | 239 | 0.0 | 0.0 | 0.00 | 0.13 | 0.13 | 94 | 1015.8 |
| 20260830234550 | 73 | 239 | 0.0 | 0.0 | 0.00 | 0.13 | 0.13 | 94 | 1015.8 |
| 20260830234523 | 74 | 239 | 0.0 | 0.0 | 0.00 | 0.13 | 0.13 | 94 | 1015.7 |
| 20260830234450 | 74 | 239 | 0.0 | 0.0 | 0.00 | 0.13 | 0.13 | 94 | 1015.8 |
| 20260830234345 | 74 | 239 | 0.0 | 0.0 | 0.00 | 0.13 | 0.13 | 94 | 1015.8 |
| 20260830234249 | 74 | 239 | 0.0 | 0.0 | 0.00 | 0.13 | 0.13 | 94 | 1015.8 |
| 20260830234148 | 74 | 239 | 0.0 | 0.0 | 0.00 | 0.13 | 0.13 | 94 | 1015.8 |
| 20260830234047 | 74 | 239 | 0.0 | 0.0 | 0.00 | 0.13 | 0.13 | 94 | 1015.8 |
| 20260830234022 | 74 | 239 | 0.0 | 0.0 | 0.00 | 0.13 | 0.13 | 94 | 1015.7 |
| 20260830233947 | 74 | 239 | 0.0 | 0.0 | 0.00 | 0.13 | 0.13 | 94 | 1015.8 |
| 20260830233843 | 74 | 239 | 0.0 | 0.0 | 0.00 | 0.13 | 0.13 | 94 | 1015.9 |
| 20260830233812 | 74 | 239 | 0.0 | 0.0 | 0.00 | 0.13 | 0.13 | 94 | 1015.9 |
| 20260830233658 | 74 | 239 | 0.0 | 0.0 | 0.00 | 0.13 | 0.13 | 94 | 1016.0 |
| 20260830233654 | 74 | 239 | 0.0 | 0.0 | 0.00 | 0.13 | 0.13 | 94 | 1015.9 |
| 20260830233523 | 74 | 239 | 0.0 | 0.0 | 0.00 | 0.13 | 0.13 | 94 | 1015.8 |
| 20260830233457 | 74 | 239 | 0.0 | 0.0 | 0.00 | 0.13 | 0.13 | 94 | 1015.9 |
| 20260830233448 | 74 | 239 | 0.0 | 0.0 | 0.00 | 0.13 | 0.13 | 94 | 1016.0 |
| 20260830233243 | 74 | 239 | 0.0 | 0.0 | 0.00 | 0.13 | 0.13 | 94 | 1016.0 |
| 20260830233143 | 74 | 239 | 0.0 | 0.0 | 0.00 | 0.13 | 0.13 | 94 | 1016.0 |
| 20260830233111 | 74 | 239 | 0.0 | 0.0 | 0.00 | 0.13 | 0.13 | 94 | 1015.9 |
| 20260830233105 | 74 | 239 | 0.0 | 0.0 | 0.00 | 0.13 | 0.13 | 94 | 1015.9 |
| 20260830233056 | 74 | 239 | 0.0 | 0.0 | 0.00 | 0.13 | 0.13 | 94 | 1015.9 |
| 20260830233023 | 74 | 239 | 0.0 | 0.0 | 0.00 | 0.13 | 0.13 | 94 | 1015.8 |
| 20260830232742 | 74 | 239 | 0.0 | 0.0 | 0.00 | 0.13 | 0.13 | 94 | 1015.9 |
| 20260830232641 | 74 | 239 | 0.0 | 0.0 | 0.00 | 0.13 | 0.13 | 94 | 1016.0 |
| 20260830232614 | 74 | 239 | 0.0 | 0.0 | 0.00 | 0.13 | 0.13 | 93 | 1016.0 |
| 20260830232541 | 74 | 239 | 0.0 | 0.0 | 0.00 | 0.13 | 0.13 | 94 | 1016.0 |
| 20260830232523 | 74 | 239 | 0.0 | 0.0 | 0.00 | 0.13 | 0.13 | 94 | 1015.9 |
| 20260830232505 | 74 | 239 | 0.0 | 0.0 | 0.00 | 0.13 | 0.13 | 94 | 1016.0 |
| 20260830232456 | 74 | 239 | 0.0 | 0.0 | 0.00 | 0.13 | 0.13 | 93 | 1016.0 |
| 20260830232341 | 74 | 239 | 0.0 | 0.0 | 0.00 | 0.13 | 0.13 | 93 | 1016.0 |
| 20260830232228 | 74 | 239 | 0.0 | 0.0 | 0.00 | 0.13 | 0.13 | 93 | 1016.0 |
| 20260830232117 | 74 | 239 | 0.0 | 0.0 | 0.00 | 0.13 | 0.13 | 94 | 1016.0 |
| 20260830232110 | 74 | 239 | 0.0 | 0.0 | 0.00 | 0.13 | 0.13 | 94 | 1016.0 |
| 20260830232023 | 74 | 239 | 0.0 | 0.0 | 0.00 | 0.13 | 0.13 | 93 | 1015.9 |
| 20260830231847 | 74 | 239 | 0.0 | 0.0 | 0.00 | 0.13 | 0.13 | 94 | 1016.0 |
| 20260830231636 | 74 | 239 | 0.0 | 0.0 | 0.00 | 0.13 | 0.13 | 93 | 1016.0 |
| 20260830231536 | 74 | 239 | 0.0 | 0.0 | 0.00 | 0.13 | 0.13 | 93 | 1016.0 |
| 20260830231523 | 74 | 239 | 0.0 | 0.0 | 0.00 | 0.13 | 0.13 | 93 | 1015.9 |
| 20260830231435 | 74 | 239 | 0.0 | 0.0 | 0.00 | 0.13 | 0.13 | 93 | 1016.0 |
| 20260830231335 | 74 | 239 | 0.0 | 0.0 | 0.00 | 0.13 | 0.13 | 93 | 1016.0 |
| 20260830231234 | 74 | 239 | 0.0 | 0.0 | 0.00 | 0.13 | 0.13 | 94 | 1016.0 |
| 20260830231134 | 74 | 239 | 0.0 | 0.0 | 0.00 | 0.13 | 0.13 | 94 | 1016.0 |
| 20260830231032 | 74 | 239 | 0.0 | 0.0 | 0.00 | 0.13 | 0.13 | 93 | 1016.0 |
| 20260830231023 | 74 | 239 | 0.0 | 0.0 | 0.00 | 0.13 | 0.13 | 93 | 1015.9 |
| 20260830230945 | 74 | 239 | 0.0 | 0.0 | 0.00 | 0.13 | 0.13 | 93 | 1016.0 |
| 20260830230936 | 74 | 239 | 0.0 | 0.0 | 0.00 | 0.13 | 0.13 | 93 | 1016.0 |
| 20260830230731 | 74 | 239 | 0.0 | 0.0 | 0.00 | 0.13 | 0.13 | 93 | 1016.0 |
| 20260830230631 | 74 | 239 | 0.0 | 0.0 | 0.00 | 0.13 | 0.13 | 93 | 1016.0 |
| 20260830230530 | 74 | 239 | 0.0 | 0.0 | 0.00 | 0.13 | 0.13 | 93 | 1016.0 |
| 20260830230522 | 74 | 239 | 0.0 | 0.0 | 0.00 | 0.13 | 0.13 | 93 | 1015.9 |
| 20260830230430 | 74 | 239 | 0.0 | 0.0 | 0.00 | 0.13 | 0.13 | 93 | 1016.0 |
| 20260830230404 | 74 | 239 | 0.0 | 0.0 | 0.00 | 0.13 | 0.13 | 93 | 1015.9 |
| 20260830230400 | 74 | 239 | 0.0 | 0.0 | 0.00 | 0.13 | 0.13 | 93 | 1015.9 |
| 20260830230356 | 74 | 239 | 0.0 | 0.0 | 0.00 | 0.13 | 0.13 | 93 | 1015.9 |
| 20260830230346 | 74 | 239 | 0.0 | 0.0 | 0.00 | 0.13 | 0.13 | 93 | 1015.9 |
| 20260830230232 | 74 | 239 | 0.0 | 0.0 | 0.00 | 0.13 | 0.13 | 93 | 1015.9 |
| 20260830230226 | 74 | 239 | 0.0 | 0.0 | 0.00 | 0.13 | 0.13 | 93 | 1015.8 |
| 20260830230218 | 74 | 239 | 0.0 | 0.0 | 0.00 | 0.13 | 0.13 | 93 | 1015.9 |
| 20260830230023 | 74 | 239 | 0.0 | 0.0 | 0.00 | 0.13 | 0.13 | 93 | 1015.8 |
| 20260830225847 | 74 | 239 | 0.0 | 0.0 | 0.00 | 0.13 | 0.13 | 93 | 1015.9 |
| 20260830225527 | 74 | 239 | 0.0 | 0.0 | 0.00 | 0.13 | 0.13 | 93 | 1015.8 |
| 20260830225522 | 74 | 239 | 0.0 | 0.0 | 0.00 | 0.13 | 0.13 | 93 | 1015.7 |
| 20260830225426 | 74 | 239 | 0.0 | 0.0 | 0.00 | 0.13 | 0.13 | 93 | 1015.8 |
| 20260830225325 | 74 | 239 | 0.0 | 0.0 | 0.00 | 0.13 | 0.13 | 93 | 1015.8 |
| 20260830225226 | 74 | 239 | 0.0 | 0.0 | 0.00 | 0.13 | 0.13 | 93 | 1015.8 |
| 20260830225138 | 74 | 239 | 0.0 | 0.0 | 0.00 | 0.13 | 0.13 | 93 | 1015.8 |
| 20260830225134 | 74 | 239 | 0.0 | 0.0 | 0.00 | 0.13 | 0.13 | 93 | 1015.8 |
| 20260830225038 | 74 | 239 | 0.0 | 0.0 | 0.00 | 0.13 | 0.13 | 93 | 1015.7 |
| 20260830224937 | 74 | 239 | 0.0 | 0.0 | 0.00 | 0.13 | 0.13 | 93 | 1015.8 |
| 20260830224928 | 74 | 239 | 0.0 | 0.0 | 0.00 | 0.13 | 0.13 | 93 | 1015.9 |
| 20260830224737 | 74 | 239 | 0.0 | 0.0 | 0.00 | 0.13 | 0.13 | 93 | 1015.9 |
| 20260830224733 | 74 | 239 | 0.0 | 0.0 | 0.00 | 0.13 | 0.13 | 93 | 1015.9 |
| 20260830224619 | 74 | 239 | 0.0 | 0.0 | 0.00 | 0.13 | 0.13 | 93 | 1015.9 |
| 20260830224613 | 74 | 239 | 0.0 | 0.0 | 0.00 | 0.13 | 0.13 | 93 | 1015.9 |
| 20260830224607 | 74 | 239 | 0.0 | 0.0 | 0.00 | 0.13 | 0.13 | 93 | 1015.8 |
| 20260830224522 | 74 | 239 | 0.0 | 0.0 | 0.00 | 0.13 | 0.13 | 93 | 1015.8 |
| 20260830224453 | 74 | 239 | 0.0 | 0.0 | 0.00 | 0.13 | 0.13 | 93 | 1015.9 |
| 20260830224340 | 74 | 239 | 0.0 | 0.0 | 0.00 | 0.13 | 0.13 | 93 | 1015.9 |
| 20260830224023 | 74 | 239 | 0.0 | 0.0 | 0.00 | 0.13 | 0.13 | 93 | 1015.8 |
| 20260830224020 | 74 | 239 | 0.0 | 0.0 | 0.00 | 0.13 | 0.13 | 93 | 1015.9 |
| 20260830223918 | 74 | 239 | 0.0 | 0.0 | 0.00 | 0.13 | 0.13 | 93 | 1015.9 |
| 20260830223818 | 74 | 239 | 0.0 | 0.0 | 0.00 | 0.13 | 0.13 | 93 | 1015.9 |
| 20260830223718 | 74 | 239 | 0.0 | 0.0 | 0.00 | 0.13 | 0.13 | 93 | 1015.9 |
| 20260830223616 | 74 | 239 | 0.0 | 0.0 | 0.00 | 0.13 | 0.13 | 93 | 1015.8 |
| 20260830223522 | 74 | 239 | 0.0 | 0.0 | 0.00 | 0.13 | 0.13 | 93 | 1015.7 |
| 20260830223516 | 74 | 239 | 0.0 | 0.0 | 0.00 | 0.13 | 0.13 | 93 | 1015.9 |
| 20260830223429 | 74 | 239 | 0.0 | 0.0 | 0.00 | 0.13 | 0.13 | 93 | 1015.8 |
| 20260830223420 | 74 | 239 | 0.0 | 0.0 | 0.01 | 0.13 | 0.13 | 93 | 1015.8 |
| 20260830223216 | 74 | 239 | 0.0 | 0.0 | 0.01 | 0.13 | 0.13 | 93 | 1015.8 |
| 20260830223114 | 74 | 239 | 0.0 | 0.0 | 0.01 | 0.13 | 0.13 | 93 | 1015.8 |
| 20260830223023 | 74 | 239 | 0.0 | 0.0 | 0.03 | 0.13 | 0.13 | 93 | 1015.6 |
| 20260830223014 | 74 | 239 | 0.0 | 0.0 | 0.03 | 0.13 | 0.13 | 93 | 1015.7 |
| 20260830222914 | 74 | 239 | 0.0 | 0.0 | 0.06 | 0.13 | 0.13 | 93 | 1015.7 |
| 20260830222814 | 74 | 239 | 0.0 | 0.0 | 0.11 | 0.13 | 0.13 | 93 | 1015.7 |
| 20260830222713 | 74 | 239 | 0.0 | 0.0 | 0.13 | 0.13 | 0.13 | 93 | 1015.7 |
| 20260830222613 | 74 | 239 | 0.0 | 0.0 | 0.13 | 0.13 | 0.13 | 93 | 1015.7 |
| 20260830222552 | 74 | 239 | 0.0 | 0.0 | 0.13 | 0.13 | 0.13 | 93 | 1015.7 |
| 20260830222522 | 74 | 239 | 0.0 | 0.0 | 0.13 | 0.13 | 0.13 | 93 | 1015.6 |
| 20260830222512 | 74 | 239 | 0.0 | 0.0 | 0.13 | 0.13 | 0.13 | 93 | 1015.7 |
| 20260830222435 | 74 | 239 | 0.0 | 0.0 | 0.13 | 0.13 | 0.13 | 93 | 1015.7 |
| 20260830222311 | 74 | 239 | 0.0 | 0.0 | 0.13 | 0.13 | 0.13 | 93 | 1015.7 |
| 20260830222210 | 74 | 239 | 0.0 | 0.0 | 0.13 | 0.13 | 0.13 | 92 | 1015.7 |
| 20260830222152 | 74 | 239 | 0.0 | 0.0 | 0.13 | 0.13 | 0.13 | 92 | 1015.7 |
| 20260830222023 | 74 | 239 | 0.0 | 0.0 | 0.13 | 0.13 | 0.13 | 92 | 1015.6 |
| 20260830222010 | 74 | 239 | 0.0 | 0.0 | 0.13 | 0.13 | 0.13 | 92 | 1015.7 |
| 20260830221935 | 74 | 239 | 0.0 | 0.0 | 0.13 | 0.13 | 0.13 | 92 | 1015.7 |
| 20260830221809 | 74 | 239 | 0.0 | 0.0 | 0.13 | 0.13 | 0.13 | 92 | 1015.7 |
| 20260830221740 | 74 | 239 | 0.0 | 0.0 | 0.13 | 0.13 | 0.13 | 92 | 1015.7 |
| 20260830221736 | 74 | 239 | 0.0 | 0.0 | 0.13 | 0.13 | 0.13 | 92 | 1015.6 |
| 20260830221732 | 74 | 239 | 0.0 | 0.0 | 0.13 | 0.13 | 0.13 | 92 | 1015.6 |
| 20260830221726 | 74 | 239 | 0.0 | 0.0 | 0.13 | 0.13 | 0.13 | 92 | 1015.7 |
| 20260830221523 | 74 | 239 | 0.0 | 0.0 | 0.13 | 0.13 | 0.13 | 92 | 1015.6 |
| 20260830221434 | 74 | 239 | 0.0 | 0.0 | 0.13 | 0.13 | 0.13 | 91 | 1015.7 |
| 20260830221307 | 74 | 239 | 0.0 | 0.0 | 0.13 | 0.13 | 0.13 | 92 | 1015.6 |
| 20260830221206 | 74 | 239 | 0.0 | 0.0 | 0.13 | 0.13 | 0.13 | 91 | 1015.6 |
| 20260830221106 | 74 | 239 | 0.0 | 0.0 | 0.13 | 0.13 | 0.13 | 91 | 1015.7 |
| 20260830221022 | 74 | 239 | 0.0 | 0.0 | 0.13 | 0.13 | 0.13 | 91 | 1015.5 |
| 20260830221019 | 74 | 239 | 0.0 | 0.0 | 0.13 | 0.13 | 0.13 | 91 | 1015.6 |
| 20260830221015 | 74 | 239 | 0.0 | 0.0 | 0.13 | 0.13 | 0.13 | 91 | 1015.6 |
| 20260830220826 | 74 | 239 | 0.0 | 0.0 | 0.13 | 0.13 | 0.13 | 91 | 1015.6 |
| 20260830220804 | 74 | 239 | 0.0 | 0.0 | 0.13 | 0.13 | 0.13 | 91 | 1015.6 |
| 20260830220704 | 74 | 239 | 0.0 | 0.0 | 0.13 | 0.13 | 0.13 | 90 | 1015.5 |
| 20260830220603 | 74 | 239 | 0.0 | 0.0 | 0.13 | 0.13 | 0.13 | 90 | 1015.6 |
| 20260830220523 | 74 | 239 | 0.0 | 0.0 | 0.13 | 0.13 | 0.13 | 90 | 1015.5 |
| 20260830220504 | 74 | 239 | 0.0 | 0.0 | 0.13 | 0.13 | 0.13 | 90 | 1015.6 |
| 20260830220404 | 74 | 239 | 0.0 | 0.0 | 0.13 | 0.13 | 0.13 | 90 | 1015.6 |
| 20260830220303 | 74 | 239 | 0.0 | 0.0 | 0.13 | 0.13 | 0.13 | 90 | 1015.6 |
| 20260830220202 | 74 | 239 | 0.0 | 0.0 | 0.13 | 0.13 | 0.13 | 90 | 1015.6 |
| 20260830220023 | 74 | 239 | 0.0 | 0.0 | 0.13 | 0.13 | 0.13 | 90 | 1015.5 |
| 20260830220003 | 74 | 239 | 0.0 | 0.0 | 0.13 | 0.13 | 0.13 | 90 | 1015.7 |
| 20260830215931 | 74 | 313 | 0.0 | 0.0 | 0.13 | 0.13 | 0.13 | 90 | 1015.7 |
| 20260830215925 | 74 | 239 | 0.0 | 0.0 | 0.13 | 0.13 | 0.13 | 90 | 1015.7 |
| 20260830215917 | 74 | 239 | 0.0 | 0.0 | 0.13 | 0.13 | 0.13 | 90 | 1015.7 |
| 20260830215600 | 74 | 313 | 0.0 | 0.0 | 0.13 | 0.13 | 0.13 | 89 | 1015.8 |
| 20260830215537 | 74 | 313 | 0.0 | 0.0 | 0.13 | 0.13 | 0.13 | 89 | 1015.7 |
| 20260830215500 | 74 | 313 | 0.0 | 0.0 | 0.13 | 0.13 | 0.13 | 89 | 1015.8 |
| 20260830215400 | 74 | 313 | 0.0 | 0.0 | 0.13 | 0.13 | 0.13 | 88 | 1015.8 |
| 20260830215318 | 74 | 313 | 0.0 | 0.0 | 0.13 | 0.13 | 0.13 | 88 | 1015.8 |
| 20260830215259 | 74 | 313 | 0.0 | 0.0 | 0.13 | 0.13 | 0.13 | 88 | 1015.8 |
| 20260830215159 | 74 | 313 | 0.0 | 0.0 | 0.13 | 0.13 | 0.13 | 88 | 1015.8 |
| 20260830215058 | 75 | 313 | 0.0 | 0.0 | 0.13 | 0.13 | 0.13 | 87 | 1015.8 |
| 20260830215022 | 75 | 313 | 0.0 | 0.0 | 0.13 | 0.13 | 0.13 | 86 | 1015.6 |
| 20260830214957 | 75 | 313 | 0.0 | 0.0 | 0.13 | 0.13 | 0.13 | 86 | 1015.7 |
| 20260830214857 | 75 | 313 | 0.0 | 0.0 | 0.13 | 0.13 | 0.13 | 85 | 1015.7 |
| 20260830214818 | 75 | 313 | 0.0 | 0.0 | 0.13 | 0.13 | 0.13 | 85 | 1015.7 |
| 20260830214756 | 75 | 313 | 0.0 | 0.0 | 0.13 | 0.13 | 0.13 | 85 | 1015.7 |
| 20260830214709 | 76 | 313 | 0.0 | 0.0 | 0.13 | 0.13 | 0.13 | 84 | 1015.7 |
| 20260830214705 | 75 | 313 | 0.0 | 0.0 | 0.13 | 0.13 | 0.13 | 84 | 1015.7 |
| 20260830214522 | 76 | 313 | 0.0 | 0.0 | 0.13 | 0.13 | 0.13 | 84 | 1015.7 |
| 20260830214455 | 76 | 313 | 0.0 | 0.0 | 0.13 | 0.13 | 0.13 | 84 | 1015.8 |
| 20260830214355 | 76 | 313 | 0.0 | 0.0 | 0.13 | 0.13 | 0.13 | 84 | 1015.8 |
| 20260830214318 | 76 | 314 | 0.0 | 0.0 | 0.13 | 0.13 | 0.13 | 83 | 1015.8 |
| 20260830214308 | 76 | 315 | 0.0 | 0.0 | 0.13 | 0.13 | 0.13 | 82 | 1015.8 |
| 20260830214303 | 76 | 315 | 0.0 | 0.0 | 0.13 | 0.13 | 0.13 | 83 | 1015.8 |
| 20260830214053 | 77 | 315 | 0.0 | 0.0 | 0.13 | 0.13 | 0.13 | 82 | 1015.7 |
| 20260830214023 | 77 | 315 | 0.0 | 0.0 | 0.13 | 0.13 | 0.13 | 81 | 1015.6 |
| 20260830213953 | 77 | 315 | 0.0 | 0.0 | 0.13 | 0.13 | 0.13 | 81 | 1015.7 |
| 20260830213852 | 77 | 315 | 0.0 | 0.0 | 0.13 | 0.13 | 0.13 | 81 | 1015.6 |
| 20260830213815 | 78 | 315 | 0.0 | 0.0 | 0.13 | 0.13 | 0.13 | 80 | 1015.6 |
| 20260830213751 | 78 | 315 | 0.0 | 0.0 | 0.13 | 0.13 | 0.13 | 79 | 1015.7 |
| 20260830213651 | 78 | 315 | 0.0 | 0.0 | 0.13 | 0.13 | 0.13 | 78 | 1015.7 |
| 20260830213548 | 78 | 294 | 0.0 | 0.0 | 0.13 | 0.13 | 0.13 | 78 | 1015.8 |
| 20260830213523 | 79 | 294 | 0.0 | 0.0 | 0.13 | 0.13 | 0.13 | 78 | 1015.6 |
| 20260830213448 | 79 | 294 | 0.0 | 0.0 | 0.13 | 0.13 | 0.13 | 78 | 1015.8 |
| 20260830213348 | 79 | 302 | 0.0 | 0.0 | 0.13 | 0.13 | 0.13 | 78 | 1015.9 |
| 20260830213315 | 80 | 301 | 0.0 | 0.0 | 0.12 | 0.12 | 0.13 | 77 | 1015.9 |
| 20260830213300 | 80 | 304 | 0.0 | 0.0 | 0.12 | 0.12 | 0.12 | 76 | 1016.0 |
| 20260830213256 | 80 | 301 | 0.0 | 0.0 | 0.12 | 0.12 | 0.13 | 77 | 1015.9 |
| 20260830213046 | 81 | 310 | 0.0 | 0.0 | 0.10 | 0.10 | 0.12 | 74 | 1016.1 |
| 20260830213023 | 81 | 310 | 0.0 | 0.0 | 0.10 | 0.10 | 0.10 | 73 | 1016.1 |
| 20260830212945 | 81 | 310 | 0.0 | 0.0 | 0.07 | 0.07 | 0.09 | 73 | 1016.2 |
| 20260830212905 | 82 | 284 | 0.0 | 0.0 | 0.00 | 0.00 | 0.02 | 73 | 1016.2 |
| 20260830212859 | 82 | 310 | 0.0 | 0.0 | 0.02 | 0.02 | 0.06 | 73 | 1016.2 |
| 20260830212851 | 82 | 258 | 0.0 | 0.0 | 0.02 | 0.02 | 0.04 | 73 | 1016.2 |
| 20260830212644 | 82 | 302 | 0.0 | 0.0 | 0.00 | 0.00 | 0.00 | 75 | 1016.1 |
| 20260830212543 | 82 | 303 | 0.0 | 0.0 | 0.00 | 0.00 | 0.00 | 74 | 1016.0 |
| 20260830212522 | 82 | 308 | 0.0 | 0.0 | 0.00 | 0.00 | 0.00 | 73 | 1015.8 |
| 20260830212442 | 82 | 309 | 0.0 | 0.0 | 0.00 | 0.00 | 0.00 | 73 | 1015.9 |
| 20260830212342 | 82 | 261 | 0.0 | 0.0 | 0.00 | 0.00 | 0.00 | 73 | 1015.8 |
| 20260830212313 | 82 | 261 | 0.0 | 0.0 | 0.00 | 0.00 | 0.00 | 72 | 1015.8 |
| 20260830212241 | 82 | 261 | 0.0 | 0.0 | 0.00 | 0.00 | 0.00 | 72 | 1015.7 |
| 20260830212154 | 83 | 259 | 0.0 | 0.0 | 0.00 | 0.00 | 0.00 | 73 | 1015.5 |
| 20260830212150 | 83 | 240 | 0.0 | 0.0 | 0.00 | 0.00 | 0.00 | 72 | 1015.7 |
| 20260830212023 | 83 | 258 | 0.0 | 0.0 | 0.00 | 0.00 | 0.00 | 73 | 1015.5 |
| 20260830211953 | 83 | 258 | 0.0 | 0.0 | 0.00 | 0.00 | 0.00 | 72 | 1015.5 |
| 20260830211949 | 83 | 258 | 0.0 | 0.0 | 0.00 | 0.00 | 0.00 | 72 | 1015.6 |
| 20260830211812 | 83 | 258 | 0.0 | 0.0 | 0.00 | 0.00 | 0.00 | 72 | 1015.5 |
| 20260830211739 | 83 | 258 | 0.0 | 0.0 | 0.00 | 0.00 | 0.00 | 72 | 1015.5 |
| 20260830211650 | 83 | 258 | 0.0 | 0.0 | 0.00 | 0.00 | 0.00 | 74 | 1015.6 |
| 20260830211641 | 83 | 258 | 0.0 | 0.0 | 0.00 | 0.00 | 0.00 | 74 | 1015.6 |
| 20260830211523 | 83 | 258 | 0.0 | 0.0 | 0.00 | 0.00 | 0.00 | 74 | 1015.6 |
| 20260830211438 | 83 | 258 | 0.0 | 0.0 | 0.00 | 0.00 | 0.00 | 74 | 1015.7 |
| 20260830211417 | 83 | 258 | 0.0 | 0.0 | 0.00 | 0.00 | 0.00 | 73 | 1015.7 |
| 20260830211237 | 83 | 258 | 0.0 | 0.0 | 0.00 | 0.00 | 0.00 | 73 | 1015.7 |
| 20260830211136 | 83 | 258 | 0.0 | 0.0 | 0.00 | 0.00 | 0.00 | 73 | 1015.7 |
| 20260830211045 | 83 | 258 | 0.0 | 0.0 | 0.00 | 0.00 | 0.00 | 74 | 1015.5 |
| 20260830211039 | 83 | 258 | 0.0 | 0.0 | 0.00 | 0.00 | 0.00 | 74 | 1015.5 |
| 20260830211035 | 83 | 258 | 0.0 | 0.0 | 0.00 | 0.00 | 0.00 | 73 | 1015.6 |
| 20260830211026 | 83 | 258 | 0.0 | 0.0 | 0.00 | 0.00 | 0.00 | 74 | 1015.5 |
| 20260830211023 | 83 | 258 | 0.0 | 0.0 | 0.00 | 0.00 | 0.00 | 73 | 1015.4 |
| 20260830210734 | 83 | 258 | 0.0 | 0.0 | 0.00 | 0.00 | 0.00 | 74 | 1015.5 |
| 20260830210633 | 83 | 258 | 0.0 | 0.0 | 0.00 | 0.00 | 0.00 | 73 | 1015.5 |
| 20260830210546 | 83 | 261 | 0.0 | 0.0 | 0.00 | 0.00 | 0.00 | 73 | 1015.5 |
| 20260830210541 | 83 | 258 | 0.0 | 0.0 | 0.00 | 0.00 | 0.00 | 73 | 1015.5 |
| 20260830210523 | 83 | 261 | 0.0 | 0.0 | 0.00 | 0.00 | 0.00 | 74 | 1015.4 |
| 20260830210308 | 83 | 261 | 0.0 | 0.0 | 0.00 | 0.00 | 0.00 | 73 | 1015.6 |
| 20260830210301 | 83 | 261 | 0.0 | 0.0 | 0.00 | 0.00 | 0.00 | 73 | 1015.7 |
| 20260830210255 | 83 | 261 | 0.0 | 0.0 | 0.00 | 0.00 | 0.00 | 73 | 1015.7 |
| 20260830210250 | 83 | 261 | 0.0 | 0.0 | 0.00 | 0.00 | 0.00 | 73 | 1015.6 |
| 20260830210023 | 83 | 261 | 0.0 | 0.0 | 0.00 | 0.00 | 0.00 | 73 | 1015.6 |
| 20260830205931 | 83 | 261 | 0.0 | 0.0 | 0.00 | 0.00 | 0.00 | 73 | 1015.7 |
| 20260830205808 | 83 | 261 | 0.0 | 0.0 | 0.00 | 0.00 | 0.00 | 73 | 1015.7 |
| 20260830205729 | 83 | 261 | 0.0 | 0.0 | 0.00 | 0.00 | 0.00 | 73 | 1015.7 |
| 20260830205628 | 83 | 261 | 0.0 | 0.0 | 0.00 | 0.00 | 0.00 | 73 | 1015.6 |
| 20260830205528 | 83 | 261 | 0.0 | 0.0 | 0.00 | 0.00 | 0.00 | 72 | 1015.6 |
| 20260830205522 | 83 | 261 | 0.0 | 0.0 | 0.00 | 0.00 | 0.00 | 73 | 1015.5 |
| 20260830205427 | 83 | 261 | 0.0 | 0.0 | 0.00 | 0.00 | 0.00 | 73 | 1015.6 |
| 20260830205347 | 83 | 261 | 0.0 | 0.0 | 0.00 | 0.00 | 0.00 | 73 | 1015.6 |
| 20260830205235 | 83 | 261 | 0.0 | 0.0 | 0.00 | 0.00 | 0.00 | 73 | 1015.6 |
| 20260830205025 | 83 | 261 | 0.0 | 0.0 | 0.00 | 0.00 | 0.00 | 72 | 1015.6 |
| 20260830205023 | 83 | 261 | 0.0 | 0.0 | 0.00 | 0.00 | 0.00 | 72 | 1015.6 |
| 20260830204938 | 83 | 261 | 0.0 | 0.0 | 0.00 | 0.00 | 0.00 | 72 | 1015.7 |
| 20260830204934 | 83 | 261 | 0.0 | 0.0 | 0.00 | 0.00 | 0.00 | 72 | 1015.7 |
| 20260830204808 | 83 | 261 | 0.0 | 0.0 | 0.00 | 0.00 | 0.00 | 72 | 1015.7 |
| 20260830204722 | 83 | 261 | 0.0 | 0.0 | 0.00 | 0.00 | 0.00 | 71 | 1015.7 |
| 20260830204621 | 83 | 261 | 0.0 | 0.0 | 0.00 | 0.00 | 0.00 | 71 | 1015.7 |
| 20260830204538 | 83 | 243 | 0.0 | 0.0 | 0.00 | 0.00 | 0.00 | 71 | 1015.6 |
| 20260830204532 | 83 | 246 | 0.0 | 0.0 | 0.00 | 0.00 | 0.00 | 71 | 1015.7 |
| 20260830204528 | 83 | 261 | 0.0 | 0.0 | 0.00 | 0.00 | 0.00 | 71 | 1015.7 |
| 20260830204304 | 83 | 246 | 0.0 | 0.0 | 0.00 | 0.00 | 0.00 | 71 | 1015.7 |
| 20260830204218 | 84 | 246 | 0.0 | 0.0 | 0.00 | 0.00 | 0.00 | 70 | 1015.7 |
| 20260830204130 | 84 | 246 | 0.0 | 0.0 | 0.00 | 0.00 | 0.00 | 70 | 1015.7 |
| 20260830204126 | 84 | 246 | 0.0 | 0.0 | 0.00 | 0.00 | 0.00 | 70 | 1015.7 |
| 20260830204023 | 84 | 246 | 0.0 | 0.0 | 0.00 | 0.00 | 0.00 | 70 | 1015.6 |
| 20260830203916 | 84 | 246 | 0.0 | 0.0 | 0.00 | 0.00 | 0.00 | 71 | 1015.7 |
| 20260830203805 | 84 | 244 | 0.0 | 0.0 | 0.00 | 0.00 | 0.00 | 71 | 1015.7 |
| 20260830203715 | 84 | 245 | 0.0 | 0.0 | 0.00 | 0.00 | 0.00 | 71 | 1015.7 |
| 20260830203615 | 84 | 244 | 0.0 | 0.0 | 0.00 | 0.00 | 0.00 | 71 | 1015.7 |
| 20260830203522 | 84 | 309 | 0.0 | 0.0 | 0.00 | 0.00 | 0.00 | 71 | 1015.6 |
| 20260830203515 | 84 | 307 | 0.0 | 0.0 | 0.00 | 0.00 | 0.00 | 71 | 1015.8 |
| 20260830203428 | 84 | 189 | 0.0 | 0.0 | 0.00 | 0.00 | 0.00 | 71 | 1015.7 |
| 20260830203423 | 84 | 309 | 0.0 | 0.0 | 0.00 | 0.00 | 0.00 | 71 | 1015.7 |
| 20260830203307 | 84 | 189 | 0.0 | 0.0 | 0.00 | 0.00 | 0.00 | 71 | 1015.7 |
| 20260830203214 | 84 | 189 | 0.0 | 0.0 | 0.00 | 0.00 | 0.00 | 71 | 1015.7 |
| 20260830203114 | 84 | 181 | 0.0 | 0.0 | 0.00 | 0.00 | 0.00 | 71 | 1015.7 |
| 20260830203038 | 84 | 230 | 0.0 | 0.0 | 0.00 | 0.00 | 0.00 | 71 | 1015.6 |
| 20260830203014 | 84 | 181 | 0.0 | 0.0 | 0.00 | 0.00 | 0.00 | 71 | 1015.7 |
| 20260830202913 | 84 | 230 | 0.0 | 0.0 | 0.00 | 0.00 | 0.00 | 71 | 1015.7 |
| 20260830202812 | 84 | 231 | 0.0 | 0.0 | 0.00 | 0.00 | 0.00 | 71 | 1015.7 |
| 20260830202804 | 84 | 231 | 0.0 | 0.0 | 0.00 | 0.00 | 0.00 | 71 | 1015.7 |
| 20260830202711 | 84 | 236 | 0.0 | 0.0 | 0.00 | 0.00 | 0.00 | 71 | 1015.7 |
| 20260830202611 | 84 | 236 | 0.0 | 0.0 | 0.00 | 0.00 | 0.00 | 71 | 1015.8 |
| 20260830202523 | 84 | 236 | 0.0 | 0.0 | 0.00 | 0.00 | 0.00 | 70 | 1015.7 |
| 20260830202511 | 84 | 236 | 0.0 | 0.0 | 0.00 | 0.00 | 0.00 | 70 | 1015.8 |
| 20260830202409 | 84 | 236 | 0.0 | 0.0 | 0.00 | 0.00 | 0.00 | 70 | 1015.8 |
| 20260830202306 | 84 | 236 | 0.0 | 0.0 | 0.00 | 0.00 | 0.00 | 70 | 1015.8 |
| 20260830202235 | 84 | 204 | 0.0 | 0.0 | 0.00 | 0.00 | 0.00 | 69 | 1015.8 |
| 20260830202231 | 84 | 202 | 0.0 | 0.0 | 0.00 | 0.00 | 0.00 | 70 | 1015.8 |
| 20260830202226 | 84 | 236 | 0.0 | 0.0 | 0.00 | 0.00 | 0.00 | 69 | 1015.8 |
| 20260830202023 | 84 | 202 | 0.0 | 0.0 | 0.00 | 0.00 | 0.00 | 70 | 1015.7 |
| 20260830201907 | 84 | 205 | 0.0 | 0.0 | 0.00 | 0.00 | 0.00 | 70 | 1015.8 |
| 20260830201804 | 84 | 206 | 0.0 | 0.0 | 0.00 | 0.00 | 0.00 | 70 | 1015.7 |
| 20260830201706 | 84 | 209 | 0.0 | 0.0 | 0.00 | 0.00 | 0.00 | 70 | 1015.7 |
| 20260830201606 | 84 | 209 | 0.0 | 0.0 | 0.00 | 0.00 | 0.00 | 70 | 1015.7 |
| 20260830201523 | 84 | 214 | 0.0 | 0.0 | 0.00 | 0.00 | 0.00 | 70 | 1015.6 |
| 20260830201520 | 84 | 219 | 0.0 | 0.0 | 0.00 | 0.00 | 0.00 | 70 | 1015.7 |
| 20260830201514 | 84 | 214 | 0.0 | 0.0 | 0.00 | 0.00 | 0.00 | 70 | 1015.7 |
| 20260830201324 | 84 | 225 | 0.0 | 0.0 | 0.00 | 0.00 | 0.00 | 69 | 1015.7 |
| 20260830201315 | 84 | 206 | 0.0 | 0.0 | 0.00 | 0.00 | 0.00 | 69 | 1015.7 |
| 20260830201103 | 84 | 229 | 0.0 | 0.0 | 0.00 | 0.00 | 0.00 | 69 | 1015.7 |
| 20260830201023 | 84 | 301 | 0.0 | 0.0 | 0.00 | 0.00 | 0.00 | 69 | 1015.6 |
| 20260830201002 | 84 | 301 | 0.0 | 0.0 | 0.00 | 0.00 | 0.00 | 69 | 1015.7 |
| 20260830200902 | 84 | 187 | 0.0 | 0.0 | 0.00 | 0.00 | 0.00 | 69 | 1015.7 |
| 20260830200802 | 84 | 253 | 0.0 | 0.0 | 0.00 | 0.00 | 0.00 | 68 | 1015.7 |
| 20260830200700 | 84 | 228 | 0.0 | 0.0 | 0.00 | 0.00 | 0.00 | 68 | 1015.7 |
| 20260830200600 | 85 | 252 | 0.0 | 0.0 | 0.00 | 0.00 | 0.00 | 69 | 1015.7 |
| 20260830200537 | 85 | 142 | 0.0 | 0.0 | 0.00 | 0.00 | 0.00 | 68 | 1015.6 |
| 20260830200524 | 85 | 202 | 0.0 | 0.0 | 0.00 | 0.00 | 0.00 | 68 | 1015.8 |
| 20260830200500 | 85 | 142 | 0.0 | 0.0 | 0.00 | 0.00 | 0.00 | 68 | 1015.7 |
| 20260830200412 | 85 | 355 | 0.0 | 0.0 | 0.00 | 0.00 | 0.00 | 68 | 1015.8 |
| 20260830200259 | 85 | 202 | 0.0 | 0.0 | 0.00 | 0.00 | 0.00 | 68 | 1015.8 |
| 20260830200213 | 85 | 199 | 0.0 | 0.0 | 0.00 | 0.00 | 0.00 | 69 | 1015.9 |
| 20260830200208 | 85 | 233 | 0.0 | 0.0 | 0.00 | 0.00 | 0.00 | 69 | 1015.9 |
| 20260830200023 | 85 | 198 | 0.0 | 0.0 | 0.00 | 0.00 | 0.00 | 70 | 1015.8 |
| 20260830195957 | 85 | 192 | 0.0 | 0.0 | 0.00 | 0.00 | 0.00 | 70 | 1015.9 |
| 20260830195857 | 85 | 174 | 0.0 | 0.0 | 0.00 | 0.00 | 0.00 | 69 | 1016.0 |
| 20260830195800 | 85 | 306 | 0.0 | 0.0 | 0.00 | 0.00 | 0.00 | 70 | 1016.1 |
| 20260830195756 | 85 | 315 | 0.0 | 0.0 | 0.00 | 0.00 | 0.00 | 69 | 1016.1 |
| 20260830195655 | 85 | 150 | 0.0 | 0.0 | 0.00 | 0.00 | 0.00 | 69 | 1016.1 |
| 20260830195555 | 85 | 204 | 0.0 | 3.0 | 0.00 | 0.00 | 0.00 | 69 | 1016.1 |
| 20260830195522 | 85 | 232 | 0.0 | 4.0 | 0.00 | 0.00 | 0.00 | 69 | 1016.1 |
| 20260830195518 | 85 | 238 | 0.0 | 4.0 | 0.00 | 0.00 | 0.00 | 69 | 1016.2 |
| 20260830195453 | 85 | 232 | 0.0 | 4.0 | 0.00 | 0.00 | 0.00 | 69 | 1016.2 |
| 20260830195409 | 85 | 235 | 0.0 | 4.0 | 0.00 | 0.00 | 0.00 | 69 | 1016.2 |
| 20260830195251 | 85 | 238 | 0.0 | 4.0 | 0.00 | 0.00 | 0.00 | 69 | 1016.2 |
| 20260830195150 | 85 | 236 | 0.0 | 10.0 | 0.00 | 0.00 | 0.00 | 69 | 1016.2 |
| 20260830195050 | 85 | 254 | 0.0 | 10.0 | 0.00 | 0.00 | 0.00 | 69 | 1016.2 |
| 20260830195023 | 84 | 223 | 0.0 | 10.0 | 0.00 | 0.00 | 0.00 | 69 | 1016.1 |
| 20260830194950 | 84 | 223 | 0.0 | 10.0 | 0.00 | 0.00 | 0.00 | 69 | 1016.2 |
| 20260830194921 | 84 | 196 | 0.0 | 10.0 | 0.00 | 0.00 | 0.00 | 69 | 1016.2 |
| 20260830194917 | 84 | 248 | 0.0 | 12.0 | 0.00 | 0.00 | 0.00 | 68 | 1016.2 |
| 20260830194912 | 84 | 281 | 0.0 | 10.0 | 0.00 | 0.00 | 0.00 | 69 | 1016.2 |
| 20260830194903 | 84 | 198 | 0.0 | 10.0 | 0.00 | 0.00 | 0.00 | 69 | 1016.2 |
| 20260830194549 | 84 | 246 | 0.0 | 12.0 | 0.00 | 0.00 | 0.00 | 69 | 1016.2 |
| 20260830194523 | 84 | 319 | 2.0 | 12.0 | 0.00 | 0.00 | 0.00 | 69 | 1016.1 |
| 20260830194447 | 84 | 238 | 0.0 | 12.0 | 0.00 | 0.00 | 0.00 | 69 | 1016.2 |
| 20260830194346 | 84 | 234 | 0.0 | 12.0 | 0.00 | 0.00 | 0.00 | 70 | 1016.2 |
| 20260830194259 | 84 | 307 | 0.0 | 12.0 | 0.00 | 0.00 | 0.00 | 69 | 1016.2 |
| 20260830194246 | 84 | 307 | 0.0 | 12.0 | 0.00 | 0.00 | 0.00 | 69 | 1016.2 |
| 20260830194145 | 84 | 194 | 0.0 | 12.0 | 0.00 | 0.00 | 0.00 | 69 | 1016.1 |
| 20260830194045 | 84 | 219 | 0.0 | 12.0 | 0.00 | 0.00 | 0.00 | 68 | 1016.1 |
| 20260830194038 | 84 | 203 | 0.0 | 12.0 | 0.00 | 0.00 | 0.00 | 68 | 1016.0 |
| 20260830193944 | 84 | 203 | 0.0 | 12.0 | 0.00 | 0.00 | 0.00 | 67 | 1016.1 |
| 20260830193843 | 84 | 267 | 0.0 | 12.0 | 0.00 | 0.00 | 0.00 | 69 | 1016.1 |
| 20260830193757 | 85 | 248 | 0.0 | 12.0 | 0.00 | 0.00 | 0.00 | 68 | 1016.1 |
| 20260830193743 | 85 | 261 | 0.0 | 12.0 | 0.00 | 0.00 | 0.00 | 68 | 1016.1 |
| 20260830193642 | 85 | 217 | 0.0 | 7.0 | 0.00 | 0.00 | 0.00 | 68 | 1016.1 |
| 20260830193542 | 85 | 231 | 0.0 | 7.0 | 0.00 | 0.00 | 0.00 | 68 | 1016.2 |
| 20260830193523 | 85 | 247 | 0.0 | 1.0 | 0.00 | 0.00 | 0.00 | 68 | 1016.1 |
| 20260830193518 | 85 | 238 | 0.0 | 1.0 | 0.00 | 0.00 | 0.00 | 67 | 1016.2 |
| 20260830193442 | 85 | 261 | 0.0 | 1.0 | 0.00 | 0.00 | 0.00 | 67 | 1016.2 |
| 20260830193405 | 85 | 206 | 0.0 | 1.0 | 0.00 | 0.00 | 0.00 | 67 | 1016.2 |
| 20260830193241 | 85 | 206 | 0.0 | 1.0 | 0.00 | 0.00 | 0.00 | 67 | 1016.2 |
| 20260830193140 | 85 | 214 | 0.0 | 0.0 | 0.00 | 0.00 | 0.00 | 67 | 1016.2 |
| 20260830193040 | 85 | 214 | 0.0 | 0.0 | 0.00 | 0.00 | 0.00 | 66 | 1016.2 |
| 20260830193027 | 85 | 232 | 0.0 | 0.0 | 0.00 | 0.00 | 0.00 | 65 | 1016.3 |
| 20260830193023 | 85 | 235 | 0.0 | 0.0 | 0.00 | 0.00 | 0.00 | 66 | 1016.2 |
| 20260830193018 | 86 | 232 | 0.0 | 0.0 | 0.00 | 0.00 | 0.00 | 65 | 1016.4 |
| 20260830193011 | 85 | 235 | 0.0 | 0.0 | 0.00 | 0.00 | 0.00 | 65 | 1016.3 |
| 20260830192854 | 85 | 232 | 0.0 | 0.0 | 0.00 | 0.00 | 0.00 | 65 | 1016.3 |
| 20260830192537 | 86 | 209 | 0.0 | 0.0 | 0.00 | 0.00 | 0.00 | 65 | 1016.4 |
| 20260830192523 | 86 | 182 | 0.0 | 0.0 | 0.00 | 0.00 | 0.00 | 65 | 1016.1 |
| 20260830192451 | 86 | 231 | 0.0 | 0.0 | 0.00 | 0.00 | 0.00 | 65 | 1016.4 |
| 20260830192447 | 86 | 227 | 0.0 | 0.0 | 0.00 | 0.00 | 0.00 | 66 | 1016.3 |
| 20260830192257 | 86 | 269 | 0.0 | 0.0 | 0.00 | 0.00 | 0.00 | 65 | 1016.4 |
| 20260830192236 | 86 | 271 | 0.0 | 0.0 | 0.00 | 0.00 | 0.00 | 65 | 1016.4 |
| 20260830192147 | 86 | 215 | 0.0 | 0.0 | 0.00 | 0.00 | 0.00 | 67 | 1016.4 |
| 20260830192143 | 86 | 195 | 0.0 | 0.0 | 0.00 | 0.00 | 0.00 | 65 | 1016.4 |
| 20260830192023 | 86 | 209 | 0.0 | 0.0 | 0.00 | 0.00 | 0.00 | 67 | 1016.1 |
| 20260830191934 | 86 | 207 | 0.0 | 0.0 | 0.00 | 0.00 | 0.00 | 67 | 1016.3 |
| 20260830191833 | 85 | 296 | 0.0 | 0.0 | 0.00 | 0.00 | 0.00 | 66 | 1016.3 |
| 20260830191757 | 85 | 189 | 0.0 | 0.0 | 0.00 | 0.00 | 0.00 | 66 | 1016.3 |
| 20260830191734 | 85 | 189 | 0.0 | 0.0 | 0.00 | 0.00 | 0.00 | 67 | 1016.3 |
| 20260830191632 | 85 | 193 | 0.0 | 0.0 | 0.00 | 0.00 | 0.00 | 67 | 1016.2 |
| 20260830191532 | 85 | 186 | 0.0 | 0.0 | 0.00 | 0.00 | 0.00 | 67 | 1016.1 |
| 20260830191523 | 85 | 186 | 0.0 | 0.0 | 0.00 | 0.00 | 0.00 | 68 | 1016.0 |
| 20260830191432 | 85 | 201 | 0.0 | 0.0 | 0.00 | 0.00 | 0.00 | 68 | 1016.1 |
| 20260830191358 | 85 | 198 | 0.0 | 0.0 | 0.00 | 0.00 | 0.00 | 67 | 1016.2 |
| 20260830191350 | 85 | 302 | 0.0 | 0.0 | 0.00 | 0.00 | 0.00 | 67 | 1016.2 |
| 20260830191240 | 85 | 243 | 0.0 | 0.0 | 0.00 | 0.00 | 0.00 | 67 | 1016.2 |
| 20260830191029 | 85 | 194 | 0.0 | 0.0 | 0.00 | 0.00 | 0.00 | 68 | 1016.2 |
| 20260830191023 | 85 | 194 | 0.0 | 0.0 | 0.00 | 0.00 | 0.00 | 69 | 1016.2 |
| 20260830190929 | 85 | 165 | 0.0 | 0.0 | 0.00 | 0.00 | 0.00 | 69 | 1016.3 |
| 20260830190829 | 84 | 211 | 0.0 | 0.0 | 0.00 | 0.00 | 0.00 | 69 | 1016.3 |
| 20260830190755 | 84 | 211 | 0.0 | 0.0 | 0.00 | 0.00 | 0.00 | 69 | 1016.3 |
| 20260830190727 | 84 | 211 | 0.0 | 0.0 | 0.00 | 0.00 | 0.00 | 69 | 1016.3 |
| 20260830190627 | 84 | 211 | 0.0 | 0.0 | 0.00 | 0.00 | 0.00 | 69 | 1016.3 |
| 20260830190538 | 84 | 171 | 0.0 | 0.0 | 0.00 | 0.00 | 0.00 | 69 | 1016.3 |
| 20260830190526 | 84 | 173 | 0.0 | 0.0 | 0.00 | 0.00 | 0.00 | 69 | 1016.4 |
| 20260830190515 | 84 | 258 | 0.0 | 0.0 | 0.00 | 0.00 | 0.00 | 69 | 1016.4 |
| 20260830190425 | 84 | 217 | 0.0 | 0.0 | 0.00 | 0.00 | 0.00 | 69 | 1016.4 |
| 20260830190404 | 84 | 290 | 0.0 | 0.0 | 0.00 | 0.00 | 0.00 | 69 | 1016.4 |
| 20260830190225 | 84 | 254 | 0.0 | 0.0 | 0.00 | 0.00 | 0.00 | 70 | 1016.4 |
| 20260830190125 | 84 | 261 | 0.0 | 0.0 | 0.00 | 0.00 | 0.00 | 69 | 1016.4 |
| 20260830190026 | 84 | 219 | 0.0 | 0.0 | 0.00 | 0.00 | 0.00 | 69 | 1016.4 |
| 20260830190023 | 84 | 323 | 0.0 | 0.0 | 0.00 | 0.00 | 0.00 | 69 | 1016.4 |
| 20260830190021 | 84 | 205 | 0.0 | 0.0 | 0.00 | 0.00 | 0.00 | 69 | 1016.4 |
| 20260830185921 | 84 | 190 | 0.0 | 0.0 | 0.00 | 0.00 | 0.00 | 69 | 1016.5 |
| 20260830185903 | 84 | 185 | 0.0 | 0.0 | 0.00 | 0.00 | 0.00 | 69 | 1016.4 |
| 20260830185721 | 84 | 205 | 0.0 | 0.0 | 0.00 | 0.00 | 0.00 | 69 | 1016.4 |
| 20260830185621 | 84 | 205 | 0.0 | 0.0 | 0.00 | 0.00 | 0.00 | 69 | 1016.3 |
| 20260830185523 | 84 | 220 | 0.0 | 0.0 | 0.00 | 0.00 | 0.00 | 69 | 1016.4 |
| 20260830185520 | 84 | 217 | 0.0 | 0.0 | 0.00 | 0.00 | 0.00 | 69 | 1016.3 |
| 20260830185420 | 84 | 232 | 0.0 | 0.0 | 0.00 | 0.00 | 0.00 | 68 | 1016.5 |
| 20260830185320 | 84 | 232 | 0.0 | 0.0 | 0.00 | 0.00 | 0.00 | 68 | 1016.6 |
| 20260830185255 | 84 | 232 | 0.0 | 0.0 | 0.00 | 0.00 | 0.00 | 68 | 1016.6 |
| 20260830185219 | 84 | 244 | 0.0 | 0.0 | 0.00 | 0.00 | 0.00 | 68 | 1016.6 |
| 20260830185119 | 84 | 227 | 0.0 | 0.0 | 0.00 | 0.00 | 0.00 | 68 | 1016.6 |
| 20260830185034 | 84 | 219 | 0.0 | 0.0 | 0.00 | 0.00 | 0.00 | 68 | 1016.5 |
| 20260830185028 | 84 | 227 | 0.0 | 0.0 | 0.00 | 0.00 | 0.00 | 68 | 1016.6 |
| 20260830185023 | 84 | 227 | 0.0 | 0.0 | 0.00 | 0.00 | 0.00 | 68 | 1016.4 |
| 20260830184818 | 84 | 189 | 0.0 | 0.0 | 0.00 | 0.00 | 0.00 | 69 | 1016.5 |
| 20260830184754 | 84 | 189 | 0.0 | 0.0 | 0.00 | 0.00 | 0.00 | 68 | 1016.5 |
| 20260830184739 | 84 | 183 | 0.0 | 0.0 | 0.00 | 0.00 | 0.00 | 68 | 1016.5 |
| 20260830184626 | 84 | 219 | 0.0 | 0.0 | 0.00 | 0.00 | 0.00 | 69 | 1016.6 |
| 20260830184523 | 84 | 202 | 0.0 | 0.0 | 0.00 | 0.00 | 0.00 | 68 | 1016.3 |
| 20260830184416 | 84 | 202 | 0.0 | 0.0 | 0.00 | 0.00 | 0.00 | 69 | 1016.4 |
| 20260830184315 | 84 | 202 | 0.0 | 0.0 | 0.00 | 0.00 | 0.00 | 68 | 1016.5 |
| 20260830184254 | 84 | 202 | 0.0 | 0.0 | 0.00 | 0.00 | 0.00 | 68 | 1016.6 |
| 20260830184216 | 84 | 202 | 0.0 | 0.0 | 0.00 | 0.00 | 0.00 | 68 | 1016.6 |
| 20260830184115 | 84 | 202 | 0.0 | 0.0 | 0.00 | 0.00 | 0.00 | 69 | 1016.5 |
| 20260830184023 | 84 | 166 | 0.0 | 0.0 | 0.00 | 0.00 | 0.00 | 68 | 1016.5 |
| 20260830184015 | 84 | 173 | 0.0 | 0.0 | 0.00 | 0.00 | 0.00 | 68 | 1016.5 |
| 20260830183914 | 84 | 160 | 0.0 | 0.0 | 0.00 | 0.00 | 0.00 | 69 | 1016.6 |
| 20260830183841 | 84 | 203 | 0.0 | 0.0 | 0.00 | 0.00 | 0.00 | 68 | 1016.6 |
| 20260830183836 | 84 | 200 | 0.0 | 0.0 | 0.00 | 0.00 | 0.00 | 68 | 1016.6 |
| 20260830183722 | 84 | 205 | 0.0 | 0.0 | 0.00 | 0.00 | 0.00 | 68 | 1016.6 |
| 20260830183600 | 84 | 249 | 0.0 | 0.0 | 0.00 | 0.00 | 0.00 | 69 | 1016.8 |
| 20260830183523 | 84 | 207 | 0.0 | 0.0 | 0.00 | 0.00 | 0.00 | 69 | 1016.6 |
| 20260830183513 | 84 | 144 | 0.0 | 0.0 | 0.00 | 0.00 | 0.00 | 67 | 1016.7 |
| 20260830183449 | 84 | 245 | 0.0 | 0.0 | 0.00 | 0.00 | 0.00 | 69 | 1016.7 |
| 20260830183440 | 84 | 249 | 0.0 | 0.0 | 0.00 | 0.00 | 0.00 | 69 | 1016.8 |
| 20260830183221 | 84 | 249 | 0.0 | 0.0 | 0.00 | 0.00 | 0.00 | 69 | 1016.8 |
| 20260830183037 | 84 | 53 | 0.0 | 0.0 | 0.00 | 0.00 | 0.00 | 68 | 1016.6 |
| 20260830183011 | 84 | 63 | 0.0 | 0.0 | 0.00 | 0.00 | 0.00 | 68 | 1016.8 |
| 20260830182911 | 84 | 240 | 0.0 | 0.0 | 0.00 | 0.00 | 0.00 | 69 | 1016.7 |
| 20260830182810 | 84 | 192 | 0.0 | 0.0 | 0.00 | 0.00 | 0.00 | 68 | 1016.8 |
| 20260830182752 | 84 | 194 | 0.0 | 0.0 | 0.00 | 0.00 | 0.00 | 68 | 1016.8 |
| 20260830182709 | 84 | 193 | 0.0 | 0.0 | 0.00 | 0.00 | 0.00 | 69 | 1016.8 |
| 20260830182608 | 84 | 199 | 0.0 | 0.0 | 0.00 | 0.00 | 0.00 | 69 | 1016.8 |
| 20260830182523 | 84 | 204 | 0.0 | 0.0 | 0.00 | 0.00 | 0.00 | 69 | 1016.8 |
| 20260830182508 | 84 | 202 | 0.0 | 0.0 | 0.00 | 0.00 | 0.00 | 69 | 1016.9 |
| 20260830182421 | 83 | 238 | 0.0 | 0.0 | 0.00 | 0.00 | 0.00 | 72 | 1016.9 |
| 20260830182415 | 84 | 205 | 0.0 | 0.0 | 0.00 | 0.00 | 0.00 | 70 | 1016.9 |
| 20260830182251 | 83 | 224 | 0.0 | 0.0 | 0.00 | 0.00 | 0.00 | 72 | 1016.8 |
| 20260830182205 | 83 | 238 | 0.0 | 0.0 | 0.00 | 0.00 | 0.00 | 71 | 1016.8 |
| 20260830182105 | 83 | 245 | 0.0 | 0.0 | 0.00 | 0.00 | 0.00 | 72 | 1016.8 |
| 20260830182023 | 83 | 215 | 0.0 | 0.0 | 0.00 | 0.00 | 0.00 | 72 | 1016.7 |
| 20260830182005 | 83 | 215 | 0.0 | 0.0 | 0.00 | 0.00 | 0.00 | 72 | 1016.8 |
| 20260830181917 | 83 | 182 | 0.0 | 0.0 | 0.00 | 0.00 | 0.00 | 73 | 1016.7 |
| 20260830181912 | 83 | 214 | 0.0 | 0.0 | 0.00 | 0.00 | 0.00 | 72 | 1016.8 |
| 20260830181749 | 83 | 230 | 0.0 | 0.0 | 0.00 | 0.00 | 0.00 | 73 | 1016.7 |
| 20260830181702 | 82 | 238 | 0.0 | 0.0 | 0.00 | 0.00 | 0.00 | 73 | 1016.6 |
| 20260830181602 | 82 | 254 | 0.0 | 0.0 | 0.00 | 0.00 | 0.00 | 74 | 1016.7 |
| 20260830181523 | 82 | 154 | 0.0 | 0.0 | 0.00 | 0.00 | 0.00 | 74 | 1016.8 |
| 20260830181501 | 82 | 154 | 0.0 | 0.0 | 0.00 | 0.00 | 0.00 | 74 | 1016.9 |
| 20260830181400 | 82 | 263 | 0.0 | 0.0 | 0.00 | 0.00 | 0.00 | 73 | 1016.8 |
| 20260830181300 | 82 | 264 | 0.0 | 0.0 | 0.00 | 0.00 | 0.00 | 73 | 1016.9 |
| 20260830181249 | 82 | 266 | 0.0 | 0.0 | 0.00 | 0.00 | 0.00 | 74 | 1016.9 |
| 20260830181159 | 82 | 240 | 0.0 | 0.0 | 0.00 | 0.00 | 0.00 | 73 | 1017.0 |
| 20260830181059 | 82 | 240 | 0.0 | 0.0 | 0.00 | 0.00 | 0.00 | 73 | 1017.1 |
| 20260830181023 | 82 | 229 | 0.0 | 0.0 | 0.00 | 0.00 | 0.00 | 73 | 1017.0 |
| 20260830181009 | 82 | 226 | 0.0 | 0.0 | 0.00 | 0.00 | 0.00 | 73 | 1017.1 |
| 20260830180958 | 82 | 229 | 0.0 | 0.0 | 0.00 | 0.00 | 0.00 | 73 | 1017.1 |
| 20260830180903 | 82 | 231 | 0.0 | 0.0 | 0.00 | 0.00 | 0.00 | 73 | 1017.0 |
| 20260830180854 | 82 | 226 | 0.0 | 0.0 | 0.00 | 0.00 | 0.00 | 73 | 1017.1 |
| 20260830180657 | 82 | 226 | 0.0 | 0.0 | 0.00 | 0.00 | 0.00 | 73 | 1017.1 |
| 20260830180557 | 82 | 226 | 0.0 | 0.0 | 0.00 | 0.00 | 0.00 | 73 | 1017.1 |
| 20260830180522 | 82 | 227 | 0.0 | 0.0 | 0.00 | 0.00 | 0.00 | 74 | 1016.9 |
| 20260830180456 | 82 | 227 | 0.0 | 0.0 | 0.00 | 0.00 | 0.00 | 74 | 1017.0 |
| 20260830180354 | 82 | 229 | 0.0 | 0.0 | 0.00 | 0.00 | 0.00 | 74 | 1016.9 |
| 20260830180313 | 82 | 231 | 0.0 | 0.0 | 0.00 | 0.00 | 0.00 | 74 | 1017.2 |
| 20260830180304 | 82 | 231 | 0.0 | 0.0 | 0.00 | 0.00 | 0.00 | 74 | 1017.0 |
| 20260830180053 | 82 | 231 | 0.0 | 0.0 | 0.00 | 0.00 | 0.00 | 73 | 1017.3 |
| 20260830180022 | 82 | 227 | 0.0 | 0.0 | 0.00 | 0.00 | 0.00 | 73 | 1017.2 |
| 20260830180006 | 82 | 232 | 0.0 | 0.0 | 0.00 | 0.00 | 0.00 | 74 | 1017.4 |
| 20260830175952 | 82 | 227 | 0.0 | 0.0 | 0.00 | 0.00 | 0.00 | 73 | 1017.3 |
| 20260830175900 | 82 | 277 | 0.0 | 0.0 | 0.00 | 0.00 | 0.00 | 74 | 1017.4 |
| 20260830175851 | 82 | 232 | 0.0 | 0.0 | 0.00 | 0.00 | 0.00 | 74 | 1017.4 |
| 20260830175704 | 82 | 248 | 0.0 | 0.0 | 0.00 | 0.00 | 0.00 | 74 | 1017.2 |
| 20260830175658 | 82 | 232 | 0.0 | 0.0 | 0.00 | 0.00 | 0.00 | 74 | 1017.3 |
| 20260830175538 | 82 | 257 | 0.0 | 0.0 | 0.00 | 0.00 | 0.00 | 73 | 1017.2 |
| 20260830175449 | 82 | 257 | 0.0 | 0.0 | 0.00 | 0.00 | 0.00 | 74 | 1017.3 |
| 20260830175348 | 81 | 223 | 0.0 | 0.0 | 0.00 | 0.00 | 0.00 | 74 | 1017.3 |
| 20260830175247 | 81 | 223 | 0.0 | 0.0 | 0.00 | 0.00 | 0.00 | 75 | 1017.2 |
| 20260830175146 | 81 | 240 | 0.0 | 0.0 | 0.00 | 0.00 | 0.00 | 75 | 1017.3 |
| 20260830175046 | 81 | 243 | 0.0 | 0.0 | 0.00 | 0.00 | 0.00 | 76 | 1017.2 |
| 20260830175023 | 81 | 240 | 0.0 | 0.0 | 0.00 | 0.00 | 0.00 | 75 | 1017.1 |
| 20260830174946 | 81 | 240 | 0.0 | 0.0 | 0.00 | 0.00 | 0.00 | 75 | 1017.2 |
| 20260830174846 | 81 | 246 | 0.0 | 0.0 | 0.00 | 0.00 | 0.00 | 76 | 1017.2 |
| 20260830174806 | 81 | 246 | 0.0 | 0.0 | 0.00 | 0.00 | 0.00 | 76 | 1017.4 |
| 20260830174756 | 81 | 246 | 0.0 | 0.0 | 0.00 | 0.00 | 0.00 | 76 | 1017.3 |
| 20260830174634 | 80 | 232 | 0.0 | 0.0 | 0.00 | 0.00 | 0.00 | 78 | 1017.5 |
| 20260830174546 | 81 | 246 | 0.0 | 0.0 | 0.00 | 0.00 | 0.00 | 75 | 1017.5 |
| 20260830174542 | 80 | 232 | 0.0 | 0.0 | 0.00 | 0.00 | 0.00 | 78 | 1017.5 |
| 20260830174538 | 80 | 232 | 0.0 | 0.0 | 0.00 | 0.00 | 0.00 | 77 | 1017.5 |
| 20260830174532 | 80 | 232 | 0.0 | 0.0 | 0.00 | 0.00 | 0.00 | 77 | 1017.4 |
| 20260830174525 | 80 | 246 | 0.0 | 0.0 | 0.00 | 0.00 | 0.00 | 76 | 1017.4 |
| 20260830174523 | 81 | 246 | 0.0 | 0.0 | 0.00 | 0.00 | 0.00 | 76 | 1017.3 |
| 20260830174515 | 80 | 246 | 0.0 | 0.0 | 0.00 | 0.00 | 0.00 | 78 | 1017.4 |
| 20260830174023 | 80 | 242 | 0.0 | 0.0 | 0.00 | 0.00 | 0.00 | 77 | 1017.1 |
| 20260830173942 | 80 | 230 | 0.0 | 0.0 | 0.00 | 0.00 | 0.00 | 77 | 1017.3 |
| 20260830173842 | 80 | 227 | 0.0 | 0.0 | 0.00 | 0.00 | 0.00 | 77 | 1017.3 |
| 20260830173742 | 80 | 227 | 0.0 | 0.0 | 0.00 | 0.00 | 0.00 | 78 | 1017.2 |
| 20260830173640 | 80 | 227 | 0.0 | 0.0 | 0.00 | 0.00 | 0.00 | 78 | 1017.3 |
| 20260830173606 | 80 | 227 | 0.0 | 0.0 | 0.00 | 0.00 | 0.00 | 77 | 1017.6 |
| 20260830173602 | 80 | 226 | 0.0 | 0.0 | 0.00 | 0.00 | 0.00 | 77 | 1017.6 |
| 20260830173557 | 80 | 227 | 0.0 | 0.0 | 0.00 | 0.00 | 0.00 | 77 | 1017.4 |
| 20260830173523 | 80 | 227 | 0.0 | 0.0 | 0.00 | 0.00 | 0.00 | 77 | 1017.5 |
| 20260830173238 | 80 | 229 | 0.0 | 0.0 | 0.00 | 0.00 | 0.00 | 77 | 1017.6 |
| 20260830173138 | 80 | 229 | 0.0 | 0.0 | 0.00 | 0.00 | 0.00 | 77 | 1017.5 |
| 20260830173038 | 80 | 229 | 0.0 | 0.0 | 0.00 | 0.00 | 0.00 | 77 | 1017.5 |
| 20260830173023 | 80 | 229 | 0.0 | 0.0 | 0.00 | 0.00 | 0.00 | 77 | 1017.5 |
| 20260830172935 | 80 | 229 | 0.0 | 0.0 | 0.00 | 0.00 | 0.00 | 77 | 1017.6 |
| 20260830172833 | 80 | 229 | 0.0 | 0.0 | 0.00 | 0.00 | 0.00 | 77 | 1017.6 |
| 20260830172733 | 80 | 229 | 0.0 | 0.0 | 0.00 | 0.00 | 0.00 | 76 | 1017.7 |
| 20260830172647 | 80 | 239 | 0.0 | 0.0 | 0.00 | 0.00 | 0.00 | 76 | 1017.8 |
| 20260830172641 | 80 | 239 | 0.0 | 0.0 | 0.00 | 0.00 | 0.00 | 76 | 1017.8 |
| 20260830172538 | 80 | 239 | 0.0 | 0.0 | 0.00 | 0.00 | 0.00 | 76 | 1017.7 |
| 20260830172432 | 80 | 239 | 0.0 | 0.0 | 0.00 | 0.00 | 0.00 | 76 | 1017.8 |
| 20260830172331 | 80 | 239 | 0.0 | 0.0 | 0.00 | 0.00 | 0.00 | 76 | 1017.8 |
| 20260830172230 | 80 | 239 | 0.0 | 0.0 | 0.00 | 0.00 | 0.00 | 76 | 1017.8 |
| 20260830172130 | 80 | 239 | 0.0 | 0.0 | 0.00 | 0.00 | 0.00 | 75 | 1017.8 |
| 20260830172047 | 80 | 195 | 0.0 | 0.0 | 0.00 | 0.00 | 0.00 | 75 | 1017.9 |
| 20260830172043 | 80 | 186 | 0.0 | 0.0 | 0.00 | 0.00 | 0.00 | 76 | 1017.9 |
| 20260830172038 | 80 | 239 | 0.0 | 0.0 | 0.00 | 0.00 | 0.00 | 75 | 1017.7 |
| 20260830172023 | 80 | 239 | 0.0 | 0.0 | 0.00 | 0.00 | 0.00 | 75 | 1017.7 |
| 20260830171854 | 80 | 209 | 0.0 | 0.0 | 0.00 | 0.00 | 0.00 | 75 | 1017.9 |
| 20260830171727 | 80 | 186 | 0.0 | 0.0 | 0.00 | 0.00 | 0.00 | 76 | 1017.9 |
| 20260830171627 | 80 | 186 | 0.0 | 0.0 | 0.00 | 0.00 | 0.00 | 76 | 1017.8 |
| 20260830171541 | 80 | 306 | 0.0 | 0.0 | 0.00 | 0.00 | 0.00 | 76 | 1017.6 |
| 20260830171535 | 80 | 185 | 0.0 | 0.0 | 0.00 | 0.00 | 0.00 | 76 | 1017.6 |
| 20260830171523 | 80 | 244 | 0.0 | 0.0 | 0.00 | 0.00 | 0.00 | 76 | 1017.5 |
| 20260830171326 | 80 | 161 | 0.0 | 0.0 | 0.00 | 0.00 | 0.00 | 76 | 1017.7 |
| 20260830171245 | 80 | 161 | 0.0 | 0.0 | 0.00 | 0.00 | 0.00 | 77 | 1017.7 |
| 20260830171225 | 80 | 98 | 0.0 | 0.0 | 0.00 | 0.00 | 0.00 | 77 | 1017.7 |
| 20260830171204 | 80 | 202 | 0.0 | 0.0 | 0.00 | 0.00 | 0.00 | 77 | 1017.5 |
| 20260830171156 | 80 | 94 | 0.0 | 0.0 | 0.00 | 0.00 | 0.00 | 77 | 1017.6 |
| 20260830171023 | 80 | 198 | 0.0 | 0.0 | 0.00 | 0.00 | 0.00 | 77 | 1017.3 |
| 20260830170933 | 80 | 169 | 0.0 | 0.0 | 0.00 | 0.00 | 0.00 | 77 | 1017.4 |
| 20260830170744 | 80 | 168 | 0.0 | 0.0 | 0.00 | 0.00 | 0.00 | 76 | 1017.3 |
| 20260830170723 | 80 | 167 | 0.0 | 0.0 | 0.00 | 0.00 | 0.00 | 76 | 1017.3 |
| 20260830170622 | 80 | 240 | 0.0 | 0.0 | 0.00 | 0.00 | 0.00 | 76 | 1017.3 |
| 20260830170523 | 80 | 222 | 0.0 | 0.0 | 0.00 | 0.00 | 0.00 | 77 | 1017.4 |
| 20260830170521 | 80 | 222 | 0.0 | 0.0 | 0.00 | 0.00 | 0.00 | 77 | 1017.4 |
| 20260830170422 | 79 | 222 | 0.0 | 0.0 | 0.00 | 0.00 | 0.00 | 77 | 1017.5 |
| 20260830170321 | 79 | 222 | 0.0 | 0.0 | 0.00 | 0.00 | 0.00 | 77 | 1017.6 |
| 20260830170221 | 79 | 222 | 0.0 | 0.0 | 0.00 | 0.00 | 0.00 | 77 | 1017.7 |
| 20260830170121 | 79 | 225 | 0.0 | 0.0 | 0.00 | 0.00 | 0.00 | 77 | 1017.7 |
| 20260830170023 | 79 | 227 | 0.0 | 0.0 | 0.00 | 0.00 | 0.00 | 77 | 1017.4 |
| 20260830170020 | 79 | 227 | 0.0 | 0.0 | 0.00 | 0.00 | 0.00 | 77 | 1017.5 |
| 20260830165919 | 80 | 229 | 0.0 | 0.0 | 0.00 | 0.00 | 0.00 | 77 | 1017.5 |
| 20260830165817 | 80 | 229 | 0.0 | 0.0 | 0.00 | 0.00 | 0.00 | 77 | 1017.5 |
| 20260830165717 | 80 | 229 | 0.0 | 0.0 | 0.00 | 0.00 | 0.00 | 77 | 1017.5 |
| 20260830165617 | 80 | 229 | 0.0 | 0.0 | 0.00 | 0.00 | 0.00 | 76 | 1017.8 |
| 20260830165553 | 80 | 229 | 0.0 | 0.0 | 0.00 | 0.00 | 0.00 | 76 | 1018.0 |
| 20260830165516 | 80 | 229 | 0.0 | 0.0 | 0.00 | 0.00 | 0.00 | 76 | 1018.0 |
| 20260830165459 | 80 | 229 | 0.0 | 0.0 | 0.00 | 0.00 | 0.00 | 76 | 1018.3 |
| 20260830165415 | 80 | 229 | 0.0 | 0.0 | 0.00 | 0.00 | 0.00 | 76 | 1018.0 |
| 20260830165350 | 80 | 229 | 0.0 | 0.0 | 0.00 | 0.00 | 0.00 | 76 | 1018.1 |
| 20260830165215 | 80 | 228 | 0.0 | 0.0 | 0.00 | 0.00 | 0.00 | 75 | 1018.3 |
| 20260830165114 | 80 | 228 | 0.0 | 0.0 | 0.00 | 0.00 | 0.00 | 75 | 1018.2 |
| 20260830165026 | 80 | 235 | 0.0 | 0.0 | 0.00 | 0.00 | 0.00 | 75 | 1018.2 |
| 20260830165023 | 80 | 235 | 0.0 | 0.0 | 0.00 | 0.00 | 0.00 | 75 | 1018.2 |
| 20260830165020 | 80 | 235 | 0.0 | 0.0 | 0.00 | 0.00 | 0.00 | 75 | 1018.2 |
| 20260830164811 | 80 | 240 | 0.0 | 0.0 | 0.00 | 0.00 | 0.00 | 76 | 1018.1 |
| 20260830164741 | 80 | 219 | 0.0 | 0.0 | 0.00 | 0.00 | 0.00 | 76 | 1018.2 |
| 20260830164711 | 80 | 173 | 0.0 | 0.0 | 0.00 | 0.00 | 0.00 | 76 | 1018.2 |
| 20260830164610 | 80 | 173 | 0.0 | 0.0 | 0.00 | 0.00 | 0.00 | 75 | 1018.2 |
| 20260830164523 | 80 | 173 | 0.0 | 0.0 | 0.00 | 0.00 | 0.00 | 75 | 1018.1 |
| 20260830164510 | 80 | 173 | 0.0 | 0.0 | 0.00 | 0.00 | 0.00 | 75 | 1018.1 |
| 20260830164410 | 80 | 173 | 0.0 | 0.0 | 0.00 | 0.00 | 0.00 | 75 | 1018.1 |
| 20260830164309 | 80 | 172 | 0.0 | 0.0 | 0.00 | 0.00 | 0.00 | 75 | 1018.1 |
| 20260830164239 | 80 | 180 | 0.0 | 0.0 | 0.00 | 0.00 | 0.00 | 75 | 1017.9 |
| 20260830164208 | 80 | 215 | 0.0 | 0.0 | 0.00 | 0.00 | 0.00 | 75 | 1017.9 |
| 20260830164121 | 80 | 157 | 0.0 | 0.0 | 0.00 | 0.00 | 0.00 | 76 | 1017.8 |
| 20260830164116 | 80 | 215 | 0.0 | 0.0 | 0.00 | 0.00 | 0.00 | 75 | 1017.9 |
| 20260830164023 | 80 | 148 | 0.0 | 0.0 | 0.00 | 0.00 | 0.00 | 76 | 1017.8 |
| 20260830163907 | 80 | 237 | 0.0 | 0.0 | 0.00 | 0.00 | 0.00 | 76 | 1017.8 |
| 20260830163806 | 80 | 238 | 0.0 | 0.0 | 0.00 | 0.00 | 0.00 | 76 | 1017.7 |
| 20260830163741 | 80 | 223 | 0.0 | 0.0 | 0.00 | 0.00 | 0.00 | 76 | 1017.4 |
| 20260830163707 | 80 | 289 | 0.0 | 0.0 | 0.00 | 0.00 | 0.00 | 76 | 1017.4 |
| 20260830163605 | 79 | 258 | 0.0 | 0.0 | 0.00 | 0.00 | 0.00 | 76 | 1017.3 |
| 20260830163523 | 79 | 185 | 0.0 | 0.0 | 0.00 | 0.00 | 0.00 | 76 | 1017.4 |
| 20260830163504 | 79 | 185 | 0.0 | 0.0 | 0.00 | 0.00 | 0.00 | 76 | 1017.4 |
| 20260830163418 | 79 | 192 | 0.0 | 0.0 | 0.00 | 0.00 | 0.00 | 76 | 1017.6 |
| 20260830163413 | 79 | 185 | 0.0 | 0.0 | 0.00 | 0.00 | 0.00 | 76 | 1017.6 |
| 20260830163238 | 79 | 227 | 0.0 | 0.0 | 0.00 | 0.00 | 0.00 | 76 | 1017.6 |
| 20260830163203 | 79 | 221 | 0.0 | 0.0 | 0.00 | 0.00 | 0.00 | 76 | 1017.7 |
| 20260830163103 | 79 | 221 | 0.0 | 0.0 | 0.00 | 0.00 | 0.00 | 76 | 1017.7 |
| 20260830163038 | 79 | 221 | 0.0 | 0.0 | 0.00 | 0.00 | 0.00 | 76 | 1018.0 |
| 20260830163015 | 79 | 183 | 0.0 | 0.0 | 0.00 | 0.00 | 0.00 | 77 | 1018.1 |
| 20260830163010 | 79 | 221 | 0.0 | 0.0 | 0.00 | 0.00 | 0.00 | 76 | 1018.1 |
| 20260830162800 | 79 | 277 | 0.0 | 0.0 | 0.00 | 0.00 | 0.00 | 78 | 1018.1 |
| 20260830162738 | 79 | 251 | 0.0 | 0.0 | 0.00 | 0.00 | 0.00 | 78 | 1018.1 |
| 20260830162700 | 79 | 254 | 0.0 | 0.0 | 0.00 | 0.00 | 0.00 | 78 | 1017.9 |
| 20260830162600 | 79 | 256 | 0.0 | 0.0 | 0.00 | 0.00 | 0.00 | 78 | 1017.8 |
| 20260830162523 | 79 | 184 | 0.0 | 0.0 | 0.00 | 0.00 | 0.00 | 79 | 1017.7 |
| 20260830162459 | 78 | 184 | 0.0 | 0.0 | 0.00 | 0.00 | 0.00 | 79 | 1017.8 |
| 20260830162359 | 78 | 182 | 0.0 | 0.0 | 0.00 | 0.00 | 0.00 | 79 | 1017.7 |
| 20260830162257 | 78 | 182 | 0.0 | 0.0 | 0.00 | 0.00 | 0.00 | 79 | 1017.6 |
| 20260830162235 | 78 | 180 | 0.0 | 0.0 | 0.00 | 0.00 | 0.00 | 79 | 1017.6 |
| 20260830162156 | 78 | 180 | 0.0 | 0.0 | 0.00 | 0.00 | 0.00 | 79 | 1017.5 |
| 20260830162114 | 78 | 180 | 0.0 | 0.0 | 0.00 | 0.00 | 0.00 | 78 | 1017.5 |
| 20260830162110 | 78 | 182 | 0.0 | 0.0 | 0.00 | 0.00 | 0.00 | 78 | 1018.1 |
| 20260830162104 | 78 | 180 | 0.0 | 0.0 | 0.00 | 0.00 | 0.00 | 78 | 1017.4 |
| 20260830162023 | 78 | 180 | 0.0 | 0.0 | 0.00 | 0.00 | 0.00 | 78 | 1017.4 |
| 20260830161855 | 78 | 181 | 0.0 | 0.0 | 0.00 | 0.00 | 0.00 | 78 | 1017.8 |
| 20260830161840 | 78 | 182 | 0.0 | 0.0 | 0.00 | 0.00 | 0.00 | 78 | 1018.1 |
| 20260830161654 | 78 | 182 | 0.0 | 0.0 | 0.00 | 0.00 | 0.00 | 78 | 1018.0 |
| 20260830161553 | 78 | 182 | 0.0 | 0.0 | 0.00 | 0.00 | 0.00 | 78 | 1018.2 |
| 20260830161523 | 78 | 182 | 0.0 | 0.0 | 0.00 | 0.00 | 0.00 | 78 | 1018.1 |
| 20260830161451 | 78 | 182 | 0.0 | 0.0 | 0.00 | 0.00 | 0.00 | 78 | 1018.2 |
| 20260830161351 | 78 | 194 | 0.0 | 0.0 | 0.00 | 0.00 | 0.00 | 78 | 1018.3 |
| 20260830161310 | 78 | 226 | 0.0 | 0.0 | 0.00 | 0.00 | 0.00 | 78 | 1018.3 |
| 20260830161304 | 78 | 194 | 0.0 | 0.0 | 0.00 | 0.00 | 0.00 | 78 | 1018.3 |
| 20260830161259 | 78 | 226 | 0.0 | 0.0 | 0.00 | 0.00 | 0.00 | 78 | 1018.3 |
| 20260830161049 | 78 | 226 | 0.0 | 0.0 | 0.00 | 0.00 | 0.00 | 78 | 1018.4 |
| 20260830161023 | 78 | 225 | 0.0 | 0.0 | 0.00 | 0.00 | 0.00 | 78 | 1018.2 |
| 20260830161002 | 78 | 226 | 0.0 | 0.0 | 0.00 | 0.00 | 0.00 | 78 | 1018.4 |
| 20260830160957 | 78 | 226 | 0.0 | 0.0 | 0.00 | 0.00 | 0.00 | 77 | 1018.3 |
| 20260830160747 | 78 | 226 | 0.0 | 0.0 | 0.00 | 0.00 | 0.00 | 78 | 1018.3 |
| 20260830160733 | 78 | 226 | 0.0 | 0.0 | 0.00 | 0.00 | 0.00 | 78 | 1018.3 |
| 20260830160647 | 78 | 226 | 0.0 | 0.0 | 0.00 | 0.00 | 0.00 | 78 | 1018.3 |
| 20260830160546 | 78 | 234 | 0.0 | 0.0 | 0.00 | 0.00 | 0.00 | 77 | 1018.3 |
| 20260830160523 | 78 | 234 | 0.0 | 0.0 | 0.00 | 0.00 | 0.00 | 78 | 1018.2 |
| 20260830160456 | 78 | 234 | 0.0 | 0.0 | 0.00 | 0.00 | 0.00 | 78 | 1018.4 |
| 20260830160446 | 78 | 234 | 0.0 | 0.0 | 0.00 | 0.00 | 0.00 | 78 | 1018.3 |
| 20260830160348 | 78 | 234 | 0.0 | 0.0 | 0.00 | 0.00 | 0.00 | 77 | 1018.4 |
| 20260830160339 | 78 | 234 | 0.0 | 0.0 | 0.00 | 0.00 | 0.00 | 78 | 1018.4 |
| 20260830160145 | 78 | 233 | 0.0 | 0.0 | 0.00 | 0.00 | 0.00 | 78 | 1018.5 |
| 20260830160044 | 78 | 234 | 0.0 | 0.0 | 0.00 | 0.00 | 0.00 | 78 | 1018.4 |
| 20260830160023 | 78 | 234 | 0.0 | 0.0 | 0.00 | 0.00 | 0.00 | 78 | 1018.4 |
| 20260830155944 | 78 | 234 | 0.0 | 0.0 | 0.00 | 0.00 | 0.00 | 78 | 1018.5 |
| 20260830155843 | 78 | 233 | 0.0 | 0.0 | 0.00 | 0.00 | 0.00 | 78 | 1018.5 |
| 20260830155733 | 78 | 223 | 0.0 | 0.0 | 0.00 | 0.00 | 0.00 | 78 | 1018.5 |
| 20260830155643 | 78 | 223 | 0.0 | 0.0 | 0.00 | 0.00 | 0.00 | 78 | 1018.4 |
| 20260830155542 | 78 | 224 | 0.0 | 0.0 | 0.00 | 0.00 | 0.00 | 77 | 1018.3 |
| 20260830155523 | 78 | 224 | 0.0 | 0.0 | 0.00 | 0.00 | 0.00 | 77 | 1018.2 |
| 20260830155441 | 78 | 224 | 0.0 | 0.0 | 0.00 | 0.00 | 0.00 | 77 | 1018.3 |
| 20260830155341 | 78 | 230 | 0.0 | 0.0 | 0.00 | 0.00 | 0.00 | 77 | 1018.3 |
| 20260830155234 | 78 | 208 | 0.0 | 0.0 | 0.00 | 0.00 | 0.00 | 77 | 1018.4 |
| 20260830155155 | 78 | 208 | 0.0 | 0.0 | 0.00 | 0.00 | 0.00 | 78 | 1018.6 |
| 20260830155151 | 78 | 208 | 0.0 | 0.0 | 0.00 | 0.00 | 0.00 | 78 | 1018.6 |
| 20260830155023 | 78 | 208 | 0.0 | 0.0 | 0.00 | 0.00 | 0.00 | 77 | 1018.5 |
| 20260830154942 | 78 | 208 | 0.0 | 0.0 | 0.00 | 0.00 | 0.00 | 77 | 1018.6 |
| 20260830154841 | 78 | 184 | 0.0 | 0.0 | 0.00 | 0.00 | 0.00 | 78 | 1018.6 |
| 20260830154741 | 78 | 210 | 0.0 | 0.0 | 0.00 | 0.00 | 0.00 | 78 | 1018.6 |
| 20260830154730 | 78 | 266 | 0.0 | 0.0 | 0.00 | 0.00 | 0.00 | 78 | 1018.6 |
| 20260830154640 | 78 | 220 | 0.0 | 0.0 | 0.00 | 0.00 | 0.00 | 78 | 1018.6 |
| 20260830154553 | 78 | 219 | 0.0 | 0.0 | 0.00 | 0.00 | 0.00 | 78 | 1018.7 |
| 20260830154549 | 78 | 219 | 0.0 | 0.0 | 0.00 | 0.00 | 0.00 | 77 | 1018.6 |
| 20260830154538 | 78 | 219 | 0.0 | 0.0 | 0.00 | 0.00 | 0.00 | 78 | 1018.6 |
| 20260830154339 | 78 | 219 | 0.0 | 0.0 | 0.00 | 0.00 | 0.00 | 78 | 1018.6 |
| 20260830154239 | 78 | 219 | 0.0 | 0.0 | 0.00 | 0.00 | 0.00 | 77 | 1018.6 |
| 20260830154231 | 78 | 232 | 0.0 | 0.0 | 0.00 | 0.00 | 0.00 | 78 | 1018.6 |
| 20260830154138 | 78 | 221 | 0.0 | 0.0 | 0.00 | 0.00 | 0.00 | 77 | 1018.7 |
| 20260830154038 | 78 | 221 | 0.0 | 0.0 | 0.00 | 0.00 | 0.00 | 78 | 1018.7 |
| 20260830153937 | 78 | 263 | 0.0 | 0.0 | 0.00 | 0.00 | 0.00 | 78 | 1018.8 |
| 20260830153836 | 78 | 263 | 0.0 | 0.0 | 0.00 | 0.00 | 0.00 | 78 | 1018.7 |
| 20260830153810 | 78 | 268 | 0.0 | 0.0 | 0.00 | 0.00 | 0.00 | 78 | 1018.7 |
| 20260830153804 | 78 | 268 | 0.0 | 0.0 | 0.00 | 0.00 | 0.00 | 77 | 1018.7 |
| 20260830153754 | 78 | 268 | 0.0 | 0.0 | 0.00 | 0.00 | 0.00 | 78 | 1018.6 |
| 20260830153538 | 78 | 268 | 0.0 | 0.0 | 0.00 | 0.00 | 0.00 | 77 | 1018.4 |
| 20260830153436 | 78 | 269 | 0.0 | 0.0 | 0.00 | 0.00 | 0.00 | 77 | 1018.5 |
| 20260830153335 | 78 | 269 | 0.0 | 0.0 | 0.00 | 0.00 | 0.00 | 77 | 1018.5 |
| 20260830153255 | 78 | 181 | 0.0 | 0.0 | 0.00 | 0.00 | 0.00 | 77 | 1018.7 |
| 20260830153141 | 78 | 178 | 0.0 | 0.0 | 0.00 | 0.00 | 0.00 | 77 | 1018.7 |
| 20260830153023 | 78 | 192 | 0.0 | 0.0 | 0.00 | 0.00 | 0.00 | 78 | 1018.5 |
| 20260830152931 | 78 | 240 | 0.0 | 0.0 | 0.00 | 0.00 | 0.00 | 78 | 1018.6 |
| 20260830152844 | 78 | 246 | 0.0 | 0.0 | 0.00 | 0.00 | 0.00 | 78 | 1018.7 |
| 20260830152840 | 78 | 246 | 0.0 | 0.0 | 0.00 | 0.00 | 0.00 | 78 | 1018.7 |
| 20260830152725 | 78 | 246 | 0.0 | 0.0 | 0.00 | 0.00 | 0.00 | 78 | 1018.7 |
| 20260830152629 | 78 | 246 | 0.0 | 0.0 | 0.00 | 0.00 | 0.00 | 78 | 1018.6 |
| 20260830152529 | 78 | 246 | 0.0 | 0.0 | 0.00 | 0.00 | 0.00 | 78 | 1018.7 |
| 20260830152524 | 78 | 246 | 0.0 | 0.0 | 0.00 | 0.00 | 0.00 | 78 | 1018.6 |
| 20260830152428 | 78 | 246 | 0.0 | 0.0 | 0.00 | 0.00 | 0.00 | 78 | 1018.7 |
| 20260830152328 | 78 | 246 | 0.0 | 0.0 | 0.00 | 0.00 | 0.00 | 78 | 1018.7 |
| 20260830152225 | 78 | 246 | 0.0 | 0.0 | 0.00 | 0.00 | 0.00 | 78 | 1018.7 |
| 20260830152126 | 78 | 246 | 0.0 | 0.0 | 0.00 | 0.00 | 0.00 | 78 | 1018.7 |
| 20260830152039 | 78 | 254 | 0.0 | 0.0 | 0.00 | 0.00 | 0.00 | 78 | 1018.6 |
| 20260830152035 | 78 | 254 | 0.0 | 0.0 | 0.00 | 0.00 | 0.00 | 78 | 1018.6 |
| 20260830151851 | 78 | 261 | 0.0 | 0.0 | 0.00 | 0.00 | 0.00 | 78 | 1018.2 |
| 20260830151846 | 78 | 254 | 0.0 | 0.0 | 0.00 | 0.00 | 0.00 | 78 | 1018.6 |
| 20260830151838 | 78 | 254 | 0.0 | 0.0 | 0.00 | 0.00 | 0.00 | 78 | 1018.5 |
| 20260830151540 | 78 | 260 | 0.0 | 0.0 | 0.00 | 0.00 | 0.00 | 78 | 1018.8 |
| 20260830151536 | 78 | 274 | 0.0 | 0.0 | 0.00 | 0.00 | 0.00 | 78 | 1018.9 |
| 20260830151531 | 78 | 261 | 0.0 | 0.0 | 0.00 | 0.00 | 0.00 | 78 | 1018.8 |
| 20260830151523 | 78 | 260 | 0.0 | 0.0 | 0.00 | 0.00 | 0.00 | 77 | 1018.7 |
| 20260830151332 | 78 | 274 | 0.0 | 0.0 | 0.00 | 0.00 | 0.00 | 78 | 1018.9 |
| 20260830151218 | 78 | 274 | 0.0 | 0.0 | 0.00 | 0.00 | 0.00 | 78 | 1018.9 |
| 20260830151117 | 78 | 275 | 0.0 | 0.0 | 0.00 | 0.00 | 0.00 | 78 | 1018.8 |
| 20260830151023 | 78 | 276 | 0.0 | 0.0 | 0.00 | 0.00 | 0.00 | 78 | 1018.3 |
| 20260830151020 | 78 | 276 | 0.0 | 0.0 | 0.00 | 0.00 | 0.00 | 77 | 1018.6 |
| 20260830150918 | 78 | 284 | 0.0 | 0.0 | 0.00 | 0.00 | 0.00 | 78 | 1018.4 |
| 20260830150831 | 78 | 165 | 0.0 | 0.0 | 0.00 | 0.00 | 0.00 | 78 | 1018.6 |
| 20260830150822 | 78 | 165 | 0.0 | 0.0 | 0.00 | 0.00 | 0.00 | 78 | 1018.5 |
| 20260830150617 | 78 | 163 | 0.0 | 0.0 | 0.00 | 0.00 | 0.00 | 77 | 1018.4 |
| 20260830150523 | 78 | 163 | 0.0 | 0.0 | 0.00 | 0.00 | 0.00 | 77 | 1018.4 |
| 20260830150515 | 78 | 163 | 0.0 | 0.0 | 0.00 | 0.00 | 0.00 | 77 | 1018.3 |
| 20260830150414 | 78 | 163 | 0.0 | 0.0 | 0.00 | 0.00 | 0.00 | 77 | 1018.5 |
| 20260830150314 | 78 | 155 | 0.0 | 0.0 | 0.00 | 0.00 | 0.00 | 78 | 1018.5 |
| 20260830150221 | 78 | 180 | 0.0 | 0.0 | 0.00 | 0.00 | 0.00 | 77 | 1018.4 |
| 20260830150213 | 78 | 205 | 0.0 | 0.0 | 0.00 | 0.00 | 0.00 | 77 | 1018.4 |
| 20260830150113 | 78 | 274 | 0.0 | 0.0 | 0.00 | 0.00 | 0.00 | 78 | 1018.3 |
| 20260830150023 | 78 | 291 | 0.0 | 0.0 | 0.00 | 0.00 | 0.00 | 78 | 1018.2 |
| 20260830150009 | 78 | 291 | 0.0 | 0.0 | 0.00 | 0.00 | 0.00 | 78 | 1018.1 |
| 20260830145911 | 78 | 292 | 0.0 | 0.0 | 0.00 | 0.00 | 0.00 | 77 | 1018.3 |
| 20260830145827 | 78 | 327 | 0.0 | 0.0 | 0.00 | 0.00 | 0.00 | 79 | 1018.3 |
| 20260830145823 | 78 | 235 | 0.0 | 0.0 | 0.00 | 0.00 | 0.00 | 78 | 1018.3 |
| 20260830145814 | 78 | 321 | 0.0 | 0.0 | 0.00 | 0.00 | 0.00 | 79 | 1018.3 |
| 20260830145609 | 78 | 191 | 0.0 | 0.0 | 0.00 | 0.00 | 0.00 | 80 | 1018.3 |
| 20260830145523 | 77 | 196 | 0.0 | 0.0 | 0.00 | 0.00 | 0.00 | 80 | 1013.6 |
| 20260830145508 | 77 | 195 | 0.0 | 0.0 | 0.00 | 0.00 | 0.00 | 80 | 1013.7 |
| 20260830145408 | 77 | 196 | 0.0 | 0.0 | 0.00 | 0.00 | 0.00 | 80 | 1013.7 |
| 20260830145321 | 77 | 221 | 0.0 | 0.0 | 0.00 | 0.00 | 0.00 | 81 | 1013.7 |
| 20260830145312 | 77 | 221 | 0.0 | 0.0 | 0.00 | 0.00 | 0.00 | 80 | 1013.7 |
| 20260830145107 | 76 | 221 | 0.0 | 0.0 | 0.00 | 0.00 | 0.00 | 81 | 1013.7 |
| 20260830145038 | 76 | 232 | 0.0 | 0.0 | 0.00 | 0.00 | 0.00 | 82 | 1013.6 |
| 20260830145006 | 76 | 223 | 0.0 | 0.0 | 0.00 | 0.00 | 0.00 | 82 | 1013.7 |
| 20260830144947 | 76 | 217 | 0.0 | 0.0 | 0.00 | 0.00 | 0.00 | 84 | 1013.7 |
| 20260830144906 | 76 | 217 | 0.0 | 0.0 | 0.00 | 0.00 | 0.00 | 82 | 1013.7 |
| 20260830144828 | 76 | 217 | 0.0 | 0.0 | 0.00 | 0.00 | 0.00 | 83 | 1013.7 |
| 20260830144704 | 76 | 190 | 0.0 | 0.0 | 0.00 | 0.00 | 0.00 | 84 | 1013.7 |
| 20260830144604 | 75 | 211 | 0.0 | 0.0 | 0.00 | 0.00 | 0.00 | 84 | 1013.6 |
| 20260830144523 | 75 | 211 | 0.0 | 0.0 | 0.00 | 0.00 | 0.00 | 83 | 1013.5 |
| 20260830144503 | 75 | 211 | 0.0 | 0.0 | 0.00 | 0.00 | 0.00 | 83 | 1013.6 |
| 20260830144403 | 75 | 233 | 0.0 | 0.0 | 0.00 | 0.00 | 0.00 | 83 | 1013.8 |
| 20260830144303 | 75 | 197 | 0.0 | 0.0 | 0.00 | 0.00 | 0.00 | 83 | 1013.7 |
| 20260830144221 | 75 | 173 | 0.0 | 0.0 | 0.00 | 0.00 | 0.00 | 83 | 1013.7 |
| 20260830144216 | 74 | 177 | 0.0 | 0.0 | 0.00 | 0.00 | 0.00 | 84 | 1013.7 |
| 20260830144212 | 74 | 173 | 0.0 | 0.0 | 0.00 | 0.00 | 0.00 | 83 | 1013.9 |
| 20260830144024 | 74 | 172 | 0.0 | 0.0 | 0.00 | 0.00 | 0.00 | 84 | 1013.8 |
| 20260830144000 | 74 | 172 | 0.0 | 0.0 | 0.00 | 0.00 | 0.00 | 84 | 1013.9 |
| 20260830143900 | 74 | 161 | 0.0 | 0.0 | 0.00 | 0.00 | 0.00 | 84 | 1014.0 |
| 20260830143800 | 74 | 195 | 0.0 | 0.0 | 0.00 | 0.00 | 0.00 | 84 | 1018.1 |
| 20260830143718 | 74 | 185 | 0.0 | 0.0 | 0.00 | 0.00 | 0.00 | 84 | 1018.1 |
| 20260830143713 | 74 | 164 | 0.0 | 0.0 | 0.00 | 0.00 | 0.00 | 84 | 1018.1 |
| 20260830143709 | 74 | 185 | 0.0 | 0.0 | 0.00 | 0.00 | 0.00 | 84 | 1018.1 |
| 20260830143523 | 74 | 165 | 0.0 | 0.0 | 0.00 | 0.00 | 0.00 | 84 | 1018.0 |
| 20260830143458 | 74 | 165 | 0.0 | 0.0 | 0.00 | 0.00 | 0.00 | 84 | 1018.1 |
| 20260830143358 | 74 | 176 | 0.0 | 0.0 | 0.00 | 0.00 | 0.00 | 84 | 1018.1 |
| 20260830143257 | 74 | 176 | 0.0 | 0.0 | 0.00 | 0.00 | 0.00 | 84 | 1018.3 |
| 20260830143219 | 74 | 176 | 0.0 | 0.0 | 0.00 | 0.00 | 0.00 | 84 | 1018.3 |
| 20260830143156 | 74 | 159 | 0.0 | 0.0 | 0.00 | 0.00 | 0.00 | 84 | 1018.4 |
| 20260830143055 | 74 | 158 | 0.0 | 0.0 | 0.00 | 0.00 | 0.00 | 84 | 1018.5 |
| 20260830143023 | 73 | 162 | 0.0 | 0.0 | 0.00 | 0.00 | 0.00 | 84 | 1018.5 |
| 20260830142955 | 73 | 145 | 0.0 | 0.0 | 0.00 | 0.00 | 0.00 | 84 | 1018.5 |
| 20260830142938 | 73 | 222 | 0.0 | 0.0 | 0.00 | 0.00 | 0.00 | 84 | 1018.5 |
| 20260830142931 | 73 | 197 | 0.0 | 0.0 | 0.00 | 0.00 | 0.00 | 84 | 1018.5 |
| 20260830142813 | 73 | 178 | 0.0 | 0.0 | 0.00 | 0.00 | 0.00 | 85 | 1018.5 |
| 20260830142704 | 73 | 178 | 0.0 | 0.0 | 0.00 | 0.00 | 0.00 | 85 | 1018.4 |
| 20260830142523 | 73 | 174 | 0.0 | 0.0 | 0.00 | 0.00 | 0.00 | 86 | 1013.9 |
| 20260830142506 | 73 | 175 | 0.0 | 0.0 | 0.00 | 0.00 | 0.00 | 87 | 1014.0 |
| 20260830142502 | 73 | 173 | 0.0 | 0.0 | 0.00 | 0.00 | 0.00 | 86 | 1014.0 |
| 20260830142251 | 72 | 194 | 0.0 | 0.0 | 0.00 | 0.00 | 0.00 | 87 | 1014.0 |
| 20260830142220 | 72 | 156 | 0.0 | 0.0 | 0.00 | 0.00 | 0.00 | 87 | 1014.0 |
| 20260830142206 | 72 | 175 | 0.0 | 0.0 | 0.00 | 0.00 | 0.00 | 87 | 1018.0 |
| 20260830142202 | 72 | 157 | 0.0 | 0.0 | 0.00 | 0.00 | 0.00 | 86 | 1018.0 |
| 20260830142038 | 72 | 163 | 0.0 | 0.0 | 0.00 | 0.00 | 0.00 | 87 | 1018.0 |
| 20260830141950 | 72 | 163 | 0.0 | 0.0 | 0.00 | 0.00 | 0.00 | 87 | 1018.0 |
| 20260830141851 | 72 | 214 | 0.0 | 0.0 | 0.00 | 0.00 | 0.00 | 88 | 1017.7 |
| 20260830141808 | 71 | 209 | 0.0 | 0.0 | 0.00 | 0.00 | 0.00 | 88 | 1014.4 |
| 20260830141804 | 71 | 205 | 0.0 | 0.0 | 0.00 | 0.00 | 0.00 | 88 | 1014.4 |
| 20260830141755 | 71 | 209 | 0.0 | 0.0 | 0.00 | 0.00 | 0.00 | 88 | 1014.4 |
| 20260830141608 | 71 | 187 | 0.0 | 0.0 | 0.00 | 0.00 | 0.00 | 88 | 1018.1 |
| 20260830141550 | 71 | 188 | 0.0 | 0.0 | 0.00 | 0.00 | 0.00 | 88 | 1014.4 |
| 20260830141449 | 71 | 187 | 0.0 | 0.0 | 0.00 | 0.00 | 0.00 | 88 | 1018.1 |
| 20260830141438 | 71 | 169 | 0.0 | 0.0 | 0.00 | 0.00 | 0.00 | 89 | 1017.8 |
| 20260830141348 | 71 | 188 | 0.0 | 0.0 | 0.00 | 0.00 | 0.00 | 88 | 1018.1 |
| 20260830141325 | 71 | 184 | 0.0 | 0.0 | 0.00 | 0.00 | 0.00 | 89 | 1017.8 |
| 20260830141148 | 70 | 178 | 0.0 | 0.0 | 0.00 | 0.00 | 0.00 | 89 | 1017.5 |
| 20260830141046 | 70 | 174 | 0.0 | 0.0 | 0.00 | 0.00 | 0.00 | 89 | 1017.6 |
| 20260830141023 | 70 | 165 | 0.0 | 0.0 | 0.00 | 0.00 | 0.00 | 89 | 1017.8 |
| 20260830140946 | 70 | 165 | 0.0 | 0.0 | 0.00 | 0.00 | 0.00 | 89 | 1017.8 |
| 20260830140846 | 70 | 165 | 0.0 | 0.0 | 0.00 | 0.00 | 0.00 | 90 | 1017.7 |
| 20260830140745 | 70 | 159 | 0.0 | 0.0 | 0.00 | 0.00 | 0.00 | 90 | 1018.3 |
| 20260830140716 | 70 | 176 | 0.0 | 0.0 | 0.00 | 0.00 | 0.00 | 91 | 1018.3 |
| 20260830140646 | 70 | 171 | 0.0 | 0.0 | 0.00 | 0.00 | 0.00 | 91 | 1016.7 |
| 20260830140545 | 70 | 151 | 0.0 | 0.0 | 0.00 | 0.00 | 0.00 | 91 | 1016.7 |
| 20260830140523 | 70 | 173 | 0.0 | 0.0 | 0.00 | 0.00 | 0.00 | 92 | 1018.1 |
| 20260830140457 | 69 | 181 | 0.0 | 0.0 | 0.00 | 0.00 | 0.00 | 92 | 1018.1 |
| 20260830140453 | 69 | 166 | 0.0 | 0.0 | 0.00 | 0.00 | 0.00 | 92 | 1018.1 |
| 20260830140243 | 69 | 211 | 0.0 | 0.0 | 0.00 | 0.00 | 0.00 | 92 | 1018.4 |
| 20260830140215 | 69 | 214 | 0.0 | 0.0 | 0.00 | 0.00 | 0.00 | 92 | 1018.4 |
| 20260830140144 | 69 | 192 | 0.0 | 0.0 | 0.00 | 0.00 | 0.00 | 93 | 1018.3 |
| 20260830140054 | 69 | 169 | 0.0 | 0.0 | 0.00 | 0.00 | 0.00 | 93 | 1018.5 |
| 20260830140050 | 69 | 184 | 0.0 | 0.0 | 0.00 | 0.00 | 0.00 | 93 | 1018.0 |
| 20260830140038 | 69 | 166 | 0.0 | 0.0 | 0.00 | 0.00 | 0.00 | 93 | 1018.5 |
| 20260830135840 | 69 | 174 | 0.0 | 0.0 | 0.00 | 0.00 | 0.00 | 94 | 1018.6 |
| 20260830135739 | 68 | 176 | 0.0 | 0.0 | 0.00 | 0.00 | 0.00 | 94 | 1018.7 |
| 20260830135715 | 68 | 148 | 0.0 | 0.0 | 0.00 | 0.00 | 0.00 | 94 | 1018.7 |
| 20260830135653 | 68 | 140 | 0.0 | 0.0 | 0.00 | 0.00 | 0.00 | 95 | 1019.0 |
| 20260830135647 | 68 | 136 | 0.0 | 0.0 | 0.00 | 0.00 | 0.00 | 94 | 1018.9 |
| 20260830135523 | 68 | 192 | 0.0 | 0.0 | 0.00 | 0.00 | 0.00 | 95 | 1019.0 |
| 20260830135437 | 68 | 154 | 0.0 | 0.0 | 0.00 | 0.00 | 0.00 | 95 | 1019.0 |
| 20260830135349 | 68 | 214 | 0.0 | 0.0 | 0.00 | 0.00 | 0.00 | 96 | 1019.1 |
| 20260830135345 | 68 | 211 | 0.0 | 0.0 | 0.00 | 0.00 | 0.00 | 95 | 1018.9 |
| 20260830135214 | 68 | 171 | 0.0 | 0.0 | 0.00 | 0.00 | 0.00 | 96 | 1019.1 |
| 20260830135151 | 68 | 192 | 0.0 | 0.0 | 0.00 | 0.00 | 0.00 | 96 | 1019.1 |
| 20260830135145 | 68 | 192 | 0.0 | 0.0 | 0.00 | 0.00 | 0.00 | 96 | 1019.0 |
| 20260830135023 | 68 | 193 | 0.0 | 0.0 | 0.00 | 0.00 | 0.00 | 96 | 1019.2 |
| 20260830134935 | 67 | 193 | 0.0 | 0.0 | 0.00 | 0.00 | 0.00 | 96 | 1019.1 |
| 20260830134848 | 67 | 193 | 0.0 | 0.0 | 0.00 | 0.00 | 0.00 | 96 | 1019.3 |
| 20260830134844 | 67 | 193 | 0.0 | 0.0 | 0.00 | 0.00 | 0.00 | 96 | 1019.2 |
| 20260830134713 | 67 | 193 | 0.0 | 0.0 | 0.00 | 0.00 | 0.00 | 96 | 1019.3 |
| 20260830134635 | 67 | 193 | 0.0 | 0.0 | 0.00 | 0.00 | 0.00 | 96 | 1019.4 |
| 20260830134534 | 67 | 193 | 0.0 | 0.0 | 0.00 | 0.00 | 0.00 | 96 | 1019.3 |
| 20260830134523 | 67 | 193 | 0.0 | 0.0 | 0.00 | 0.00 | 0.00 | 96 | 1019.4 |
| 20260830134432 | 67 | 167 | 0.0 | 0.0 | 0.00 | 0.00 | 0.00 | 96 | 1019.3 |
| 20260830134405 | 67 | 167 | 0.0 | 0.0 | 0.00 | 0.00 | 0.00 | 97 | 1019.3 |
| 20260830134400 | 66 | 167 | 0.0 | 0.0 | 0.00 | 0.00 | 0.00 | 97 | 1019.4 |
| 20260830134355 | 67 | 167 | 0.0 | 0.0 | 0.00 | 0.00 | 0.00 | 97 | 1019.3 |
| 20260830134239 | 67 | 167 | 0.0 | 0.0 | 0.00 | 0.00 | 0.00 | 97 | 1019.3 |
| 20260830134059 | 66 | 227 | 0.0 | 0.0 | 0.00 | 0.00 | 0.00 | 97 | 1019.4 |
| 20260830134054 | 66 | 227 | 0.0 | 0.0 | 0.00 | 0.00 | 0.00 | 97 | 1019.4 |
| 20260830134049 | 66 | 227 | 0.0 | 0.0 | 0.00 | 0.00 | 0.00 | 97 | 1019.4 |
| 20260830134045 | 66 | 227 | 0.0 | 0.0 | 0.00 | 0.00 | 0.00 | 96 | 1019.4 |
| 20260830134023 | 66 | 227 | 0.0 | 0.0 | 0.00 | 0.00 | 0.00 | 97 | 1019.5 |
| 20260830133927 | 66 | 227 | 0.0 | 0.0 | 0.00 | 0.00 | 0.00 | 97 | 1019.4 |
| 20260830133629 | 66 | 227 | 0.0 | 0.0 | 0.00 | 0.00 | 0.00 | 97 | 1019.5 |
| 20260830133553 | 66 | 227 | 0.0 | 0.0 | 0.00 | 0.00 | 0.00 | 97 | 1019.5 |
| 20260830133528 | 66 | 227 | 0.0 | 0.0 | 0.00 | 0.00 | 0.00 | 97 | 1019.5 |
| 20260830133428 | 65 | 227 | 0.0 | 0.0 | 0.00 | 0.00 | 0.00 | 97 | 1019.4 |
| 20260830133328 | 65 | 227 | 0.0 | 0.0 | 0.00 | 0.00 | 0.00 | 97 | 1019.3 |
| 20260830133227 | 65 | 227 | 0.0 | 0.0 | 0.00 | 0.00 | 0.00 | 97 | 1019.4 |
| 20260830133210 | 65 | 227 | 0.0 | 0.0 | 0.00 | 0.00 | 0.00 | 97 | 1019.4 |
| 20260830133127 | 65 | 227 | 0.0 | 0.0 | 0.00 | 0.00 | 0.00 | 97 | 1019.4 |
| 20260830133026 | 65 | 227 | 0.0 | 0.0 | 0.00 | 0.00 | 0.00 | 97 | 1019.3 |
| 20260830133023 | 65 | 227 | 0.0 | 0.0 | 0.00 | 0.00 | 0.00 | 97 | 1019.3 |
| 20260830132939 | 65 | 250 | 0.0 | 0.0 | 0.00 | 0.00 | 0.00 | 97 | 1019.3 |
| 20260830132935 | 65 | 227 | 0.0 | 0.0 | 0.00 | 0.00 | 0.00 | 97 | 1019.3 |
| 20260830132712 | 65 | 250 | 0.0 | 0.0 | 0.00 | 0.00 | 0.00 | 97 | 1019.4 |
| 20260830132707 | 64 | 250 | 0.0 | 0.0 | 0.00 | 0.00 | 0.00 | 97 | 1019.4 |
| 20260830132703 | 64 | 250 | 0.0 | 0.0 | 0.00 | 0.00 | 0.00 | 97 | 1019.4 |
| 20260830132659 | 64 | 250 | 0.0 | 0.0 | 0.00 | 0.00 | 0.00 | 97 | 1019.4 |
| 20260830132651 | 65 | 250 | 0.0 | 0.0 | 0.00 | 0.00 | 0.00 | 97 | 1019.4 |
| 20260830132523 | 64 | 250 | 0.0 | 0.0 | 0.00 | 0.00 | 0.00 | 97 | 1019.4 |
| 20260830132311 | 64 | 250 | 0.0 | 0.0 | 0.00 | 0.00 | 0.00 | 97 | 1019.2 |
| 20260830132306 | 64 | 250 | 0.0 | 0.0 | 0.00 | 0.00 | 0.00 | 97 | 1019.3 |
| 20260830132250 | 64 | 250 | 0.0 | 0.0 | 0.00 | 0.00 | 0.00 | 97 | 1019.3 |
| 20260830132038 | 64 | 250 | 0.0 | 0.0 | 0.00 | 0.00 | 0.00 | 97 | 1019.4 |
| 20260830131821 | 64 | 250 | 0.0 | 0.0 | 0.00 | 0.00 | 0.00 | 97 | 1019.5 |
| 20260830131708 | 64 | 250 | 0.0 | 0.0 | 0.00 | 0.00 | 0.00 | 97 | 1019.5 |
| 20260830131620 | 64 | 250 | 0.0 | 0.0 | 0.00 | 0.00 | 0.00 | 97 | 1019.6 |
| 20260830131554 | 63 | 250 | 0.0 | 0.0 | 0.00 | 0.00 | 0.00 | 97 | 1019.5 |
| 20260830131523 | 63 | 250 | 0.0 | 0.0 | 0.00 | 0.00 | 0.00 | 97 | 1019.6 |
| 20260830131419 | 63 | 250 | 0.0 | 0.0 | 0.00 | 0.00 | 0.00 | 97 | 1019.6 |
| 20260830131345 | 63 | 250 | 0.0 | 0.0 | 0.00 | 0.00 | 0.00 | 97 | 1019.6 |
| 20260830131340 | 63 | 250 | 0.0 | 0.0 | 0.00 | 0.00 | 0.00 | 97 | 1019.6 |
| 20260830131331 | 63 | 250 | 0.0 | 0.0 | 0.00 | 0.00 | 0.00 | 97 | 1019.6 |
| 20260830131053 | 63 | 250 | 0.0 | 0.0 | 0.00 | 0.00 | 0.00 | 97 | 1019.8 |
| 20260830131043 | 63 | 250 | 0.0 | 0.0 | 0.00 | 0.00 | 0.00 | 97 | 1019.9 |
| 20260830131038 | 63 | 250 | 0.0 | 0.0 | 0.00 | 0.00 | 0.00 | 97 | 1019.7 |
| 20260830131028 | 63 | 250 | 0.0 | 0.0 | 0.00 | 0.00 | 0.00 | 97 | 1019.8 |
| 20260830131023 | 63 | 250 | 0.0 | 0.0 | 0.00 | 0.00 | 0.00 | 97 | 1019.8 |
| 20260830130615 | 63 | 250 | 0.0 | 0.0 | 0.00 | 0.00 | 0.00 | 97 | 1019.9 |
| 20260830130523 | 63 | 250 | 0.0 | 0.0 | 0.00 | 0.00 | 0.00 | 97 | 1019.9 |
| 20260830130514 | 63 | 250 | 0.0 | 0.0 | 0.00 | 0.00 | 0.00 | 97 | 1019.9 |
| 20260830130414 | 63 | 250 | 0.0 | 0.0 | 0.00 | 0.00 | 0.00 | 97 | 1019.9 |
| 20260830130357 | 62 | 250 | 0.0 | 0.0 | 0.00 | 0.00 | 0.00 | 97 | 1019.8 |
| 20260830130350 | 63 | 250 | 0.0 | 0.0 | 0.00 | 0.00 | 0.00 | 97 | 1019.9 |
| 20260830130233 | 63 | 250 | 0.0 | 0.0 | 0.00 | 0.00 | 0.00 | 97 | 1019.9 |
| 20260830130023 | 63 | 250 | 0.0 | 0.0 | 0.00 | 0.00 | 0.00 | 97 | 1019.9 |
| 20260830125911 | 62 | 250 | 0.0 | 0.0 | 0.00 | 0.00 | 0.00 | 97 | 1019.8 |
| 20260830125810 | 62 | 250 | 0.0 | 0.0 | 0.00 | 0.00 | 0.00 | 97 | 1019.8 |
| 20260830125704 | 62 | 250 | 0.0 | 0.0 | 0.00 | 0.00 | 0.00 | 97 | 1019.8 |
| 20260830125609 | 62 | 250 | 0.0 | 0.0 | 0.00 | 0.00 | 0.00 | 97 | 1019.8 |
| 20260830125523 | 62 | 250 | 0.0 | 0.0 | 0.00 | 0.00 | 0.00 | 97 | 1020.0 |
| 20260830125509 | 62 | 250 | 0.0 | 0.0 | 0.00 | 0.00 | 0.00 | 97 | 1019.9 |
| 20260830125409 | 62 | 250 | 0.0 | 0.0 | 0.00 | 0.00 | 0.00 | 97 | 1019.9 |
| 20260830125308 | 62 | 250 | 0.0 | 0.0 | 0.00 | 0.00 | 0.00 | 97 | 1019.9 |
| 20260830125231 | 62 | 250 | 0.0 | 0.0 | 0.00 | 0.00 | 0.00 | 97 | 1019.8 |
| 20260830125116 | 62 | 250 | 0.0 | 0.0 | 0.00 | 0.00 | 0.00 | 97 | 1019.8 |
| 20260830125023 | 62 | 250 | 0.0 | 0.0 | 0.00 | 0.00 | 0.00 | 97 | 1020.0 |
| 20260830124906 | 62 | 250 | 0.0 | 0.0 | 0.00 | 0.00 | 0.00 | 97 | 1019.9 |
| 20260830124806 | 62 | 250 | 0.0 | 0.0 | 0.00 | 0.00 | 0.00 | 97 | 1019.8 |
| 20260830124704 | 62 | 250 | 0.0 | 0.0 | 0.00 | 0.00 | 0.00 | 97 | 1019.8 |
| 20260830124604 | 62 | 250 | 0.0 | 0.0 | 0.00 | 0.00 | 0.00 | 97 | 1019.8 |
| 20260830124523 | 62 | 250 | 0.0 | 0.0 | 0.00 | 0.00 | 0.00 | 97 | 1019.9 |
| 20260830124504 | 62 | 250 | 0.0 | 0.0 | 0.00 | 0.00 | 0.00 | 97 | 1019.9 |
| 20260830124404 | 62 | 250 | 0.0 | 0.0 | 0.00 | 0.00 | 0.00 | 97 | 1019.8 |
| 20260830124304 | 62 | 250 | 0.0 | 0.0 | 0.00 | 0.00 | 0.00 | 97 | 1019.8 |
| 20260830124225 | 62 | 250 | 0.0 | 0.0 | 0.00 | 0.00 | 0.00 | 97 | 1019.8 |
| 20260830124111 | 62 | 250 | 0.0 | 0.0 | 0.00 | 0.00 | 0.00 | 97 | 1019.9 |
| 20260830124023 | 62 | 250 | 0.0 | 0.0 | 0.00 | 0.00 | 0.00 | 97 | 1020.0 |
| 20260830123924 | 61 | 250 | 0.0 | 0.0 | 0.00 | 0.00 | 0.00 | 97 | 1020.1 |
| 20260830123901 | 61 | 250 | 0.0 | 0.0 | 0.00 | 0.00 | 0.00 | 97 | 1019.9 |
| 20260830123812 | 61 | 250 | 0.0 | 0.0 | 0.00 | 0.00 | 0.00 | 97 | 1020.1 |
| 20260830123659 | 61 | 250 | 0.0 | 0.0 | 0.00 | 0.00 | 0.00 | 97 | 1020.1 |
| 20260830123558 | 61 | 250 | 0.0 | 0.0 | 0.00 | 0.00 | 0.00 | 97 | 1019.9 |
| 20260830123523 | 61 | 250 | 0.0 | 0.0 | 0.00 | 0.00 | 0.00 | 97 | 1020.0 |
| 20260830123458 | 61 | 250 | 0.0 | 0.0 | 0.00 | 0.00 | 0.00 | 97 | 1019.9 |
| 20260830123358 | 61 | 250 | 0.0 | 0.0 | 0.00 | 0.00 | 0.00 | 97 | 1020.1 |
| 20260830123258 | 61 | 250 | 0.0 | 0.0 | 0.00 | 0.00 | 0.00 | 97 | 1020.1 |
| 20260830123201 | 61 | 250 | 0.0 | 0.0 | 0.00 | 0.00 | 0.00 | 97 | 1020.1 |
| 20260830123157 | 61 | 250 | 0.0 | 0.0 | 0.00 | 0.00 | 0.00 | 97 | 1020.1 |
| 20260830123057 | 61 | 250 | 0.0 | 0.0 | 0.00 | 0.00 | 0.00 | 97 | 1020.1 |
| 20260830123023 | 61 | 250 | 0.0 | 0.0 | 0.00 | 0.00 | 0.00 | 97 | 1020.0 |
| 20260830122956 | 61 | 250 | 0.0 | 0.0 | 0.00 | 0.00 | 0.00 | 97 | 1019.9 |
| 20260830122855 | 61 | 250 | 0.0 | 0.0 | 0.00 | 0.00 | 0.00 | 97 | 1019.9 |
| 20260830122755 | 60 | 250 | 0.0 | 0.0 | 0.00 | 0.00 | 0.00 | 97 | 1020.1 |
| 20260830122702 | 60 | 250 | 0.0 | 0.0 | 0.00 | 0.00 | 0.00 | 97 | 1019.9 |
| 20260830122654 | 60 | 250 | 0.0 | 0.0 | 0.00 | 0.00 | 0.00 | 97 | 1019.9 |
| 20260830122554 | 60 | 250 | 0.0 | 0.0 | 0.00 | 0.00 | 0.00 | 97 | 1019.9 |
| 20260830122523 | 60 | 250 | 0.0 | 0.0 | 0.00 | 0.00 | 0.00 | 97 | 1020.0 |
| 20260830122453 | 60 | 250 | 0.0 | 0.0 | 0.00 | 0.00 | 0.00 | 97 | 1019.9 |
| 20260830122425 | 60 | 250 | 0.0 | 0.0 | 0.00 | 0.00 | 0.00 | 97 | 1019.9 |
| 20260830122353 | 60 | 250 | 0.0 | 0.0 | 0.00 | 0.00 | 0.00 | 97 | 1019.9 |
| 20260830122310 | 60 | 250 | 0.0 | 0.0 | 0.00 | 0.00 | 0.00 | 97 | 1019.9 |
| 20260830122152 | 60 | 250 | 0.0 | 0.0 | 0.00 | 0.00 | 0.00 | 97 | 1019.9 |
| 20260830122051 | 60 | 250 | 0.0 | 0.0 | 0.00 | 0.00 | 0.00 | 97 | 1019.9 |
| 20260830122023 | 60 | 250 | 0.0 | 0.0 | 0.00 | 0.00 | 0.00 | 97 | 1019.9 |
| 20260830121951 | 60 | 250 | 0.0 | 0.0 | 0.00 | 0.00 | 0.00 | 97 | 1019.8 |
| 20260830121851 | 60 | 250 | 0.0 | 0.0 | 0.00 | 0.00 | 0.00 | 97 | 1019.9 |
| 20260830121750 | 60 | 250 | 0.0 | 0.0 | 0.00 | 0.00 | 0.00 | 97 | 1019.9 |
| 20260830121701 | 60 | 250 | 0.0 | 0.0 | 0.00 | 0.00 | 0.00 | 97 | 1020.1 |
| 20260830121650 | 60 | 250 | 0.0 | 0.0 | 0.00 | 0.00 | 0.00 | 97 | 1020.1 |
| 20260830121550 | 60 | 250 | 0.0 | 0.0 | 0.00 | 0.00 | 0.00 | 97 | 1019.9 |
| 20260830121523 | 60 | 250 | 0.0 | 0.0 | 0.00 | 0.00 | 0.00 | 97 | 1020.0 |
| 20260830121449 | 60 | 250 | 0.0 | 0.0 | 0.00 | 0.00 | 0.00 | 97 | 1019.9 |
| 20260830121349 | 60 | 250 | 0.0 | 0.0 | 0.00 | 0.00 | 0.00 | 97 | 1019.9 |
| 20260830121248 | 60 | 250 | 0.0 | 0.0 | 0.00 | 0.00 | 0.00 | 97 | 1019.9 |
| 20260830121200 | 60 | 250 | 0.0 | 0.0 | 0.00 | 0.00 | 0.00 | 97 | 1020.1 |
| 20260830121148 | 60 | 250 | 0.0 | 0.0 | 0.00 | 0.00 | 0.00 | 97 | 1020.1 |
| 20260830121046 | 60 | 250 | 0.0 | 0.0 | 0.00 | 0.00 | 0.00 | 97 | 1019.9 |
| 20260830121023 | 60 | 250 | 0.0 | 0.0 | 0.00 | 0.00 | 0.00 | 97 | 1020.1 |
| 20260830120945 | 60 | 250 | 0.0 | 0.0 | 0.00 | 0.00 | 0.00 | 97 | 1020.1 |
| 20260830120845 | 60 | 250 | 0.0 | 0.0 | 0.00 | 0.00 | 0.00 | 97 | 1020.1 |
| 20260830120745 | 60 | 250 | 0.0 | 0.0 | 0.00 | 0.00 | 0.00 | 97 | 1020.1 |
| 20260830120700 | 59 | 250 | 0.0 | 0.0 | 0.00 | 0.00 | 0.00 | 97 | 1020.1 |
| 20260830120645 | 59 | 250 | 0.0 | 0.0 | 0.00 | 0.00 | 0.00 | 97 | 1020.1 |
| 20260830120544 | 59 | 250 | 0.0 | 0.0 | 0.00 | 0.00 | 0.00 | 97 | 1020.2 |
| 20260830120523 | 59 | 250 | 0.0 | 0.0 | 0.00 | 0.00 | 0.00 | 97 | 1020.2 |
| 20260830120444 | 59 | 250 | 0.0 | 0.0 | 0.00 | 0.00 | 0.00 | 97 | 1020.2 |
| 20260830120421 | 59 | 250 | 0.0 | 0.0 | 0.00 | 0.00 | 0.00 | 97 | 1020.2 |
| 20260830120344 | 59 | 250 | 0.0 | 0.0 | 0.00 | 0.00 | 0.00 | 97 | 1020.3 |
| 20260830120307 | 59 | 250 | 0.0 | 0.0 | 0.00 | 0.00 | 0.00 | 97 | 1020.2 |
| 20260830120143 | 59 | 250 | 0.0 | 0.0 | 0.00 | 0.00 | 0.00 | 97 | 1020.2 |
| 20260830120042 | 59 | 250 | 0.0 | 0.0 | 0.00 | 0.00 | 0.00 | 97 | 1020.2 |
| 20260830120023 | 59 | 250 | 0.0 | 0.0 | 0.00 | 0.00 | 0.00 | 97 | 1020.2 |
| 20260830115942 | 59 | 250 | 0.0 | 0.0 | 0.00 | 0.00 | 0.00 | 97 | 1020.2 |
| 20260830115841 | 59 | 250 | 0.0 | 0.0 | 0.00 | 0.00 | 0.00 | 97 | 1020.2 |
| 20260830115740 | 59 | 250 | 0.0 | 0.0 | 0.00 | 0.00 | 0.00 | 97 | 1020.3 |
| 20260830115640 | 59 | 250 | 0.0 | 0.0 | 0.00 | 0.00 | 0.00 | 97 | 1020.2 |
| 20260830115608 | 59 | 250 | 0.0 | 0.0 | 0.00 | 0.00 | 0.00 | 97 | 1020.3 |
| 20260830115540 | 59 | 250 | 0.0 | 0.0 | 0.00 | 0.00 | 0.00 | 97 | 1020.3 |
| 20260830115439 | 59 | 250 | 0.0 | 0.0 | 0.00 | 0.00 | 0.00 | 97 | 1020.2 |
| 20260830115339 | 59 | 250 | 0.0 | 0.0 | 0.00 | 0.00 | 0.00 | 97 | 1020.3 |
| 20260830115251 | 59 | 250 | 0.0 | 0.0 | 0.00 | 0.00 | 0.00 | 97 | 1020.2 |
| 20260830115242 | 59 | 250 | 0.0 | 0.0 | 0.00 | 0.00 | 0.00 | 97 | 1020.2 |
| 20260830115050 | 59 | 250 | 0.0 | 0.0 | 0.00 | 0.00 | 0.00 | 97 | 1020.2 |
| 20260830115046 | 59 | 250 | 0.0 | 0.0 | 0.00 | 0.00 | 0.00 | 97 | 1020.2 |
| 20260830115023 | 59 | 250 | 0.0 | 0.0 | 0.00 | 0.00 | 0.00 | 97 | 1020.3 |
| 20260830114913 | 59 | 250 | 0.0 | 0.0 | 0.00 | 0.00 | 0.00 | 97 | 1020.1 |
| 20260830114837 | 59 | 250 | 0.0 | 0.0 | 0.00 | 0.00 | 0.00 | 97 | 1020.2 |
| 20260830114803 | 59 | 250 | 0.0 | 0.0 | 0.00 | 0.00 | 0.00 | 97 | 1020.1 |
| 20260830114635 | 59 | 250 | 0.0 | 0.0 | 0.00 | 0.00 | 0.00 | 97 | 1020.1 |
| 20260830114536 | 58 | 250 | 0.0 | 0.0 | 0.00 | 0.00 | 0.00 | 97 | 1020.2 |
| 20260830114523 | 59 | 250 | 0.0 | 0.0 | 0.00 | 0.00 | 0.00 | 97 | 1020.3 |
| 20260830114433 | 58 | 250 | 0.0 | 0.0 | 0.00 | 0.00 | 0.00 | 97 | 1020.2 |
| 20260830114334 | 58 | 250 | 0.0 | 0.0 | 0.00 | 0.00 | 0.00 | 97 | 1020.1 |
| 20260830114234 | 58 | 250 | 0.0 | 0.0 | 0.00 | 0.00 | 0.00 | 97 | 1020.1 |
| 20260830114134 | 58 | 250 | 0.0 | 0.0 | 0.00 | 0.00 | 0.00 | 97 | 1020.2 |
| 20260830114033 | 58 | 250 | 0.0 | 0.0 | 0.00 | 0.00 | 0.00 | 97 | 1020.2 |
| 20260830114023 | 58 | 250 | 0.0 | 0.0 | 0.00 | 0.00 | 0.00 | 97 | 1020.2 |
| 20260830113946 | 58 | 250 | 0.0 | 0.0 | 0.00 | 0.00 | 0.00 | 97 | 1020.2 |
| 20260830113942 | 58 | 250 | 0.0 | 0.0 | 0.00 | 0.00 | 0.00 | 97 | 1020.2 |
| 20260830113733 | 58 | 250 | 0.0 | 0.0 | 0.00 | 0.00 | 0.00 | 97 | 1020.2 |
| 20260830113630 | 58 | 250 | 0.0 | 0.0 | 0.00 | 0.00 | 0.00 | 97 | 1020.2 |
| 20260830113530 | 58 | 250 | 0.0 | 0.0 | 0.00 | 0.00 | 0.00 | 97 | 1020.2 |
| 20260830113523 | 58 | 250 | 0.0 | 0.0 | 0.00 | 0.00 | 0.00 | 97 | 1020.2 |
| 20260830113441 | 58 | 250 | 0.0 | 0.0 | 0.00 | 0.00 | 0.00 | 97 | 1020.2 |
| 20260830113437 | 58 | 250 | 0.0 | 0.0 | 0.00 | 0.00 | 0.00 | 97 | 1020.2 |
| 20260830113228 | 58 | 250 | 0.0 | 0.0 | 0.00 | 0.00 | 0.00 | 97 | 1020.2 |
| 20260830113127 | 58 | 250 | 0.0 | 0.0 | 0.00 | 0.00 | 0.00 | 97 | 1020.2 |
| 20260830113027 | 58 | 250 | 0.0 | 0.0 | 0.00 | 0.00 | 0.00 | 97 | 1020.2 |
| 20260830113023 | 58 | 250 | 0.0 | 0.0 | 0.00 | 0.00 | 0.00 | 97 | 1020.2 |
| 20260830112926 | 58 | 250 | 0.0 | 0.0 | 0.00 | 0.00 | 0.00 | 97 | 1020.2 |
| 20260830112849 | 58 | 250 | 0.0 | 0.0 | 0.00 | 0.00 | 0.00 | 97 | 1020.2 |
| 20260830112736 | 58 | 250 | 0.0 | 0.0 | 0.00 | 0.00 | 0.00 | 97 | 1020.2 |
| 20260830112728 | 58 | 250 | 0.0 | 0.0 | 0.00 | 0.00 | 0.00 | 97 | 1020.2 |
| 20260830112523 | 58 | 250 | 0.0 | 0.0 | 0.00 | 0.00 | 0.00 | 97 | 1020.3 |
| 20260830112449 | 58 | 250 | 0.0 | 0.0 | 0.00 | 0.00 | 0.00 | 97 | 1020.2 |
| 20260830112444 | 58 | 250 | 0.0 | 0.0 | 0.00 | 0.00 | 0.00 | 97 | 1020.3 |
| 20260830112439 | 58 | 250 | 0.0 | 0.0 | 0.00 | 0.00 | 0.00 | 97 | 1020.3 |
| 20260830112155 | 58 | 250 | 0.0 | 0.0 | 0.00 | 0.00 | 0.00 | 97 | 1020.3 |
| 20260830112121 | 58 | 250 | 0.0 | 0.0 | 0.00 | 0.00 | 0.00 | 97 | 1020.3 |
| 20260830112023 | 57 | 250 | 0.0 | 0.0 | 0.00 | 0.00 | 0.00 | 97 | 1020.2 |
| 20260830112019 | 57 | 250 | 0.0 | 0.0 | 0.00 | 0.00 | 0.00 | 97 | 1020.3 |
| 20260830111919 | 57 | 250 | 0.0 | 0.0 | 0.00 | 0.00 | 0.00 | 96 | 1020.2 |
| 20260830111818 | 57 | 250 | 0.0 | 0.0 | 0.00 | 0.00 | 0.00 | 96 | 1020.3 |
| 20260830111718 | 57 | 250 | 0.0 | 0.0 | 0.00 | 0.00 | 0.00 | 96 | 1020.3 |
| 20260830111652 | 57 | 250 | 0.0 | 0.0 | 0.00 | 0.00 | 0.00 | 96 | 1020.3 |
| 20260830111618 | 57 | 250 | 0.0 | 0.0 | 0.00 | 0.00 | 0.00 | 96 | 1020.3 |
| 20260830111538 | 57 | 250 | 0.0 | 0.0 | 0.00 | 0.00 | 0.00 | 96 | 1020.3 |
| 20260830111517 | 57 | 250 | 0.0 | 0.0 | 0.00 | 0.00 | 0.00 | 96 | 1020.3 |
| 20260830111425 | 57 | 250 | 0.0 | 0.0 | 0.00 | 0.00 | 0.00 | 96 | 1020.3 |
| 20260830111417 | 57 | 250 | 0.0 | 0.0 | 0.00 | 0.00 | 0.00 | 96 | 1020.3 |
| 20260830111317 | 57 | 250 | 0.0 | 0.0 | 0.00 | 0.00 | 0.00 | 96 | 1020.3 |
| 20260830111257 | 57 | 250 | 0.0 | 0.0 | 0.00 | 0.00 | 0.00 | 96 | 1020.3 |
| 20260830111116 | 57 | 250 | 0.0 | 0.0 | 0.00 | 0.00 | 0.00 | 97 | 1020.3 |
| 20260830111023 | 57 | 250 | 0.0 | 0.0 | 0.00 | 0.00 | 0.00 | 97 | 1020.3 |
| 20260830111015 | 57 | 250 | 0.0 | 0.0 | 0.00 | 0.00 | 0.00 | 97 | 1020.3 |
| 20260830110914 | 57 | 250 | 0.0 | 0.0 | 0.00 | 0.00 | 0.00 | 97 | 1020.3 |
| 20260830110813 | 57 | 250 | 0.0 | 0.0 | 0.00 | 0.00 | 0.00 | 97 | 1020.2 |
| 20260830110714 | 57 | 250 | 0.0 | 0.0 | 0.00 | 0.00 | 0.00 | 97 | 1020.2 |
| 20260830110649 | 57 | 250 | 0.0 | 0.0 | 0.00 | 0.00 | 0.00 | 97 | 1020.2 |
| 20260830110613 | 57 | 250 | 0.0 | 0.0 | 0.00 | 0.00 | 0.00 | 97 | 1020.2 |
| 20260830110523 | 57 | 250 | 0.0 | 0.0 | 0.00 | 0.00 | 0.00 | 97 | 1020.3 |
| 20260830110511 | 57 | 250 | 0.0 | 0.0 | 0.00 | 0.00 | 0.00 | 97 | 1020.2 |
| 20260830110410 | 57 | 250 | 0.0 | 0.0 | 0.00 | 0.00 | 0.00 | 97 | 1020.2 |
| 20260830110309 | 57 | 250 | 0.0 | 0.0 | 0.00 | 0.00 | 0.00 | 97 | 1020.2 |
| 20260830110209 | 57 | 250 | 0.0 | 0.0 | 0.00 | 0.00 | 0.00 | 97 | 1020.2 |
| 20260830110123 | 57 | 250 | 0.0 | 0.0 | 0.00 | 0.00 | 0.00 | 97 | 1020.2 |
| 20260830110119 | 57 | 250 | 0.0 | 0.0 | 0.00 | 0.00 | 0.00 | 97 | 1020.2 |
| 20260830110023 | 57 | 250 | 0.0 | 0.0 | 0.00 | 0.00 | 0.00 | 97 | 1020.3 |
| 20260830105907 | 57 | 250 | 0.0 | 0.0 | 0.00 | 0.00 | 0.00 | 97 | 1020.2 |
| 20260830105831 | 57 | 250 | 0.0 | 0.0 | 0.00 | 0.00 | 0.00 | 96 | 1020.2 |
| 20260830105718 | 57 | 250 | 0.0 | 0.0 | 0.00 | 0.00 | 0.00 | 96 | 1020.2 |
| 20260830105711 | 57 | 250 | 0.0 | 0.0 | 0.00 | 0.00 | 0.00 | 96 | 1020.3 |
| 20260830105523 | 57 | 250 | 0.0 | 0.0 | 0.00 | 0.00 | 0.00 | 96 | 1020.5 |
| 20260830105516 | 57 | 250 | 0.0 | 0.0 | 0.00 | 0.00 | 0.00 | 96 | 1020.3 |
| 20260830105512 | 57 | 250 | 0.0 | 0.0 | 0.00 | 0.00 | 0.00 | 96 | 1020.3 |
| 20260830105305 | 57 | 250 | 0.0 | 0.0 | 0.00 | 0.00 | 0.00 | 96 | 1020.3 |
| 20260830105218 | 56 | 250 | 0.0 | 0.0 | 0.00 | 0.00 | 0.00 | 96 | 1020.3 |
| 20260830105211 | 56 | 250 | 0.0 | 0.0 | 0.00 | 0.00 | 0.00 | 96 | 1020.3 |
| 20260830105023 | 57 | 250 | 0.0 | 0.0 | 0.00 | 0.00 | 0.00 | 96 | 1020.5 |
| 20260830105001 | 56 | 250 | 0.0 | 0.0 | 0.00 | 0.00 | 0.00 | 96 | 1020.3 |
| 20260830104901 | 56 | 250 | 0.0 | 0.0 | 0.00 | 0.00 | 0.00 | 96 | 1020.3 |
| 20260830104801 | 56 | 250 | 0.0 | 0.0 | 0.00 | 0.00 | 0.00 | 96 | 1020.3 |
| 20260830104700 | 56 | 250 | 0.0 | 0.0 | 0.00 | 0.00 | 0.00 | 96 | 1020.3 |
| 20260830104646 | 56 | 250 | 0.0 | 0.0 | 0.00 | 0.00 | 0.00 | 96 | 1020.3 |
| 20260830104601 | 56 | 250 | 0.0 | 0.0 | 0.00 | 0.00 | 0.00 | 96 | 1020.3 |
| 20260830104538 | 57 | 250 | 0.0 | 0.0 | 0.00 | 0.00 | 0.00 | 96 | 1020.5 |
| 20260830104500 | 56 | 250 | 0.0 | 0.0 | 0.00 | 0.00 | 0.00 | 96 | 1020.3 |
| 20260830104405 | 56 | 250 | 0.0 | 0.0 | 0.00 | 0.00 | 0.00 | 96 | 1020.2 |
| 20260830104359 | 56 | 250 | 0.0 | 0.0 | 0.00 | 0.00 | 0.00 | 96 | 1020.3 |
| 20260830104258 | 56 | 250 | 0.0 | 0.0 | 0.00 | 0.00 | 0.00 | 96 | 1020.2 |
| 20260830104249 | 56 | 250 | 0.0 | 0.0 | 0.00 | 0.00 | 0.00 | 96 | 1020.2 |
| 20260830104057 | 56 | 250 | 0.0 | 0.0 | 0.00 | 0.00 | 0.00 | 96 | 1020.2 |
| 20260830104023 | 56 | 250 | 0.0 | 0.0 | 0.00 | 0.00 | 0.00 | 96 | 1020.4 |
| 20260830103957 | 56 | 250 | 0.0 | 0.0 | 0.00 | 0.00 | 0.00 | 96 | 1020.2 |
| 20260830103856 | 56 | 250 | 0.0 | 0.0 | 0.00 | 0.00 | 0.00 | 96 | 1020.2 |
| 20260830103756 | 56 | 250 | 0.0 | 0.0 | 0.00 | 0.00 | 0.00 | 96 | 1020.2 |
| 20260830103646 | 56 | 250 | 0.0 | 0.0 | 0.00 | 0.00 | 0.00 | 96 | 1020.2 |
| 20260830103555 | 56 | 250 | 0.0 | 0.0 | 0.00 | 0.00 | 0.00 | 96 | 1020.2 |
| 20260830103523 | 56 | 250 | 0.0 | 0.0 | 0.00 | 0.00 | 0.00 | 96 | 1020.4 |
| 20260830103454 | 56 | 250 | 0.0 | 0.0 | 0.00 | 0.00 | 0.00 | 96 | 1020.2 |
| 20260830103410 | 56 | 250 | 0.0 | 0.0 | 0.00 | 0.00 | 0.00 | 96 | 1020.2 |
| 20260830103354 | 56 | 250 | 0.0 | 0.0 | 0.00 | 0.00 | 0.00 | 96 | 1020.2 |
| 20260830103258 | 56 | 250 | 0.0 | 0.0 | 0.00 | 0.00 | 0.00 | 96 | 1020.2 |
| 20260830103249 | 56 | 250 | 0.0 | 0.0 | 0.00 | 0.00 | 0.00 | 96 | 1020.2 |
| 20260830103122 | 56 | 250 | 0.0 | 0.0 | 0.00 | 0.00 | 0.00 | 96 | 1020.3 |
| 20260830103118 | 56 | 250 | 0.0 | 0.0 | 0.00 | 0.00 | 0.00 | 96 | 1020.3 |
| 20260830103111 | 56 | 250 | 0.0 | 0.0 | 0.00 | 0.00 | 0.00 | 96 | 1020.2 |
| 20260830103023 | 56 | 250 | 0.0 | 0.0 | 0.00 | 0.00 | 0.00 | 96 | 1020.5 |
| 20260830102752 | 56 | 250 | 0.0 | 0.0 | 0.00 | 0.00 | 0.00 | 97 | 1020.3 |
| 20260830102642 | 56 | 250 | 0.0 | 0.0 | 0.00 | 0.00 | 0.00 | 96 | 1020.3 |
| 20260830102606 | 56 | 250 | 0.0 | 0.0 | 0.00 | 0.00 | 0.00 | 97 | 1020.3 |
| 20260830102600 | 56 | 250 | 0.0 | 0.0 | 0.00 | 0.00 | 0.00 | 97 | 1020.3 |
| 20260830102523 | 56 | 250 | 0.0 | 0.0 | 0.00 | 0.00 | 0.00 | 97 | 1020.5 |
| 20260830102351 | 56 | 250 | 0.0 | 0.0 | 0.00 | 0.00 | 0.00 | 97 | 1020.3 |
| 20260830102250 | 56 | 250 | 0.0 | 0.0 | 0.00 | 0.00 | 0.00 | 97 | 1020.3 |
| 20260830102140 | 56 | 250 | 0.0 | 0.0 | 0.00 | 0.00 | 0.00 | 97 | 1020.3 |
| 20260830102049 | 56 | 250 | 0.0 | 0.0 | 0.00 | 0.00 | 0.00 | 97 | 1020.3 |
| 20260830102023 | 56 | 250 | 0.0 | 0.0 | 0.00 | 0.00 | 0.00 | 96 | 1020.5 |
| 20260830101949 | 56 | 250 | 0.0 | 0.0 | 0.00 | 0.00 | 0.00 | 96 | 1020.3 |
| 20260830101849 | 56 | 250 | 0.0 | 0.0 | 0.00 | 0.00 | 0.00 | 96 | 1020.3 |
| 20260830101748 | 56 | 250 | 0.0 | 0.0 | 0.00 | 0.00 | 0.00 | 96 | 1020.2 |
| 20260830101639 | 56 | 250 | 0.0 | 0.0 | 0.00 | 0.00 | 0.00 | 96 | 1020.2 |
| 20260830101628 | 56 | 250 | 0.0 | 0.0 | 0.00 | 0.00 | 0.00 | 96 | 1020.2 |
| 20260830101624 | 56 | 250 | 0.0 | 0.0 | 0.00 | 0.00 | 0.00 | 96 | 1020.3 |
| 20260830101618 | 56 | 250 | 0.0 | 0.0 | 0.00 | 0.00 | 0.00 | 96 | 1020.3 |
| 20260830101611 | 56 | 250 | 0.0 | 0.0 | 0.00 | 0.00 | 0.00 | 96 | 1020.3 |
| 20260830101523 | 56 | 250 | 0.0 | 0.0 | 0.00 | 0.00 | 0.00 | 96 | 1020.4 |
| 20260830101137 | 56 | 250 | 0.0 | 0.0 | 0.00 | 0.00 | 0.00 | 96 | 1020.3 |
| 20260830101043 | 56 | 250 | 0.0 | 0.0 | 0.00 | 0.00 | 0.00 | 96 | 1020.3 |
| 20260830101023 | 56 | 250 | 0.0 | 0.0 | 0.00 | 0.00 | 0.00 | 96 | 1020.5 |
| 20260830100943 | 56 | 250 | 0.0 | 0.0 | 0.00 | 0.00 | 0.00 | 96 | 1020.3 |
| 20260830100855 | 56 | 250 | 0.0 | 0.0 | 0.00 | 0.00 | 0.00 | 96 | 1020.3 |
| 20260830100851 | 56 | 250 | 0.0 | 0.0 | 0.00 | 0.00 | 0.00 | 96 | 1020.3 |
| 20260830100635 | 56 | 250 | 0.0 | 0.0 | 0.00 | 0.00 | 0.00 | 96 | 1020.2 |
| 20260830100541 | 56 | 250 | 0.0 | 0.0 | 0.00 | 0.00 | 0.00 | 96 | 1020.2 |
| 20260830100524 | 55 | 250 | 0.0 | 0.0 | 0.00 | 0.00 | 0.00 | 96 | 1020.4 |
| 20260830100453 | 55 | 250 | 0.0 | 0.0 | 0.00 | 0.00 | 0.00 | 96 | 1020.2 |
| 20260830100449 | 55 | 250 | 0.0 | 0.0 | 0.00 | 0.00 | 0.00 | 96 | 1020.2 |
| 20260830100241 | 55 | 250 | 0.0 | 0.0 | 0.00 | 0.00 | 0.00 | 96 | 1020.2 |
| 20260830100134 | 55 | 250 | 0.0 | 0.0 | 0.00 | 0.00 | 0.00 | 96 | 1020.2 |
| 20260830100039 | 55 | 250 | 0.0 | 0.0 | 0.00 | 0.00 | 0.00 | 96 | 1020.2 |
| 20260830100023 | 55 | 250 | 0.0 | 0.0 | 0.00 | 0.00 | 0.00 | 96 | 1020.4 |
| 20260830095940 | 55 | 250 | 0.0 | 0.0 | 0.00 | 0.00 | 0.00 | 96 | 1020.1 |
| 20260830095852 | 55 | 250 | 0.0 | 0.0 | 0.00 | 0.00 | 0.00 | 96 | 1020.1 |
| 20260830095848 | 55 | 250 | 0.0 | 0.0 | 0.00 | 0.00 | 0.00 | 96 | 1020.1 |
| 20260830095634 | 55 | 250 | 0.0 | 0.0 | 0.00 | 0.00 | 0.00 | 96 | 1020.1 |
| 20260830095537 | 55 | 250 | 0.0 | 0.0 | 0.00 | 0.00 | 0.00 | 96 | 1020.1 |
| 20260830095523 | 55 | 250 | 0.0 | 0.0 | 0.00 | 0.00 | 0.00 | 96 | 1020.3 |
| 20260830095436 | 55 | 250 | 0.0 | 0.0 | 0.00 | 0.00 | 0.00 | 96 | 1020.1 |
| 20260830095336 | 55 | 250 | 0.0 | 0.0 | 0.00 | 0.00 | 0.00 | 96 | 1020.1 |
| 20260830095236 | 55 | 250 | 0.0 | 0.0 | 0.00 | 0.00 | 0.00 | 96 | 1020.1 |
| 20260830095155 | 55 | 250 | 0.0 | 0.0 | 0.00 | 0.00 | 0.00 | 96 | 1020.2 |
| 20260830095145 | 55 | 250 | 0.0 | 0.0 | 0.00 | 0.00 | 0.00 | 96 | 1020.2 |
| 20260830095023 | 55 | 250 | 0.0 | 0.0 | 0.00 | 0.00 | 0.00 | 96 | 1020.4 |
| 20260830094934 | 55 | 250 | 0.0 | 0.0 | 0.00 | 0.00 | 0.00 | 96 | 1020.2 |
| 20260830094834 | 55 | 250 | 0.0 | 0.0 | 0.00 | 0.00 | 0.00 | 96 | 1020.2 |
| 20260830094733 | 55 | 250 | 0.0 | 0.0 | 0.00 | 0.00 | 0.00 | 96 | 1020.2 |
| 20260830094652 | 55 | 250 | 0.0 | 0.0 | 0.00 | 0.00 | 0.00 | 96 | 1020.2 |
| 20260830094643 | 55 | 250 | 0.0 | 0.0 | 0.00 | 0.00 | 0.00 | 96 | 1020.2 |
| 20260830094523 | 55 | 250 | 0.0 | 0.0 | 0.00 | 0.00 | 0.00 | 96 | 1020.4 |
| 20260830094445 | 55 | 250 | 0.0 | 0.0 | 0.00 | 0.00 | 0.00 | 96 | 1020.2 |
| 20260830094441 | 55 | 250 | 0.0 | 0.0 | 0.00 | 0.00 | 0.00 | 96 | 1020.2 |
| 20260830094231 | 55 | 250 | 0.0 | 0.0 | 0.00 | 0.00 | 0.00 | 96 | 1020.2 |
| 20260830094130 | 55 | 250 | 0.0 | 0.0 | 0.00 | 0.00 | 0.00 | 96 | 1020.2 |
| 20260830094029 | 55 | 250 | 0.0 | 0.0 | 0.00 | 0.00 | 0.00 | 96 | 1020.3 |
| 20260830094024 | 55 | 250 | 0.0 | 0.0 | 0.00 | 0.00 | 0.00 | 96 | 1020.4 |
| 20260830093929 | 55 | 250 | 0.0 | 0.0 | 0.00 | 0.00 | 0.00 | 96 | 1020.2 |
| 20260830093828 | 55 | 250 | 0.0 | 0.0 | 0.00 | 0.00 | 0.00 | 96 | 1020.2 |
| 20260830093741 | 55 | 250 | 0.0 | 0.0 | 0.00 | 0.00 | 0.00 | 96 | 1020.2 |
| 20260830093732 | 55 | 250 | 0.0 | 0.0 | 0.00 | 0.00 | 0.00 | 96 | 1020.2 |
| 20260830093527 | 55 | 250 | 0.0 | 0.0 | 0.00 | 0.00 | 0.00 | 96 | 1020.1 |
| 20260830093523 | 55 | 250 | 0.0 | 0.0 | 0.00 | 0.00 | 0.00 | 96 | 1020.4 |
| 20260830093427 | 55 | 250 | 0.0 | 0.0 | 0.00 | 0.00 | 0.00 | 96 | 1020.2 |
| 20260830093350 | 55 | 250 | 0.0 | 0.0 | 0.00 | 0.00 | 0.00 | 96 | 1020.2 |
| 20260830093237 | 55 | 250 | 0.0 | 0.0 | 0.00 | 0.00 | 0.00 | 96 | 1020.1 |
| 20260830093227 | 55 | 250 | 0.0 | 0.0 | 0.00 | 0.00 | 0.00 | 96 | 1020.1 |
| 20260830093024 | 55 | 250 | 0.0 | 0.0 | 0.00 | 0.00 | 0.00 | 96 | 1020.1 |
| 20260830092923 | 55 | 250 | 0.0 | 0.0 | 0.00 | 0.00 | 0.00 | 96 | 1020.1 |
| 20260830092823 | 55 | 250 | 0.0 | 0.0 | 0.00 | 0.00 | 0.00 | 96 | 1020.1 |
| 20260830092735 | 55 | 250 | 0.0 | 0.0 | 0.00 | 0.00 | 0.00 | 96 | 1020.1 |
| 20260830092726 | 55 | 250 | 0.0 | 0.0 | 0.00 | 0.00 | 0.00 | 96 | 1020.2 |
| 20260830092523 | 55 | 250 | 0.0 | 0.0 | 0.00 | 0.00 | 0.00 | 96 | 1020.3 |
| 20260830092435 | 55 | 250 | 0.0 | 0.0 | 0.00 | 0.00 | 0.00 | 96 | 1020.1 |
| 20260830092430 | 55 | 250 | 0.0 | 0.0 | 0.00 | 0.00 | 0.00 | 96 | 1020.1 |
| 20260830092220 | 55 | 250 | 0.0 | 0.0 | 0.00 | 0.00 | 0.00 | 96 | 1020.1 |
| 20260830092119 | 55 | 250 | 0.0 | 0.0 | 0.00 | 0.00 | 0.00 | 96 | 1020.1 |
| 20260830092023 | 55 | 250 | 0.0 | 0.0 | 0.00 | 0.00 | 0.00 | 96 | 1020.4 |
| 20260830092019 | 55 | 250 | 0.0 | 0.0 | 0.00 | 0.00 | 0.00 | 96 | 1020.1 |
| 20260830091919 | 55 | 250 | 0.0 | 0.0 | 0.00 | 0.00 | 0.00 | 96 | 1020.2 |
| 20260830091818 | 55 | 250 | 0.0 | 0.0 | 0.00 | 0.00 | 0.00 | 96 | 1020.2 |
| 20260830091717 | 55 | 250 | 0.0 | 0.0 | 0.00 | 0.00 | 0.00 | 96 | 1020.2 |
| 20260830091617 | 55 | 250 | 0.0 | 0.0 | 0.00 | 0.00 | 0.00 | 96 | 1020.2 |
| 20260830091523 | 55 | 250 | 0.0 | 0.0 | 0.00 | 0.00 | 0.00 | 96 | 1020.3 |
| 20260830091516 | 55 | 250 | 0.0 | 0.0 | 0.00 | 0.00 | 0.00 | 96 | 1020.1 |
| 20260830091443 | 55 | 250 | 0.0 | 0.0 | 0.00 | 0.00 | 0.00 | 96 | 1020.1 |
| 20260830091439 | 55 | 250 | 0.0 | 0.0 | 0.00 | 0.00 | 0.00 | 96 | 1019.9 |
| 20260830091433 | 55 | 250 | 0.0 | 0.0 | 0.00 | 0.00 | 0.00 | 96 | 1020.1 |
| 20260830091115 | 55 | 250 | 0.0 | 0.0 | 0.00 | 0.00 | 0.00 | 96 | 1019.9 |
| 20260830091023 | 55 | 250 | 0.0 | 0.0 | 0.00 | 0.00 | 0.00 | 96 | 1020.3 |
| 20260830091014 | 55 | 250 | 0.0 | 0.0 | 0.00 | 0.00 | 0.00 | 96 | 1019.9 |
| 20260830090914 | 55 | 250 | 0.0 | 0.0 | 0.00 | 0.00 | 0.00 | 96 | 1020.1 |
| 20260830090814 | 55 | 250 | 0.0 | 0.0 | 0.00 | 0.00 | 0.00 | 96 | 1020.1 |
| 20260830090712 | 55 | 250 | 0.0 | 0.0 | 0.00 | 0.00 | 0.00 | 96 | 1020.1 |
| 20260830090612 | 55 | 250 | 0.0 | 0.0 | 0.00 | 0.00 | 0.00 | 96 | 1020.1 |
| 20260830090523 | 55 | 250 | 0.0 | 0.0 | 0.00 | 0.00 | 0.00 | 96 | 1020.3 |
| 20260830090511 | 55 | 250 | 0.0 | 0.0 | 0.00 | 0.00 | 0.00 | 96 | 1020.1 |
| 20260830090411 | 55 | 250 | 0.0 | 0.0 | 0.00 | 0.00 | 0.00 | 96 | 1020.1 |
| 20260830090311 | 55 | 250 | 0.0 | 0.0 | 0.00 | 0.00 | 0.00 | 96 | 1020.1 |
| 20260830090210 | 55 | 250 | 0.0 | 0.0 | 0.00 | 0.00 | 0.00 | 96 | 1020.1 |
| 20260830090110 | 55 | 250 | 0.0 | 0.0 | 0.00 | 0.00 | 0.00 | 96 | 1020.2 |
| 20260830090023 | 55 | 250 | 0.0 | 0.0 | 0.00 | 0.00 | 0.00 | 96 | 1020.4 |
| 20260830090009 | 55 | 250 | 0.0 | 0.0 | 0.00 | 0.00 | 0.00 | 96 | 1020.2 |
| 20260830085909 | 55 | 250 | 0.0 | 0.0 | 0.00 | 0.00 | 0.00 | 96 | 1020.2 |
| 20260830085806 | 55 | 250 | 0.0 | 0.0 | 0.00 | 0.00 | 0.00 | 96 | 1020.2 |
| 20260830085706 | 55 | 250 | 0.0 | 0.0 | 0.00 | 0.00 | 0.00 | 96 | 1020.2 |
| 20260830085606 | 55 | 250 | 0.0 | 0.0 | 0.00 | 0.00 | 0.00 | 96 | 1020.2 |
| 20260830085523 | 55 | 250 | 0.0 | 0.0 | 0.00 | 0.00 | 0.00 | 96 | 1020.4 |
| 20260830085505 | 55 | 250 | 0.0 | 0.0 | 0.00 | 0.00 | 0.00 | 96 | 1020.2 |
| 20260830085405 | 55 | 250 | 0.0 | 0.0 | 0.00 | 0.00 | 0.00 | 96 | 1020.2 |
| 20260830085307 | 55 | 250 | 0.0 | 0.0 | 0.00 | 0.00 | 0.00 | 96 | 1020.1 |
| 20260830085204 | 55 | 250 | 0.0 | 0.0 | 0.00 | 0.00 | 0.00 | 96 | 1020.1 |
| 20260830085103 | 55 | 250 | 0.0 | 0.0 | 0.00 | 0.00 | 0.00 | 96 | 1020.1 |
| 20260830085023 | 55 | 250 | 0.0 | 0.0 | 0.00 | 0.00 | 0.00 | 96 | 1020.3 |
| 20260830085003 | 55 | 250 | 0.0 | 0.0 | 0.00 | 0.00 | 0.00 | 96 | 1020.1 |
| 20260830084945 | 55 | 250 | 0.0 | 0.0 | 0.00 | 0.00 | 0.00 | 96 | 1020.1 |
| 20260830084803 | 55 | 250 | 0.0 | 0.0 | 0.00 | 0.00 | 0.00 | 96 | 1020.1 |
| 20260830084725 | 55 | 250 | 0.0 | 0.0 | 0.00 | 0.00 | 0.00 | 96 | 1020.1 |
| 20260830084601 | 55 | 250 | 0.0 | 0.0 | 0.00 | 0.00 | 0.00 | 96 | 1020.1 |
| 20260830084524 | 55 | 250 | 0.0 | 0.0 | 0.00 | 0.00 | 0.00 | 96 | 1020.3 |
| 20260830084500 | 55 | 250 | 0.0 | 0.0 | 0.00 | 0.00 | 0.00 | 96 | 1020.1 |
| 20260830084400 | 55 | 250 | 0.0 | 0.0 | 0.00 | 0.00 | 0.00 | 96 | 1020.2 |
| 20260830084259 | 55 | 250 | 0.0 | 0.0 | 0.00 | 0.00 | 0.00 | 96 | 1020.2 |
| 20260830084159 | 55 | 250 | 0.0 | 0.0 | 0.00 | 0.00 | 0.00 | 96 | 1020.2 |
| 20260830084116 | 55 | 250 | 0.0 | 0.0 | 0.00 | 0.00 | 0.00 | 96 | 1020.2 |
| 20260830084058 | 55 | 250 | 0.0 | 0.0 | 0.00 | 0.00 | 0.00 | 96 | 1020.2 |
| 20260830084023 | 55 | 250 | 0.0 | 0.0 | 0.00 | 0.00 | 0.00 | 96 | 1020.5 |
| 20260830083957 | 55 | 250 | 0.0 | 0.0 | 0.00 | 0.00 | 0.00 | 96 | 1020.3 |
| 20260830083857 | 55 | 250 | 0.0 | 0.0 | 0.00 | 0.00 | 0.00 | 96 | 1020.3 |
| 20260830083828 | 55 | 250 | 0.0 | 0.0 | 0.00 | 0.00 | 0.00 | 96 | 1020.3 |
| 20260830083824 | 55 | 250 | 0.0 | 0.0 | 0.00 | 0.00 | 0.00 | 96 | 1020.3 |
| 20260830083818 | 55 | 250 | 0.0 | 0.0 | 0.00 | 0.00 | 0.00 | 96 | 1020.3 |
| 20260830083701 | 55 | 250 | 0.0 | 0.0 | 0.00 | 0.00 | 0.00 | 96 | 1020.3 |
| 20260830083523 | 55 | 250 | 0.0 | 0.0 | 0.00 | 0.00 | 0.00 | 96 | 1020.6 |
| 20260830083455 | 55 | 250 | 0.0 | 0.0 | 0.00 | 0.00 | 0.00 | 96 | 1020.4 |
| 20260830083412 | 55 | 250 | 0.0 | 0.0 | 0.00 | 0.00 | 0.00 | 96 | 1020.4 |
| 20260830083407 | 55 | 250 | 0.0 | 0.0 | 0.00 | 0.00 | 0.00 | 96 | 1020.4 |
| 20260830083357 | 55 | 250 | 0.0 | 0.0 | 0.00 | 0.00 | 0.00 | 96 | 1020.4 |
| 20260830083250 | 55 | 250 | 0.0 | 0.0 | 0.00 | 0.00 | 0.00 | 96 | 1020.4 |
| 20260830083245 | 55 | 250 | 0.0 | 0.0 | 0.00 | 0.00 | 0.00 | 96 | 1020.4 |
| 20260830083228 | 55 | 250 | 0.0 | 0.0 | 0.00 | 0.00 | 0.00 | 96 | 1020.4 |
| 20260830083023 | 55 | 250 | 0.0 | 0.0 | 0.00 | 0.00 | 0.00 | 96 | 1020.6 |
| 20260830082710 | 55 | 250 | 0.0 | 0.0 | 0.00 | 0.00 | 0.00 | 96 | 1020.4 |
| 20260830082657 | 55 | 250 | 0.0 | 0.0 | 0.00 | 0.00 | 0.00 | 96 | 1020.4 |
| 20260830082523 | 55 | 250 | 0.0 | 0.0 | 0.00 | 0.00 | 0.00 | 96 | 1020.7 |
| 20260830082451 | 55 | 250 | 0.0 | 0.0 | 0.00 | 0.00 | 0.00 | 96 | 1020.5 |
| 20260830082351 | 55 | 250 | 0.0 | 0.0 | 0.00 | 0.00 | 0.00 | 96 | 1020.4 |
| 20260830082250 | 55 | 250 | 0.0 | 0.0 | 0.00 | 0.00 | 0.00 | 96 | 1020.5 |
| 20260830082150 | 55 | 250 | 0.0 | 0.0 | 0.00 | 0.00 | 0.00 | 96 | 1020.5 |
| 20260830082112 | 55 | 250 | 0.0 | 0.0 | 0.00 | 0.00 | 0.00 | 96 | 1020.5 |
| 20260830082050 | 55 | 250 | 0.0 | 0.0 | 0.00 | 0.00 | 0.00 | 96 | 1020.5 |
| 20260830082023 | 55 | 250 | 0.0 | 0.0 | 0.00 | 0.00 | 0.00 | 96 | 1020.6 |
| 20260830081949 | 55 | 250 | 0.0 | 0.0 | 0.00 | 0.00 | 0.00 | 96 | 1020.4 |
| 20260830081849 | 55 | 250 | 0.0 | 0.0 | 0.00 | 0.00 | 0.00 | 96 | 1020.5 |
| 20260830081749 | 55 | 250 | 0.0 | 0.0 | 0.00 | 0.00 | 0.00 | 96 | 1020.5 |
| 20260830081719 | 55 | 250 | 0.0 | 0.0 | 0.00 | 0.00 | 0.00 | 96 | 1020.5 |
| 20260830081715 | 55 | 250 | 0.0 | 0.0 | 0.00 | 0.00 | 0.00 | 96 | 1020.5 |
| 20260830081702 | 55 | 250 | 0.0 | 0.0 | 0.00 | 0.00 | 0.00 | 96 | 1020.5 |
| 20260830081538 | 55 | 250 | 0.0 | 0.0 | 0.00 | 0.00 | 0.00 | 96 | 1020.7 |
| 20260830081345 | 55 | 250 | 0.0 | 0.0 | 0.00 | 0.00 | 0.00 | 96 | 1020.5 |
| 20260830081243 | 55 | 250 | 0.0 | 0.0 | 0.00 | 0.00 | 0.00 | 96 | 1020.5 |
| 20260830081112 | 55 | 250 | 0.0 | 0.0 | 0.00 | 0.00 | 0.00 | 96 | 1020.5 |
| 20260830081041 | 55 | 250 | 0.0 | 0.0 | 0.00 | 0.00 | 0.00 | 96 | 1020.5 |
| 20260830081023 | 55 | 250 | 0.0 | 0.0 | 0.00 | 0.00 | 0.00 | 96 | 1020.7 |
| 20260830080942 | 55 | 250 | 0.0 | 0.0 | 0.00 | 0.00 | 0.00 | 96 | 1020.5 |
| 20260830080854 | 55 | 250 | 0.0 | 0.0 | 0.00 | 0.00 | 0.00 | 96 | 1020.5 |
| 20260830080850 | 55 | 250 | 0.0 | 0.0 | 0.00 | 0.00 | 0.00 | 96 | 1020.5 |
| 20260830080640 | 55 | 250 | 0.0 | 0.0 | 0.00 | 0.00 | 0.00 | 96 | 1020.5 |
| 20260830080610 | 55 | 250 | 0.0 | 0.0 | 0.00 | 0.00 | 0.00 | 96 | 1020.5 |
| 20260830080540 | 55 | 250 | 0.0 | 0.0 | 0.00 | 0.00 | 0.00 | 96 | 1020.5 |
| 20260830080523 | 55 | 250 | 0.0 | 0.0 | 0.00 | 0.00 | 0.00 | 96 | 1020.7 |
| 20260830080452 | 55 | 250 | 0.0 | 0.0 | 0.00 | 0.00 | 0.00 | 95 | 1020.5 |
| 20260830080448 | 55 | 250 | 0.0 | 0.0 | 0.00 | 0.00 | 0.00 | 95 | 1020.5 |
| 20260830080239 | 55 | 250 | 0.0 | 0.0 | 0.00 | 0.00 | 0.00 | 96 | 1020.5 |
| 20260830080138 | 55 | 250 | 0.0 | 0.0 | 0.00 | 0.00 | 0.00 | 95 | 1020.5 |
| 20260830080108 | 55 | 250 | 0.0 | 0.0 | 0.00 | 0.00 | 0.00 | 95 | 1020.5 |
| 20260830080037 | 55 | 250 | 0.0 | 0.0 | 0.00 | 0.00 | 0.00 | 95 | 1020.6 |
| 20260830080024 | 55 | 250 | 0.0 | 0.0 | 0.00 | 0.00 | 0.00 | 95 | 1020.8 |
| 20260830075937 | 55 | 250 | 0.0 | 0.0 | 0.00 | 0.00 | 0.00 | 95 | 1020.6 |
| 20260830075835 | 55 | 250 | 0.0 | 0.0 | 0.00 | 0.00 | 0.00 | 95 | 1020.6 |
| 20260830075735 | 55 | 250 | 0.0 | 0.0 | 0.00 | 0.00 | 0.00 | 95 | 1020.6 |
| 20260830075606 | 55 | 250 | 0.0 | 0.0 | 0.00 | 0.00 | 0.00 | 95 | 1020.6 |
| 20260830075533 | 55 | 250 | 0.0 | 0.0 | 0.00 | 0.00 | 0.00 | 95 | 1020.6 |
| 20260830075523 | 55 | 250 | 0.0 | 0.0 | 0.00 | 0.00 | 0.00 | 95 | 1020.9 |
| 20260830075454 | 55 | 250 | 0.0 | 0.0 | 0.00 | 0.00 | 0.00 | 95 | 1020.7 |
| 20260830075340 | 55 | 250 | 0.0 | 0.0 | 0.00 | 0.00 | 0.00 | 95 | 1020.6 |
| 20260830075204 | 55 | 250 | 0.0 | 0.0 | 0.00 | 0.00 | 0.00 | 95 | 1020.7 |
| 20260830075200 | 55 | 250 | 0.0 | 0.0 | 0.00 | 0.00 | 0.00 | 95 | 1020.7 |
| 20260830075147 | 55 | 250 | 0.0 | 0.0 | 0.00 | 0.00 | 0.00 | 95 | 1020.7 |
| 20260830075023 | 55 | 250 | 0.0 | 0.0 | 0.00 | 0.00 | 0.00 | 95 | 1020.9 |
| 20260830074909 | 55 | 250 | 0.0 | 0.0 | 0.00 | 0.00 | 0.00 | 95 | 1020.7 |
| 20260830074757 | 55 | 250 | 0.0 | 0.0 | 0.00 | 0.00 | 0.00 | 95 | 1020.7 |
| 20260830074752 | 55 | 250 | 0.0 | 0.0 | 0.00 | 0.00 | 0.00 | 95 | 1020.7 |
| 20260830074636 | 55 | 250 | 0.0 | 0.0 | 0.00 | 0.00 | 0.00 | 95 | 1020.7 |
| 20260830074538 | 55 | 250 | 0.0 | 0.0 | 0.00 | 0.00 | 0.00 | 95 | 1020.9 |
| 20260830074426 | 55 | 250 | 0.0 | 0.0 | 0.00 | 0.00 | 0.00 | 95 | 1020.7 |
| 20260830074326 | 55 | 250 | 0.0 | 0.0 | 0.00 | 0.00 | 0.00 | 95 | 1020.7 |
| 20260830074226 | 55 | 250 | 0.0 | 0.0 | 0.00 | 0.00 | 0.00 | 95 | 1020.7 |
| 20260830074102 | 55 | 250 | 0.0 | 0.0 | 0.00 | 0.00 | 0.00 | 95 | 1020.7 |
| 20260830074024 | 55 | 250 | 0.0 | 0.0 | 0.00 | 0.00 | 0.00 | 95 | 1020.7 |
| 20260830073938 | 55 | 250 | 0.0 | 0.0 | 0.00 | 0.00 | 0.00 | 95 | 1020.8 |
| 20260830073933 | 55 | 250 | 0.0 | 0.0 | 0.00 | 0.00 | 0.00 | 95 | 1020.7 |
| 20260830073724 | 55 | 250 | 0.0 | 0.0 | 0.00 | 0.00 | 0.00 | 95 | 1020.8 |
| 20260830073623 | 55 | 250 | 0.0 | 0.0 | 0.00 | 0.00 | 0.00 | 95 | 1020.7 |
| 20260830073602 | 55 | 250 | 0.0 | 0.0 | 0.00 | 0.00 | 0.00 | 95 | 1020.8 |
| 20260830073524 | 55 | 250 | 0.0 | 0.0 | 0.00 | 0.00 | 0.00 | 95 | 1021.0 |
| 20260830073522 | 55 | 250 | 0.0 | 0.0 | 0.00 | 0.00 | 0.00 | 95 | 1020.8 |
| 20260830073422 | 55 | 250 | 0.0 | 0.0 | 0.00 | 0.00 | 0.00 | 95 | 1020.8 |
| 20260830073334 | 55 | 250 | 0.0 | 0.0 | 0.00 | 0.00 | 0.00 | 95 | 1020.7 |
| 20260830073330 | 55 | 250 | 0.0 | 0.0 | 0.00 | 0.00 | 0.00 | 95 | 1020.8 |
| 20260830073120 | 55 | 250 | 0.0 | 0.0 | 0.00 | 0.00 | 0.00 | 95 | 1020.8 |
| 20260830073102 | 55 | 250 | 0.0 | 0.0 | 0.00 | 0.00 | 0.00 | 95 | 1020.7 |
| 20260830073043 | 55 | 250 | 0.0 | 0.0 | 0.00 | 0.00 | 0.00 | 95 | 1020.7 |
| 20260830073023 | 55 | 250 | 0.0 | 0.0 | 0.00 | 0.00 | 0.00 | 95 | 1020.9 |
| 20260830072928 | 55 | 250 | 0.0 | 0.0 | 0.00 | 0.00 | 0.00 | 95 | 1020.7 |
| 20260830072717 | 55 | 250 | 0.0 | 0.0 | 0.00 | 0.00 | 0.00 | 95 | 1020.7 |
| 20260830072617 | 55 | 250 | 0.0 | 0.0 | 0.00 | 0.00 | 0.00 | 95 | 1020.7 |
| 20260830072603 | 55 | 250 | 0.0 | 0.0 | 0.00 | 0.00 | 0.00 | 95 | 1020.8 |
| 20260830072523 | 55 | 250 | 0.0 | 0.0 | 0.00 | 0.00 | 0.00 | 95 | 1021.0 |
| 20260830072518 | 55 | 250 | 0.0 | 0.0 | 0.00 | 0.00 | 0.00 | 95 | 1020.8 |
| 20260830072416 | 55 | 250 | 0.0 | 0.0 | 0.00 | 0.00 | 0.00 | 95 | 1020.8 |
| 20260830072327 | 55 | 250 | 0.0 | 0.0 | 0.00 | 0.00 | 0.00 | 95 | 1020.7 |
| 20260830072323 | 55 | 250 | 0.0 | 0.0 | 0.00 | 0.00 | 0.00 | 95 | 1020.8 |
| 20260830072112 | 55 | 250 | 0.0 | 0.0 | 0.00 | 0.00 | 0.00 | 95 | 1020.7 |
| 20260830072101 | 55 | 250 | 0.0 | 0.0 | 0.00 | 0.00 | 0.00 | 95 | 1020.7 |
| 20260830072023 | 55 | 250 | 0.0 | 0.0 | 0.00 | 0.00 | 0.00 | 95 | 1020.9 |
| 20260830072013 | 55 | 250 | 0.0 | 0.0 | 0.00 | 0.00 | 0.00 | 95 | 1020.7 |
| 20260830071912 | 55 | 250 | 0.0 | 0.0 | 0.00 | 0.00 | 0.00 | 95 | 1020.7 |
| 20260830071812 | 55 | 250 | 0.0 | 0.0 | 0.00 | 0.00 | 0.00 | 95 | 1020.6 |
| 20260830071711 | 55 | 250 | 0.0 | 0.0 | 0.00 | 0.00 | 0.00 | 95 | 1020.7 |
| 20260830071611 | 55 | 250 | 0.0 | 0.0 | 0.00 | 0.00 | 0.00 | 95 | 1020.7 |
| 20260830071558 | 55 | 250 | 0.0 | 0.0 | 0.00 | 0.00 | 0.00 | 95 | 1020.7 |
| 20260830071523 | 55 | 250 | 0.0 | 0.0 | 0.00 | 0.00 | 0.00 | 95 | 1020.9 |
| 20260830071511 | 55 | 250 | 0.0 | 0.0 | 0.00 | 0.00 | 0.00 | 95 | 1020.7 |
| 20260830071408 | 55 | 250 | 0.0 | 0.0 | 0.00 | 0.00 | 0.00 | 95 | 1020.7 |
| 20260830071324 | 55 | 250 | 0.0 | 0.0 | 0.00 | 0.00 | 0.00 | 95 | 1020.7 |
| 20260830071319 | 55 | 250 | 0.0 | 0.0 | 0.00 | 0.00 | 0.00 | 95 | 1020.7 |
| 20260830071108 | 55 | 250 | 0.0 | 0.0 | 0.00 | 0.00 | 0.00 | 95 | 1020.6 |
| 20260830071059 | 55 | 250 | 0.0 | 0.0 | 0.00 | 0.00 | 0.00 | 95 | 1020.6 |
| 20260830071023 | 55 | 250 | 0.0 | 0.0 | 0.00 | 0.00 | 0.00 | 95 | 1020.9 |
| 20260830071008 | 55 | 250 | 0.0 | 0.0 | 0.00 | 0.00 | 0.00 | 95 | 1020.6 |
| 20260830070906 | 55 | 250 | 0.0 | 0.0 | 0.00 | 0.00 | 0.00 | 95 | 1020.7 |
| 20260830070804 | 55 | 250 | 0.0 | 0.0 | 0.00 | 0.00 | 0.00 | 95 | 1020.7 |
| 20260830070704 | 55 | 250 | 0.0 | 0.0 | 0.00 | 0.00 | 0.00 | 95 | 1020.6 |
| 20260830070617 | 55 | 250 | 0.0 | 0.0 | 0.00 | 0.00 | 0.00 | 95 | 1020.6 |
| 20260830070613 | 55 | 250 | 0.0 | 0.0 | 0.00 | 0.00 | 0.00 | 95 | 1020.6 |
| 20260830070523 | 55 | 250 | 0.0 | 0.0 | 0.00 | 0.00 | 0.00 | 95 | 1020.8 |
| 20260830070403 | 55 | 250 | 0.0 | 0.0 | 0.00 | 0.00 | 0.00 | 95 | 1020.6 |
| 20260830070302 | 55 | 250 | 0.0 | 0.0 | 0.00 | 0.00 | 0.00 | 95 | 1020.6 |
| 20260830070201 | 55 | 250 | 0.0 | 0.0 | 0.00 | 0.00 | 0.00 | 95 | 1020.6 |
| 20260830070058 | 55 | 250 | 0.0 | 0.0 | 0.00 | 0.00 | 0.00 | 95 | 1020.6 |
| 20260830070024 | 55 | 250 | 0.0 | 0.0 | 0.00 | 0.00 | 0.00 | 95 | 1020.8 |
| 20260830070002 | 55 | 250 | 0.0 | 0.0 | 0.00 | 0.00 | 0.00 | 95 | 1020.6 |
| 20260830065902 | 55 | 250 | 0.0 | 0.0 | 0.00 | 0.00 | 0.00 | 95 | 1020.5 |
| 20260830065802 | 55 | 250 | 0.0 | 0.0 | 0.00 | 0.00 | 0.00 | 95 | 1020.5 |
| 20260830065714 | 55 | 250 | 0.0 | 0.0 | 0.00 | 0.00 | 0.00 | 95 | 1020.5 |
| 20260830065709 | 55 | 250 | 0.0 | 0.0 | 0.00 | 0.00 | 0.00 | 95 | 1020.6 |
| 20260830065555 | 55 | 250 | 0.0 | 0.0 | 0.00 | 0.00 | 0.00 | 95 | 1020.5 |
| 20260830065523 | 55 | 250 | 0.0 | 0.0 | 0.00 | 0.00 | 0.00 | 95 | 1020.7 |
| 20260830065500 | 55 | 250 | 0.0 | 0.0 | 0.00 | 0.00 | 0.00 | 95 | 1020.5 |
| 20260830065412 | 55 | 250 | 0.0 | 0.0 | 0.00 | 0.00 | 0.00 | 95 | 1020.6 |
| 20260830065406 | 55 | 250 | 0.0 | 0.0 | 0.00 | 0.00 | 0.00 | 95 | 1020.5 |
| 20260830065158 | 55 | 250 | 0.0 | 0.0 | 0.00 | 0.00 | 0.00 | 95 | 1020.6 |
| 20260830065131 | 55 | 250 | 0.0 | 0.0 | 0.00 | 0.00 | 0.00 | 95 | 1020.6 |
| 20260830065126 | 55 | 250 | 0.0 | 0.0 | 0.00 | 0.00 | 0.00 | 95 | 1020.7 |
| 20260830065116 | 55 | 250 | 0.0 | 0.0 | 0.00 | 0.00 | 0.00 | 95 | 1020.6 |
| 20260830065023 | 55 | 250 | 0.0 | 0.0 | 0.00 | 0.00 | 0.00 | 95 | 1020.8 |
| 20260830064756 | 55 | 250 | 0.0 | 0.0 | 0.00 | 0.00 | 0.00 | 95 | 1020.7 |
| 20260830064655 | 55 | 250 | 0.0 | 0.0 | 0.00 | 0.00 | 0.00 | 95 | 1020.7 |
| 20260830064614 | 55 | 250 | 0.0 | 0.0 | 0.00 | 0.00 | 0.00 | 95 | 1020.6 |
| 20260830064605 | 55 | 250 | 0.0 | 0.0 | 0.00 | 0.00 | 0.00 | 95 | 1020.6 |
| 20260830064523 | 55 | 250 | 0.0 | 0.0 | 0.00 | 0.00 | 0.00 | 95 | 1020.8 |
| 20260830064355 | 55 | 250 | 0.0 | 0.0 | 0.00 | 0.00 | 0.00 | 95 | 1020.6 |
| 20260830064253 | 55 | 250 | 0.0 | 0.0 | 0.00 | 0.00 | 0.00 | 95 | 1020.6 |
| 20260830064153 | 55 | 250 | 0.0 | 0.0 | 0.00 | 0.00 | 0.00 | 95 | 1020.6 |
| 20260830064053 | 55 | 250 | 0.0 | 0.0 | 0.00 | 0.00 | 0.00 | 95 | 1020.7 |
| 20260830064023 | 55 | 250 | 0.0 | 0.0 | 0.00 | 0.00 | 0.00 | 95 | 1020.9 |
| 20260830064007 | 55 | 250 | 0.0 | 0.0 | 0.00 | 0.00 | 0.00 | 95 | 1020.7 |
| 20260830064002 | 55 | 250 | 0.0 | 0.0 | 0.00 | 0.00 | 0.00 | 95 | 1020.7 |
| 20260830063752 | 55 | 250 | 0.0 | 0.0 | 0.00 | 0.00 | 0.00 | 95 | 1020.7 |
| 20260830063651 | 55 | 250 | 0.0 | 0.0 | 0.00 | 0.00 | 0.00 | 95 | 1020.7 |
| 20260830063551 | 55 | 250 | 0.0 | 0.0 | 0.00 | 0.00 | 0.00 | 95 | 1020.7 |
| 20260830063523 | 55 | 250 | 0.0 | 0.0 | 0.00 | 0.00 | 0.00 | 95 | 1020.9 |
| 20260830063450 | 55 | 250 | 0.0 | 0.0 | 0.00 | 0.00 | 0.00 | 95 | 1020.7 |
| 20260830063350 | 55 | 250 | 0.0 | 0.0 | 0.00 | 0.00 | 0.00 | 95 | 1020.8 |
| 20260830063250 | 55 | 250 | 0.0 | 0.0 | 0.00 | 0.00 | 0.00 | 95 | 1020.8 |
| 20260830063202 | 55 | 250 | 0.0 | 0.0 | 0.00 | 0.00 | 0.00 | 95 | 1020.8 |
| 20260830063153 | 55 | 250 | 0.0 | 0.0 | 0.00 | 0.00 | 0.00 | 95 | 1020.8 |
| 20260830063038 | 55 | 250 | 0.0 | 0.0 | 0.00 | 0.00 | 0.00 | 95 | 1021.0 |
| 20260830063003 | 55 | 250 | 0.0 | 0.0 | 0.00 | 0.00 | 0.00 | 95 | 1020.8 |
| 20260830062958 | 55 | 250 | 0.0 | 0.0 | 0.00 | 0.00 | 0.00 | 95 | 1020.8 |
| 20260830062747 | 55 | 250 | 0.0 | 0.0 | 0.00 | 0.00 | 0.00 | 95 | 1020.7 |
| 20260830062647 | 55 | 250 | 0.0 | 0.0 | 0.00 | 0.00 | 0.00 | 94 | 1020.8 |
| 20260830062547 | 55 | 250 | 0.0 | 0.0 | 0.00 | 0.00 | 0.00 | 95 | 1020.7 |
| 20260830062523 | 55 | 250 | 0.0 | 0.0 | 0.00 | 0.00 | 0.00 | 95 | 1021.0 |
| 20260830062500 | 55 | 250 | 0.0 | 0.0 | 0.00 | 0.00 | 0.00 | 95 | 1020.8 |
| 20260830062454 | 55 | 250 | 0.0 | 0.0 | 0.00 | 0.00 | 0.00 | 95 | 1020.8 |
| 20260830062246 | 55 | 250 | 0.0 | 0.0 | 0.00 | 0.00 | 0.00 | 95 | 1020.8 |
| 20260830062144 | 55 | 250 | 0.0 | 0.0 | 0.00 | 0.00 | 0.00 | 95 | 1020.8 |
| 20260830062104 | 55 | 250 | 0.0 | 0.0 | 0.00 | 0.00 | 0.00 | 95 | 1020.7 |
| 20260830062055 | 55 | 250 | 0.0 | 0.0 | 0.00 | 0.00 | 0.00 | 95 | 1020.8 |
| 20260830062023 | 55 | 250 | 0.0 | 0.0 | 0.00 | 0.00 | 0.00 | 95 | 1020.9 |
| 20260830061844 | 55 | 250 | 0.0 | 0.0 | 0.00 | 0.00 | 0.00 | 95 | 1020.7 |
| 20260830061744 | 55 | 250 | 0.0 | 0.0 | 0.00 | 0.00 | 0.00 | 95 | 1020.7 |
| 20260830061643 | 55 | 250 | 0.0 | 0.0 | 0.00 | 0.00 | 0.00 | 95 | 1020.7 |
| 20260830061541 | 55 | 250 | 0.0 | 0.0 | 0.00 | 0.00 | 0.00 | 95 | 1020.7 |
| 20260830061523 | 55 | 250 | 0.0 | 0.0 | 0.00 | 0.00 | 0.00 | 94 | 1020.9 |
| 20260830061440 | 55 | 250 | 0.0 | 0.0 | 0.00 | 0.00 | 0.00 | 94 | 1020.7 |
| 20260830061340 | 55 | 250 | 0.0 | 0.0 | 0.00 | 0.00 | 0.00 | 95 | 1020.7 |
| 20260830061254 | 55 | 250 | 0.0 | 0.0 | 0.00 | 0.00 | 0.00 | 94 | 1020.6 |
| 20260830061248 | 55 | 250 | 0.0 | 0.0 | 0.00 | 0.00 | 0.00 | 94 | 1020.7 |
| 20260830061058 | 55 | 250 | 0.0 | 0.0 | 0.00 | 0.00 | 0.00 | 94 | 1020.6 |
| 20260830061049 | 55 | 250 | 0.0 | 0.0 | 0.00 | 0.00 | 0.00 | 94 | 1020.7 |
| 20260830061023 | 55 | 250 | 0.0 | 0.0 | 0.00 | 0.00 | 0.00 | 94 | 1020.8 |
| 20260830060837 | 55 | 250 | 0.0 | 0.0 | 0.00 | 0.00 | 0.00 | 94 | 1020.6 |
| 20260830060737 | 55 | 250 | 0.0 | 0.0 | 0.00 | 0.00 | 0.00 | 94 | 1020.6 |
| 20260830060637 | 55 | 250 | 0.0 | 0.0 | 0.00 | 0.00 | 0.00 | 94 | 1020.6 |
| 20260830060553 | 55 | 250 | 0.0 | 0.0 | 0.00 | 0.00 | 0.00 | 94 | 1020.8 |
| 20260830060537 | 55 | 250 | 0.0 | 0.0 | 0.00 | 0.00 | 0.00 | 94 | 1020.6 |
| 20260830060436 | 55 | 250 | 0.0 | 0.0 | 0.00 | 0.00 | 0.00 | 94 | 1020.6 |
| 20260830060336 | 55 | 250 | 0.0 | 0.0 | 0.00 | 0.00 | 0.00 | 94 | 1020.6 |
| 20260830060235 | 55 | 250 | 0.0 | 0.0 | 0.00 | 0.00 | 0.00 | 94 | 1020.7 |
| 20260830060135 | 55 | 250 | 0.0 | 0.0 | 0.00 | 0.00 | 0.00 | 94 | 1020.7 |
| 20260830060035 | 55 | 250 | 0.0 | 0.0 | 0.00 | 0.00 | 0.00 | 94 | 1020.7 |
| 20260830060023 | 55 | 250 | 0.0 | 0.0 | 0.00 | 0.00 | 0.00 | 94 | 1020.9 |
| 20260830055934 | 55 | 250 | 0.0 | 0.0 | 0.00 | 0.00 | 0.00 | 94 | 1020.7 |
| 20260830055834 | 55 | 250 | 0.0 | 0.0 | 0.00 | 0.00 | 0.00 | 94 | 1020.6 |
| 20260830055732 | 55 | 250 | 0.0 | 0.0 | 0.00 | 0.00 | 0.00 | 94 | 1020.7 |
| 20260830055632 | 55 | 250 | 0.0 | 0.0 | 0.00 | 0.00 | 0.00 | 94 | 1020.7 |
| 20260830055538 | 55 | 250 | 0.0 | 0.0 | 0.00 | 0.00 | 0.00 | 94 | 1020.9 |
| 20260830055532 | 55 | 250 | 0.0 | 0.0 | 0.00 | 0.00 | 0.00 | 94 | 1020.6 |
| 20260830055431 | 55 | 250 | 0.0 | 0.0 | 0.00 | 0.00 | 0.00 | 94 | 1020.7 |
| 20260830055331 | 55 | 250 | 0.0 | 0.0 | 0.00 | 0.00 | 0.00 | 94 | 1020.7 |
| 20260830055230 | 55 | 250 | 0.0 | 0.0 | 0.00 | 0.00 | 0.00 | 94 | 1020.7 |
| 20260830055206 | 56 | 250 | 0.0 | 0.0 | 0.00 | 0.00 | 0.00 | 94 | 1020.7 |
| 20260830055158 | 56 | 250 | 0.0 | 0.0 | 0.00 | 0.00 | 0.00 | 94 | 1020.7 |
| 20260830055023 | 56 | 250 | 0.0 | 0.0 | 0.00 | 0.00 | 0.00 | 94 | 1020.9 |
| 20260830054938 | 56 | 250 | 0.0 | 0.0 | 0.00 | 0.00 | 0.00 | 94 | 1020.7 |
| 20260830054729 | 56 | 250 | 0.0 | 0.0 | 0.00 | 0.00 | 0.00 | 94 | 1020.7 |
| 20260830054629 | 56 | 250 | 0.0 | 0.0 | 0.00 | 0.00 | 0.00 | 94 | 1020.7 |
| 20260830054528 | 56 | 250 | 0.0 | 0.0 | 0.00 | 0.00 | 0.00 | 94 | 1020.7 |
| 20260830054523 | 56 | 250 | 0.0 | 0.0 | 0.00 | 0.00 | 0.00 | 94 | 1020.9 |
| 20260830054450 | 56 | 250 | 0.0 | 0.0 | 0.00 | 0.00 | 0.00 | 94 | 1020.7 |
| 20260830054337 | 56 | 250 | 0.0 | 0.0 | 0.00 | 0.00 | 0.00 | 94 | 1020.7 |
| 20260830054127 | 56 | 250 | 0.0 | 0.0 | 0.00 | 0.00 | 0.00 | 94 | 1020.8 |
| 20260830054026 | 56 | 250 | 0.0 | 0.0 | 0.00 | 0.00 | 0.00 | 94 | 1020.8 |
| 20260830054024 | 56 | 250 | 0.0 | 0.0 | 0.00 | 0.00 | 0.00 | 94 | 1020.9 |
| 20260830053939 | 56 | 250 | 0.0 | 0.0 | 0.00 | 0.00 | 0.00 | 94 | 1020.7 |
| 20260830053934 | 56 | 250 | 0.0 | 0.0 | 0.00 | 0.00 | 0.00 | 94 | 1020.7 |
| 20260830053725 | 56 | 250 | 0.0 | 0.0 | 0.00 | 0.00 | 0.00 | 94 | 1020.7 |
| 20260830053624 | 56 | 250 | 0.0 | 0.0 | 0.00 | 0.00 | 0.00 | 94 | 1020.7 |
| 20260830053524 | 56 | 250 | 0.0 | 0.0 | 0.00 | 0.00 | 0.00 | 94 | 1020.7 |
| 20260830053423 | 56 | 250 | 0.0 | 0.0 | 0.00 | 0.00 | 0.00 | 94 | 1020.7 |
| 20260830053323 | 56 | 250 | 0.0 | 0.0 | 0.00 | 0.00 | 0.00 | 94 | 1020.7 |
| 20260830053223 | 56 | 250 | 0.0 | 0.0 | 0.00 | 0.00 | 0.00 | 94 | 1020.7 |
| 20260830053122 | 56 | 250 | 0.0 | 0.0 | 0.00 | 0.00 | 0.00 | 94 | 1020.7 |
| 20260830053023 | 56 | 250 | 0.0 | 0.0 | 0.00 | 0.00 | 0.00 | 94 | 1021.0 |
| 20260830053021 | 56 | 250 | 0.0 | 0.0 | 0.00 | 0.00 | 0.00 | 94 | 1020.8 |
| 20260830052934 | 56 | 250 | 0.0 | 0.0 | 0.00 | 0.00 | 0.00 | 94 | 1020.7 |
| 20260830052929 | 56 | 250 | 0.0 | 0.0 | 0.00 | 0.00 | 0.00 | 94 | 1020.8 |
| 20260830052720 | 56 | 250 | 0.0 | 0.0 | 0.00 | 0.00 | 0.00 | 94 | 1020.8 |
| 20260830052619 | 56 | 250 | 0.0 | 0.0 | 0.00 | 0.00 | 0.00 | 94 | 1020.8 |
| 20260830052523 | 56 | 250 | 0.0 | 0.0 | 0.00 | 0.00 | 0.00 | 94 | 1020.9 |
| 20260830052519 | 56 | 250 | 0.0 | 0.0 | 0.00 | 0.00 | 0.00 | 94 | 1020.8 |
| 20260830052432 | 56 | 250 | 0.0 | 0.0 | 0.00 | 0.00 | 0.00 | 94 | 1020.7 |
| 20260830052427 | 56 | 250 | 0.0 | 0.0 | 0.00 | 0.00 | 0.00 | 94 | 1020.7 |
| 20260830052217 | 56 | 250 | 0.0 | 0.0 | 0.00 | 0.00 | 0.00 | 94 | 1020.7 |
| 20260830052117 | 56 | 250 | 0.0 | 0.0 | 0.00 | 0.00 | 0.00 | 94 | 1020.8 |
| 20260830052023 | 56 | 250 | 0.0 | 0.0 | 0.00 | 0.00 | 0.00 | 94 | 1021.0 |
| 20260830052016 | 56 | 250 | 0.0 | 0.0 | 0.00 | 0.00 | 0.00 | 94 | 1020.8 |
| 20260830051930 | 56 | 250 | 0.0 | 0.0 | 0.00 | 0.00 | 0.00 | 94 | 1020.7 |
| 20260830051925 | 56 | 250 | 0.0 | 0.0 | 0.00 | 0.00 | 0.00 | 94 | 1020.8 |
| 20260830051715 | 56 | 250 | 0.0 | 0.0 | 0.00 | 0.00 | 0.00 | 94 | 1020.7 |
| 20260830051614 | 56 | 250 | 0.0 | 0.0 | 0.00 | 0.00 | 0.00 | 94 | 1020.7 |
| 20260830051538 | 56 | 250 | 0.0 | 0.0 | 0.00 | 0.00 | 0.00 | 94 | 1020.9 |
| 20260830051514 | 56 | 250 | 0.0 | 0.0 | 0.00 | 0.00 | 0.00 | 94 | 1020.7 |
| 20260830051414 | 56 | 250 | 0.0 | 0.0 | 0.00 | 0.00 | 0.00 | 94 | 1020.7 |
| 20260830051313 | 56 | 250 | 0.0 | 0.0 | 0.00 | 0.00 | 0.00 | 94 | 1020.7 |
| 20260830051308 | 56 | 250 | 0.0 | 0.0 | 0.00 | 0.00 | 0.00 | 94 | 1020.6 |
| 20260830051302 | 56 | 250 | 0.0 | 0.0 | 0.00 | 0.00 | 0.00 | 94 | 1020.6 |
| 20260830051253 | 56 | 250 | 0.0 | 0.0 | 0.00 | 0.00 | 0.00 | 94 | 1020.6 |
| 20260830051023 | 56 | 250 | 0.0 | 0.0 | 0.00 | 0.00 | 0.00 | 94 | 1020.9 |
| 20260830051012 | 56 | 250 | 0.0 | 0.0 | 0.00 | 0.00 | 0.00 | 94 | 1020.6 |
| 20260830050911 | 56 | 250 | 0.0 | 0.0 | 0.00 | 0.00 | 0.00 | 94 | 1020.7 |
| 20260830050811 | 56 | 250 | 0.0 | 0.0 | 0.00 | 0.00 | 0.00 | 94 | 1020.7 |
| 20260830050710 | 56 | 250 | 0.0 | 0.0 | 0.00 | 0.00 | 0.00 | 94 | 1020.7 |
| 20260830050610 | 56 | 250 | 0.0 | 0.0 | 0.00 | 0.00 | 0.00 | 94 | 1020.7 |
| 20260830050523 | 56 | 250 | 0.0 | 0.0 | 0.00 | 0.00 | 0.00 | 94 | 1020.8 |
| 20260830050510 | 56 | 250 | 0.0 | 0.0 | 0.00 | 0.00 | 0.00 | 94 | 1020.6 |
| 20260830050409 | 56 | 250 | 0.0 | 0.0 | 0.00 | 0.00 | 0.00 | 94 | 1020.6 |
| 20260830050309 | 56 | 250 | 0.0 | 0.0 | 0.00 | 0.00 | 0.00 | 94 | 1020.7 |
| 20260830050209 | 56 | 250 | 0.0 | 0.0 | 0.00 | 0.00 | 0.00 | 94 | 1020.7 |
| 20260830050122 | 56 | 250 | 0.0 | 0.0 | 0.00 | 0.00 | 0.00 | 94 | 1020.7 |
| 20260830050114 | 56 | 250 | 0.0 | 0.0 | 0.00 | 0.00 | 0.00 | 94 | 1020.6 |
| 20260830050023 | 56 | 250 | 0.0 | 0.0 | 0.00 | 0.00 | 0.00 | 94 | 1020.8 |
| 20260830045920 | 56 | 250 | 0.0 | 0.0 | 0.00 | 0.00 | 0.00 | 94 | 1020.6 |
| 20260830045915 | 56 | 250 | 0.0 | 0.0 | 0.00 | 0.00 | 0.00 | 94 | 1020.6 |
| 20260830045706 | 56 | 250 | 0.0 | 0.0 | 0.00 | 0.00 | 0.00 | 94 | 1020.7 |
| 20260830045605 | 56 | 250 | 0.0 | 0.0 | 0.00 | 0.00 | 0.00 | 94 | 1020.6 |
| 20260830045538 | 56 | 250 | 0.0 | 0.0 | 0.00 | 0.00 | 0.00 | 94 | 1020.8 |
| 20260830045505 | 56 | 250 | 0.0 | 0.0 | 0.00 | 0.00 | 0.00 | 94 | 1020.6 |
| 20260830045404 | 56 | 250 | 0.0 | 0.0 | 0.00 | 0.00 | 0.00 | 94 | 1020.6 |
| 20260830045306 | 56 | 250 | 0.0 | 0.0 | 0.00 | 0.00 | 0.00 | 94 | 1020.6 |
| 20260830045203 | 56 | 250 | 0.0 | 0.0 | 0.00 | 0.00 | 0.00 | 94 | 1020.7 |
| 20260830045103 | 56 | 250 | 0.0 | 0.0 | 0.00 | 0.00 | 0.00 | 94 | 1020.6 |
| 20260830045024 | 56 | 250 | 0.0 | 0.0 | 0.00 | 0.00 | 0.00 | 94 | 1020.8 |
| 20260830045003 | 56 | 250 | 0.0 | 0.0 | 0.00 | 0.00 | 0.00 | 94 | 1020.6 |
| 20260830044902 | 56 | 250 | 0.0 | 0.0 | 0.00 | 0.00 | 0.00 | 94 | 1020.7 |
| 20260830044817 | 56 | 250 | 0.0 | 0.0 | 0.00 | 0.00 | 0.00 | 94 | 1020.7 |
| 20260830044812 | 56 | 250 | 0.0 | 0.0 | 0.00 | 0.00 | 0.00 | 94 | 1020.7 |
| 20260830044615 | 56 | 250 | 0.0 | 0.0 | 0.00 | 0.00 | 0.00 | 94 | 1020.7 |
| 20260830044607 | 56 | 250 | 0.0 | 0.0 | 0.00 | 0.00 | 0.00 | 94 | 1020.7 |
| 20260830044523 | 56 | 250 | 0.0 | 0.0 | 0.00 | 0.00 | 0.00 | 94 | 1020.9 |
| 20260830044401 | 56 | 250 | 0.0 | 0.0 | 0.00 | 0.00 | 0.00 | 93 | 1020.7 |
| 20260830044300 | 56 | 250 | 0.0 | 0.0 | 0.00 | 0.00 | 0.00 | 93 | 1020.7 |
| 20260830044159 | 56 | 250 | 0.0 | 0.0 | 0.00 | 0.00 | 0.00 | 93 | 1020.6 |
| 20260830044117 | 56 | 250 | 0.0 | 0.0 | 0.00 | 0.00 | 0.00 | 93 | 1020.6 |
| 20260830044105 | 56 | 250 | 0.0 | 0.0 | 0.00 | 0.00 | 0.00 | 93 | 1020.6 |
| 20260830044023 | 56 | 250 | 0.0 | 0.0 | 0.00 | 0.00 | 0.00 | 93 | 1020.8 |
| 20260830043857 | 56 | 250 | 0.0 | 0.0 | 0.00 | 0.00 | 0.00 | 93 | 1020.6 |
| 20260830043757 | 56 | 250 | 0.0 | 0.0 | 0.00 | 0.00 | 0.00 | 93 | 1020.6 |
| 20260830043657 | 56 | 250 | 0.0 | 0.0 | 0.00 | 0.00 | 0.00 | 93 | 1020.6 |
| 20260830043556 | 56 | 250 | 0.0 | 0.0 | 0.00 | 0.00 | 0.00 | 93 | 1020.6 |
| 20260830043527 | 57 | 250 | 0.0 | 0.0 | 0.00 | 0.00 | 0.00 | 93 | 1020.6 |
| 20260830043523 | 57 | 250 | 0.0 | 0.0 | 0.00 | 0.00 | 0.00 | 93 | 1020.8 |
| 20260830043456 | 57 | 250 | 0.0 | 0.0 | 0.00 | 0.00 | 0.00 | 93 | 1020.6 |
| 20260830043355 | 57 | 250 | 0.0 | 0.0 | 0.00 | 0.00 | 0.00 | 93 | 1020.6 |
| 20260830043255 | 57 | 250 | 0.0 | 0.0 | 0.00 | 0.00 | 0.00 | 93 | 1020.6 |
| 20260830043155 | 57 | 250 | 0.0 | 0.0 | 0.00 | 0.00 | 0.00 | 93 | 1020.6 |
| 20260830043025 | 57 | 250 | 0.0 | 0.0 | 0.00 | 0.00 | 0.00 | 93 | 1020.5 |
| 20260830043023 | 57 | 250 | 0.0 | 0.0 | 0.00 | 0.00 | 0.00 | 93 | 1020.8 |
| 20260830042954 | 57 | 250 | 0.0 | 0.0 | 0.00 | 0.00 | 0.00 | 93 | 1020.6 |
| 20260830042907 | 57 | 250 | 0.0 | 0.0 | 0.00 | 0.00 | 0.00 | 94 | 1020.5 |
| 20260830042902 | 57 | 250 | 0.0 | 0.0 | 0.00 | 0.00 | 0.00 | 94 | 1020.6 |
| 20260830042706 | 57 | 250 | 0.0 | 0.0 | 0.00 | 0.00 | 0.00 | 94 | 1020.5 |
| 20260830042701 | 57 | 250 | 0.0 | 0.0 | 0.00 | 0.00 | 0.00 | 94 | 1020.5 |
| 20260830042525 | 57 | 250 | 0.0 | 0.0 | 0.00 | 0.00 | 0.00 | 94 | 1020.5 |
| 20260830042523 | 57 | 250 | 0.0 | 0.0 | 0.00 | 0.00 | 0.00 | 94 | 1020.7 |
| 20260830042449 | 57 | 250 | 0.0 | 0.0 | 0.00 | 0.00 | 0.00 | 94 | 1020.5 |
| 20260830042348 | 57 | 250 | 0.0 | 0.0 | 0.00 | 0.00 | 0.00 | 93 | 1020.5 |
| 20260830042248 | 57 | 250 | 0.0 | 0.0 | 0.00 | 0.00 | 0.00 | 93 | 1020.5 |
| 20260830042148 | 57 | 250 | 0.0 | 0.0 | 0.00 | 0.00 | 0.00 | 93 | 1020.5 |
| 20260830042025 | 57 | 250 | 0.0 | 0.0 | 0.00 | 0.00 | 0.00 | 93 | 1020.5 |
| 20260830042023 | 57 | 250 | 0.0 | 0.0 | 0.00 | 0.00 | 0.00 | 93 | 1020.7 |
| 20260830041948 | 57 | 250 | 0.0 | 0.0 | 0.00 | 0.00 | 0.00 | 93 | 1020.5 |
| 20260830041848 | 57 | 250 | 0.0 | 0.0 | 0.00 | 0.00 | 0.00 | 93 | 1020.5 |
| 20260830041748 | 57 | 250 | 0.0 | 0.0 | 0.00 | 0.00 | 0.00 | 93 | 1020.5 |
| 20260830041701 | 57 | 250 | 0.0 | 0.0 | 0.00 | 0.00 | 0.00 | 93 | 1020.4 |
| 20260830041656 | 57 | 250 | 0.0 | 0.0 | 0.00 | 0.00 | 0.00 | 93 | 1020.4 |
| 20260830041553 | 57 | 250 | 0.0 | 0.0 | 0.00 | 0.00 | 0.00 | 93 | 1020.6 |
| 20260830041522 | 57 | 250 | 0.0 | 0.0 | 0.00 | 0.00 | 0.00 | 93 | 1020.4 |
| 20260830041502 | 57 | 250 | 0.0 | 0.0 | 0.00 | 0.00 | 0.00 | 93 | 1020.4 |
| 20260830041456 | 57 | 250 | 0.0 | 0.0 | 0.00 | 0.00 | 0.00 | 93 | 1020.4 |
| 20260830041245 | 57 | 250 | 0.0 | 0.0 | 0.00 | 0.00 | 0.00 | 93 | 1020.5 |
| 20260830041145 | 57 | 250 | 0.0 | 0.0 | 0.00 | 0.00 | 0.00 | 93 | 1020.4 |
| 20260830041023 | 57 | 250 | 0.0 | 0.0 | 0.00 | 0.00 | 0.00 | 93 | 1020.5 |
| 20260830040943 | 57 | 250 | 0.0 | 0.0 | 0.00 | 0.00 | 0.00 | 93 | 1020.4 |
| 20260830040857 | 57 | 250 | 0.0 | 0.0 | 0.00 | 0.00 | 0.00 | 93 | 1020.4 |
| 20260830040851 | 57 | 250 | 0.0 | 0.0 | 0.00 | 0.00 | 0.00 | 93 | 1020.4 |